[[{"header":{"parameterUnit":"m.s-1","parameterCategory":1,"la1":30.6,"la2":28.766,"lo1":-90.7593,"lo2":-88.6598,"dy":0.0162,"dx":0.0183,"nx":116,"ny":114,"refTime":"2024-04-19T12:00:00:Z","depth":0,"parameterNumber":2,"parameterNumberName":"U-component_of_WINDS"},"data":[0.0,0.0,0.0,0.0,0.0,0.0,0.0,0.0,0.0,0.0,0.0,0.0,0.0,0.0,0.0,0.0,0.0,0.0,0.0,0.0,0.0,0.0,0.0,0.0,0.0,0.0,0.0,0.0,0.0,0.0,0.0,0.0,0.0,0.0,0.0,0.0,0.0,0.0,0.0,0.0,0.0,0.0,0.0,0.0,0.0,0.0,0.0,0.0,0.0,0.0,0.0,0.0,0.0,0.0,0.0,0.0,0.0,0.0,0.0,0.0,0.0,0.0,0.0,0.0,0.0,0.0,0.0,0.0,0.0,0.0,0.0,0.0,0.0,0.0,0.0,0.0,0.0,0.0,0.0,0.0,0.0,0.0,0.0,0.0,0.0,0.0,0.0,0.0,0.0,0.0,0.0,0.0,0.0,0.0,0.0,0.0,0.0,0.0,0.0,0.0,0.0,0.0,0.0,0.0,0.0,0.0,0.0,0.0,0.0,0.0,0.0,0.0,0.0,0.0,0.0,0.0,0.0,0.0,0.0,0.0,0.0,0.0,0.0,0.0,0.0,0.0,0.0,0.0,0.0,0.0,0.0,0.0,0.0,0.0,0.0,0.0,0.0,0.0,0.0,0.0,0.0,0.0,0.0,0.0,0.0,0.0,0.0,0.0,0.0,0.0,0.0,0.0,0.0,0.0,0.0,0.0,0.0,0.0,0.0,0.0,0.0,0.0,0.0,0.0,0.0,0.0,0.0,0.0,0.0,0.0,0.0,0.0,0.0,0.0,0.0,0.0,0.0,0.0,0.0,0.0,0.0,0.0,0.0,0.0,0.0,0.0,0.0,0.0,0.0,0.0,0.0,0.0,0.0,0.0,0.0,0.0,0.0,0.0,0.0,0.0,0.0,0.0,0.0,0.0,0.0,0.0,0.0,0.0,0.0,0.0,0.0,0.0,0.0,0.0,0.0,0.0,0.0,0.0,0.0,0.0,0.0,0.0,0.0,0.0,0.0,0.0,0.0,0.0,0.0,0.0,0.0,0.0,0.0,0.0,0.0,0.0,0.0,0.0,0.0,0.0,0.0,0.0,0.0,0.0,0.0,0.0,0.0,0.0,0.0,0.0,0.0,0.0,0.0,0.0,0.0,0.0,0.0,0.0,0.0,0.0,0.0,0.0,0.0,0.0,0.0,0.0,0.0,0.0,0.0,0.0,0.0,0.0,0.0,0.0,0.0,0.0,0.0,0.0,0.0,0.0,0.0,0.0,0.0,0.0,0.0,0.0,0.0,0.0,0.0,0.0,0.0,0.0,0.0,0.0,0.0,0.0,0.0,0.0,0.0,0.0,0.0,0.0,0.0,0.0,0.0,0.0,0.0,0.0,0.0,0.0,0.0,0.0,0.0,0.0,0.0,0.0,0.0,0.0,0.0,0.0,0.0,0.0,0.0,0.0,0.0,0.0,0.0,0.0,0.0,0.0,0.0,0.0,0.0,0.0,0.0,0.0,0.0,0.0,0.0,0.0,0.0,0.0,0.0,0.0,0.0,0.0,0.0,0.0,0.0,0.0,0.0,0.0,0.0,0.0,0.0,0.0,0.0,0.0,0.0,0.0,0.0,0.0,0.0,0.0,0.0,0.0,0.0,0.0,0.0,0.0,0.0,0.0,0.0,0.0,0.0,0.0,0.0,0.0,0.0,0.0,0.0,0.0,0.0,0.0,0.0,0.0,0.0,0.0,0.0,0.0,0.0,0.0,0.0,0.0,0.0,0.0,0.0,0.0,0.0,0.0,0.0,0.0,0.0,0.0,0.0,0.0,0.0,0.0,0.0,0.0,0.0,0.0,0.0,0.0,0.0,0.0,0.0,0.0,0.0,0.0,0.0,0.0,0.0,0.0,0.0,0.0,0.0,0.0,0.0,0.0,0.0,0.0,0.0,0.0,0.0,0.0,0.0,0.0,0.0,0.0,0.0,0.0,0.0,0.0,0.0,0.0,0.0,0.0,0.0,0.0,0.0,0.0,0.0,0.0,0.0,0.0,0.0,0.0,0.0,0.0,0.0,0.0,0.0,0.0,0.0,0.0,0.0,0.0,0.0,0.0,0.0,0.0,0.0,0.0,0.0,0.0,0.0,0.0,0.0,0.0,0.0,0.0,0.0,0.0,0.0,0.0,0.0,0.0,0.0,0.0,0.0,0.0,0.0,0.0,0.0,0.0,0.0,0.0,0.0,0.0,0.0,0.0,0.0,0.0,0.0,0.0,0.0,0.0,0.0,0.0,0.0,0.0,0.0,0.0,0.0,0.0,0.0,0.0,0.0,0.0,0.0,0.0,0.0,0.0,0.0,0.0,0.0,0.0,0.0,0.0,0.0,0.0,0.0,0.0,0.0,0.0,0.0,0.0,0.0,0.0,0.0,0.0,0.0,0.0,0.0,0.0,0.0,0.0,0.0,0.0,0.0,0.0,0.0,0.0,0.0,0.0,0.0,0.0,0.0,0.0,0.0,0.0,0.0,0.0,0.0,0.0,0.0,0.0,0.0,0.0,0.0,0.0,0.0,0.0,0.0,0.0,0.0,0.0,0.0,0.0,0.0,0.0,0.0,0.0,0.0,0.0,0.0,0.0,0.0,0.0,0.0,0.0,0.0,0.0,0.0,0.0,0.0,0.0,0.0,0.0,0.0,0.0,0.0,0.0,0.0,0.0,0.0,0.0,0.0,0.0,0.0,0.0,0.0,0.0,0.0,0.0,0.0,0.0,0.0,0.0,0.0,0.0,0.0,0.0,0.0,0.0,0.0,0.0,0.0,0.0,0.0,0.0,0.0,0.0,0.0,0.0,0.0,0.0,0.0,0.0,0.0,0.0,0.0,0.0,0.0,0.0,0.0,0.0,0.0,0.0,0.0,0.0,0.0,0.0,0.0,0.0,0.0,0.0,0.0,0.0,0.0,0.0,0.0,0.0,0.0,0.0,0.0,0.0,0.0,0.0,0.0,0.0,0.0,0.0,0.0,0.0,0.0,0.0,0.0,0.0,0.0,0.0,0.0,0.0,0.0,0.0,0.0,0.0,0.0,0.0,0.0,0.0,0.0,0.0,0.0,0.0,0.0,0.0,0.0,0.0,0.0,0.0,0.0,0.0,0.0,0.0,0.0,0.0,0.0,0.0,0.0,0.0,0.0,0.0,0.0,0.0,0.0,0.0,0.0,0.0,0.0,0.0,0.0,0.0,0.0,0.0,0.0,0.0,0.0,0.0,0.0,0.0,0.0,0.0,0.0,0.0,0.0,0.0,0.0,0.0,0.0,0.0,0.0,0.0,0.0,0.0,0.0,0.0,0.0,0.0,0.0,0.0,0.0,0.0,0.0,0.0,0.0,0.0,0.0,0.0,0.0,0.0,0.0,0.0,0.0,0.0,0.0,0.0,0.0,0.0,0.0,0.0,0.0,0.0,0.0,0.0,0.0,0.0,0.0,0.0,0.0,0.0,0.0,0.0,0.0,0.0,0.0,0.0,0.0,0.0,0.0,0.0,0.0,0.0,0.0,0.0,0.0,0.0,0.0,0.0,0.0,0.0,0.0,0.0,0.0,0.0,0.0,0.0,0.0,0.0,0.0,0.0,0.0,0.0,0.0,0.0,0.0,0.0,0.0,0.0,0.0,0.0,0.0,0.0,0.0,0.0,0.0,0.0,0.0,0.0,0.0,0.0,0.0,0.0,0.0,0.0,0.0,0.0,0.0,0.0,0.0,0.0,0.0,0.0,0.0,0.0,0.0,0.0,0.0,0.0,0.0,0.0,0.0,0.0,0.0,0.0,0.0,0.0,0.0,0.0,0.0,0.0,0.0,0.0,0.0,0.0,0.0,0.0,0.0,0.0,0.0,0.0,0.0,0.0,0.0,0.0,0.0,0.0,0.0,0.0,0.0,0.0,0.0,0.0,0.0,0.0,0.0,0.0,0.0,0.0,0.0,0.0,0.0,0.0,0.0,0.0,0.0,0.0,0.0,0.0,0.0,0.0,0.0,0.0,0.0,0.0,0.0,0.0,0.0,0.0,0.0,0.0,0.0,0.0,0.0,0.0,0.0,0.0,0.0,0.0,0.0,0.0,0.0,0.0,0.0,0.0,0.0,0.0,0.0,0.0,0.0,0.0,0.0,0.0,0.0,0.0,0.0,0.0,0.0,0.0,0.0,0.0,0.0,0.0,0.0,0.0,0.0,0.0,0.0,0.0,0.0,0.0,0.0,0.0,0.0,0.0,0.0,0.0,0.0,0.0,0.0,0.0,0.0,0.0,0.0,0.0,0.0,0.0,0.0,0.0,0.0,0.0,0.0,0.0,0.0,0.0,0.0,0.0,0.0,0.0,0.0,0.0,0.0,0.0,0.0,0.0,0.0,0.0,0.0,0.0,0.0,0.0,0.0,0.0,0.0,0.0,0.0,0.0,0.0,0.0,0.0,0.0,0.0,0.0,0.0,0.0,0.0,0.0,0.0,0.0,0.0,0.0,0.0,0.0,0.0,0.0,0.0,0.0,0.0,0.0,0.0,0.0,0.0,0.0,0.0,0.0,0.0,0.0,0.0,0.0,0.0,0.0,0.0,0.0,0.0,0.0,0.0,0.0,0.0,0.0,0.0,0.0,0.0,0.0,0.0,0.0,0.0,0.0,0.0,0.0,0.0,0.0,0.0,0.0,0.0,0.0,0.0,0.0,0.0,0.0,0.0,0.0,0.0,0.0,0.0,0.0,0.0,0.0,0.0,0.0,0.0,0.0,0.0,0.0,0.0,0.0,0.0,0.0,0.0,0.0,0.0,0.0,0.0,0.0,0.0,0.0,0.0,0.0,0.0,0.0,0.0,0.0,0.0,0.0,0.0,0.0,0.0,0.0,0.0,0.0,0.0,0.0,0.0,0.0,0.0,0.0,0.0,0.0,0.0,0.0,0.0,0.0,0.0,0.0,0.0,0.0,0.0,0.0,0.0,0.0,0.0,0.0,0.0,0.0,0.0,0.0,0.0,0.0,0.0,0.0,0.0,0.0,0.0,0.0,0.0,0.0,0.0,0.0,0.0,0.0,0.0,0.0,0.0,0.0,0.0,0.0,0.0,0.0,0.0,0.0,0.0,0.0,0.0,0.0,0.0,0.0,0.0,0.0,0.0,0.0,0.0,0.0,0.0,0.0,0.0,0.0,0.0,0.0,0.0,0.0,0.0,0.0,0.0,0.0,0.0,0.0,0.0,0.0,0.0,0.0,0.0,0.0,0.0,0.0,0.0,0.0,0.0,0.0,0.0,0.0,0.0,0.0,0.0,0.0,0.0,0.0,0.0,0.0,0.0,0.0,0.0,0.0,0.0,0.0,0.0,0.0,0.0,0.0,0.0,0.0,0.0,0.0,0.0,0.0,0.0,0.0,0.0,0.0,0.0,0.0,0.0,0.0,0.0,0.0,0.0,0.0,0.0,0.0,0.0,0.0,0.0,0.0,0.0,0.0,0.0,0.0,0.0,0.0,0.0,0.0,0.0,0.0,0.0,0.0,0.0,0.0,0.0,0.0,0.0,0.0,0.0,0.0,0.0,0.0,0.0,0.0,0.0,0.0,0.0,0.0,0.0,0.0,0.0,0.0,0.0,0.0,0.0,0.0,0.0,0.0,0.0,0.0,0.0,0.0,0.0,0.0,0.0,0.0,0.0,0.0,0.0,0.0,0.0,0.0,0.0,0.0,0.0,0.0,0.0,0.0,0.0,0.0,0.0,0.0,0.0,0.0,0.0,0.0,0.0,0.0,0.0,0.0,0.0,0.0,0.0,0.0,0.0,0.0,0.0,0.0,0.0,0.0,0.0,0.0,0.0,0.0,0.0,0.0,0.0,0.0,0.0,0.0,0.0,0.0,0.0,0.0,0.0,0.0,0.0,0.0,0.0,0.0,0.0,0.0,0.0,0.0,0.0,0.0,0.0,0.0,0.0,0.0,0.0,0.0,0.0,0.0,0.0,0.0,0.0,0.0,0.0,0.0,0.0,0.0,0.0,0.0,0.0,0.0,0.0,0.0,0.0,0.0,0.0,0.0,0.0,0.0,0.0,0.0,0.0,0.0,0.0,0.0,0.0,0.0,0.0,0.0,0.0,0.0,0.0,0.0,3.8785,0.0,0.0,0.0,0.0,0.0,0.0,0.0,0.0,0.0,0.0,0.0,0.0,0.0,0.0,0.0,0.0,0.0,0.0,0.0,0.0,0.0,0.0,0.0,0.0,3.4688,3.5679,3.5642,3.5679,3.5495,3.5027,0.0,0.0,0.0,0.0,0.0,3.4394,3.4798,3.5826,3.7441,3.8615,4.0565,4.321,4.4123,4.2653,3.9276,0.0,0.0,0.0,0.0,0.0,0.0,0.0,0.0,0.0,0.0,0.0,0.0,0.0,0.0,0.0,0.0,0.0,0.0,0.0,0.0,0.0,0.0,0.0,0.0,0.0,0.0,0.0,0.0,0.0,0.0,0.0,0.0,0.0,0.0,0.0,0.0,0.0,0.0,0.0,0.0,0.0,0.0,0.0,0.0,0.0,0.0,0.0,0.0,0.0,0.0,0.0,0.0,0.0,0.0,0.0,0.0,0.0,0.0,0.0,0.0,0.0,0.0,0.0,0.0,0.0,0.0,0.0,0.0,0.0,0.0,0.0,4.0717,0.0,0.0,0.0,0.0,0.0,0.0,0.0,0.0,0.0,0.0,0.0,0.0,0.0,0.0,0.0,0.0,0.0,0.0,0.0,0.0,0.0,3.1715,3.2522,3.4037,3.5422,3.6413,3.5716,3.521,3.521,3.4468,3.3954,3.3807,3.3807,3.41,3.477,3.5642,3.7074,3.9129,4.2249,4.5663,4.9212,5.0872,4.8489,4.2837,0.0,0.0,0.0,0.0,0.0,0.0,0.0,0.0,0.0,0.0,0.0,0.0,0.0,0.0,0.0,0.0,0.0,0.0,0.0,0.0,0.0,0.0,0.0,0.0,0.0,0.0,0.0,0.0,0.0,0.0,0.0,0.0,0.0,0.0,0.0,0.0,0.0,0.0,0.0,0.0,0.0,0.0,0.0,0.0,0.0,0.0,0.0,0.0,0.0,0.0,0.0,0.0,0.0,0.0,0.0,0.0,0.0,0.0,0.0,0.0,0.0,0.0,0.0,0.0,4.7749,4.8338,4.8338,4.819,4.8336,4.8593,4.8333,4.6847,4.4581,4.3615,0.0,0.0,0.0,0.0,0.0,0.0,0.0,0.0,0.0,0.0,0.0,0.0,0.0,0.0,0.0,0.0,0.0,0.0,0.0,3.1715,3.2522,3.4037,3.5642,3.7184,3.6597,3.6119,3.6119,3.5349,3.4541,3.3844,3.3807,3.3844,3.3954,3.4761,3.7008,4.0781,4.6764,5.1022,5.3586,5.4546,5.484,5.4399,5.0288,0.0,0.0,0.0,0.0,0.0,0.0,0.0,0.0,0.0,0.0,0.0,0.0,0.0,0.0,0.0,0.0,0.0,0.0,0.0,0.0,0.0,0.0,0.0,0.0,0.0,0.0,0.0,0.0,0.0,0.0,0.0,0.0,0.0,0.0,0.0,0.0,0.0,0.0,0.0,0.0,0.0,0.0,0.0,3.5394,3.7771,0.0,0.0,0.0,0.0,0.0,0.0,0.0,0.0,0.0,0.0,0.0,0.0,0.0,4.5426,4.6438,5.0232,5.2183,5.2247,5.4538,5.5649,5.5702,5.4999,5.5525,5.7026,5.5614,0.0,4.7107,4.5584,0.0,0.0,0.0,0.0,0.0,0.0,0.0,0.0,0.0,0.0,0.0,0.0,0.0,0.0,0.0,0.0,0.0,0.0,0.0,0.0,0.0,3.7184,4.0267,4.1442,4.3754,4.3754,4.0561,3.9974,3.8212,3.4651,3.4027,3.4247,3.5165,3.5973,3.9974,4.7241,5.4179,5.8757,6.1129,6.2902,6.3892,6.4061,6.1068,5.6932,5.194,4.8893,0.0,0.0,0.0,0.0,0.0,0.0,0.0,0.0,0.0,0.0,0.0,0.0,0.0,0.0,0.0,0.0,0.0,0.0,0.0,0.0,0.0,0.0,0.0,0.0,0.0,0.0,0.0,0.0,0.0,0.0,0.0,0.0,0.0,0.0,0.0,0.0,0.0,0.0,0.0,3.4908,3.7808,3.7991,4.0025,4.0111,0.0,0.0,0.0,0.0,0.0,0.0,0.0,0.0,0.0,4.6983,4.9047,5.0741,5.2075,5.5686,5.7663,5.8097,5.9697,6.0481,6.049,6.0248,6.0559,6.1278,6.0178,5.8029,5.4983,5.1045,4.7813,4.5064,0.0,0.0,0.0,0.0,3.9016,4.0626,0.0,0.0,0.0,0.0,0.0,0.0,0.0,0.0,0.0,0.0,0.0,0.0,3.6046,4.1332,4.548,4.7352,5.0251,5.0105,4.5663,4.3791,4.0818,3.6156,3.4578,3.4468,3.5936,3.9203,4.5443,5.4766,6.1227,6.5689,6.8239,7.0127,7.1081,7.1113,6.9797,6.464,5.6712,5.3628,4.9994,0.0,0.0,0.0,0.0,0.0,0.0,0.0,0.0,0.0,0.0,0.0,0.0,0.0,0.0,0.0,0.0,0.0,0.0,0.0,0.0,0.0,0.0,0.0,0.0,0.0,0.0,0.0,0.0,0.0,0.0,0.0,0.0,0.0,0.0,0.0,0.0,0.0,0.0,3.7441,4.0047,3.8872,4.2286,4.3088,0.0,0.0,0.0,0.0,0.0,0.0,4.6728,4.7829,4.9701,5.2564,5.5023,5.6859,5.807,6.0772,6.2438,6.3027,6.353,6.3922,6.4106,6.4066,6.4049,6.4058,6.3557,6.2784,6.141,5.606,5.1825,4.8481,4.6364,4.4786,4.3714,4.3974,4.4935,4.6365,0.0,0.0,0.0,0.0,0.0,0.0,0.0,0.0,0.0,0.0,0.0,3.6964,4.2396,4.603,4.9958,5.462,5.3188,5.1536,5.0508,4.4672,4.0414,3.8579,3.5495,3.4211,3.5027,4.4966,5.4106,6.2254,6.6512,7.022,7.334,7.345,7.3927,7.4625,7.378,7.0991,6.6512,5.9501,5.5464,5.3225,0.0,0.0,0.0,0.0,0.0,0.0,0.0,0.0,0.0,0.0,0.0,0.0,0.0,0.0,0.0,0.0,0.0,0.0,0.0,0.0,0.0,0.0,0.0,0.0,0.0,0.0,0.0,0.0,0.0,0.0,0.0,0.0,0.0,0.0,0.0,0.0,0.0,0.0,0.0,4.2066,4.7645,0.0,0.0,0.0,0.0,4.5552,4.6287,4.8563,5.2564,5.4252,5.6895,6.086,6.3392,6.4751,6.4824,6.5742,6.6219,6.6256,6.5676,6.5865,6.6666,6.6075,6.5848,6.5979,6.5942,6.5013,6.3156,5.8958,5.6209,5.4277,5.1045,4.9262,4.8444,4.7701,4.8964,5.1045,0.0,0.0,0.0,0.0,0.0,2.8975,2.8975,2.8975,2.9402,3.0467,3.5495,4.0487,4.4599,5.2123,5.8217,6.1557,6.2952,6.1961,5.7997,5.1683,4.7131,4.4966,3.979,3.9533,4.5039,5.2931,5.9685,6.5191,7.0807,7.4404,7.6056,7.7121,7.7488,7.7231,7.6423,7.4368,7.1174,6.5485,6.0309,5.5537,5.0839,4.6434,0.0,0.0,0.0,0.0,0.0,0.0,0.0,0.0,0.0,0.0,0.0,0.0,0.0,0.0,0.0,0.0,0.0,0.0,0.0,0.0,0.0,0.0,0.0,0.0,0.0,0.0,0.0,0.0,0.0,0.0,0.0,0.0,0.0,0.0,0.0,0.0,0.0,4.7645,5.2564,0.0,5.0141,5.0545,5.1353,5.2087,5.3849,5.6455,6.0015,6.1263,6.3209,6.6219,6.7173,6.7871,6.8385,6.8164,6.8054,6.8054,6.7263,6.7148,6.7561,6.7368,6.7111,6.6727,6.6823,6.6239,6.5125,6.3639,6.1113,5.7955,5.5726,5.502,5.5169,5.4871,5.5689,5.6878,0.0,0.0,0.0,0.0,0.0,2.8975,2.8975,2.9232,3.0283,3.2742,3.8726,4.4892,5.0582,5.8657,6.4861,6.7871,6.9082,6.7393,6.1961,5.5317,5.0105,4.6838,4.313,4.5039,5.3445,5.9171,6.4567,6.9743,7.4294,7.7084,7.8185,7.9286,7.936,7.8552,7.8002,7.6533,7.4258,7.0513,6.5191,5.8951,5.5133,5.0875,4.6287,0.0,0.0,0.0,0.0,0.0,0.0,0.0,0.0,0.0,0.0,0.0,0.0,0.0,0.0,0.0,0.0,0.0,0.0,0.0,0.0,0.0,0.0,0.0,0.0,0.0,0.0,0.0,0.0,0.0,0.0,0.0,0.0,0.0,0.0,0.0,5.0765,5.1867,5.6785,5.8877,5.5941,5.6381,5.7446,5.8767,6.0603,6.2842,6.5558,6.6476,6.7797,6.9669,6.9963,7.0257,7.0513,6.9706,6.9192,6.8898,6.8145,6.7847,6.7967,6.8107,6.7666,6.6802,6.7417,6.6797,6.5311,6.5868,6.4159,6.1038,5.9961,5.9552,5.9589,5.985,6.0295,6.0704,0.0,0.0,0.0,0.0,0.0,2.8975,2.8975,2.9696,3.2228,3.7845,4.2947,4.9994,6.0382,6.5338,6.9486,7.3413,7.0807,6.688,6.2034,5.484,4.8636,4.3864,4.5369,5.0472,5.9318,6.3466,6.9009,7.613,7.6974,7.8222,7.9837,7.9837,7.9433,7.8626,7.8626,7.7671,7.5983,7.4441,7.011,6.3906,5.9024,5.5537,5.2637,0.0,0.0,0.0,0.0,0.0,0.0,0.0,0.0,0.0,0.0,0.0,0.0,0.0,0.0,0.0,0.0,0.0,0.0,0.0,0.0,0.0,0.0,0.0,0.0,0.0,0.0,0.0,0.0,0.0,0.0,0.0,0.0,0.0,4.1368,4.904,5.462,5.4766,6.0419,6.3356,6.0933,6.2879,6.4604,6.5448,6.6219,6.7357,6.8935,6.9706,7.0477,7.1248,7.2018,7.2055,7.1284,7.0477,6.9706,6.8935,6.8252,6.7967,6.807,6.8259,6.7506,6.6277,6.7837,6.6685,6.3899,6.5534,6.5199,6.3676,6.3639,6.2673,6.1373,6.2153,6.2413,6.2264,0.0,0.0,0.0,2.8975,2.8975,2.8975,2.8975,2.9696,3.1604,3.5504,4.3864,5.2123,5.9098,6.7136,7.2973,7.5249,7.1945,6.8201,6.453,5.528,4.9297,4.7902,5.2784,5.8914,6.6072,6.9045,7.2642,7.6974,7.8405,7.9653,8.0681,8.1269,8.0791,7.947,7.947,7.8222,7.6056,7.5616,7.3413,6.9706,6.4273,5.9575,5.5427,0.0,0.0,0.0,0.0,0.0,0.0,0.0,0.0,0.0,0.0,0.0,0.0,0.0,0.0,0.0,0.0,0.0,0.0,0.0,0.0,0.0,0.0,0.0,0.0,0.0,0.0,0.0,0.0,0.0,0.0,0.0,4.4011,4.893,4.9774,5.5023,5.9869,6.2805,6.6806,6.8825,6.754,6.8054,6.8788,6.9596,6.9853,7.044,7.1468,7.0624,7.0183,7.0403,7.0624,7.066,7.044,7.022,7.0,6.9743,6.8402,6.7847,6.7952,6.807,6.8,6.7728,6.8271,6.7986,6.7205,6.7651,6.6871,6.5311,6.4085,6.3342,6.297,6.3193,6.2524,6.1336,0.0,0.0,0.0,2.8975,2.8975,2.8975,2.8975,2.9989,3.2339,3.6934,4.5883,5.4473,6.1484,6.8788,7.3707,7.4992,7.1725,6.721,6.1594,5.3922,5.0618,5.2883,5.8611,6.4296,6.9705,7.2878,7.5763,7.8369,7.9653,8.0718,8.1525,8.1966,8.1525,8.0277,7.9947,7.8809,7.7084,7.6387,7.5104,7.3179,6.9228,6.5118,6.1006,5.7519,5.484,5.2637,5.0839,4.9884,4.893,4.5333,0.0,0.0,0.0,0.0,0.0,0.0,0.0,0.0,0.0,0.0,0.0,0.0,0.0,0.0,0.0,0.0,0.0,0.0,0.0,0.0,0.0,0.0,0.0,0.0,4.9811,5.55,5.8364,6.119,6.42,6.7614,6.9963,7.1248,7.1138,7.1101,7.1321,7.1762,7.2129,7.2349,7.2496,7.1908,7.1138,7.011,7.0734,7.077,7.011,7.011,7.0257,7.0587,6.8641,6.7978,6.8378,6.8203,6.7802,6.7309,6.7789,6.7428,6.65,6.6834,6.6202,0.0,0.0,0.0,0.0,0.0,6.2784,6.1521,0.0,0.0,0.0,2.8975,2.8975,2.8975,2.8975,3.0356,3.3733,4.0267,4.8086,5.6345,6.5007,6.9633,7.2422,7.323,7.011,6.453,5.6124,5.2087,5.2595,5.8396,6.3195,6.7633,7.1677,7.5519,7.8259,7.991,8.0645,8.1415,8.2186,8.2186,8.1782,8.0975,8.0167,7.9323,7.8353,7.6778,7.5634,7.4724,7.3228,7.071,6.7322,6.2815,6.0543,5.9358,5.6347,5.3485,5.0963,4.961,0.0,0.0,0.0,0.0,0.0,0.0,0.0,0.0,0.0,0.0,0.0,0.0,0.0,0.0,0.0,0.0,0.0,0.0,0.0,0.0,0.0,0.0,0.0,0.0,5.5537,6.0713,6.6145,6.7063,6.7944,7.0,7.0954,7.1725,7.2422,7.2496,7.2496,7.2496,7.323,7.334,7.2532,0.0,0.0,0.0,0.0,7.1541,7.011,7.0183,7.0587,7.1284,6.9045,6.8328,6.9078,6.8498,6.7418,6.6112,6.6998,6.6128,6.4085,6.4791,6.4568,6.3899,6.5274,6.4902,6.3602,6.3416,6.2896,6.2153,0.0,0.0,2.8975,2.8975,2.8975,2.8975,2.8975,3.0356,3.3733,4.0267,4.7609,5.4876,6.1777,6.6769,6.9926,7.0734,6.5999,6.0896,5.5904,5.3665,5.5904,6.3525,6.6659,7.0697,7.5996,7.7598,7.914,8.0755,8.0938,8.1415,8.2186,8.2186,8.1782,8.0975,8.0167,7.9032,7.7528,7.6584,7.5386,7.4011,7.3721,7.1578,6.8427,6.625,6.4509,6.2983,6.1121,6.0912,6.0769,5.6044,5.4532,5.3965,5.019,0.0,0.0,0.0,0.0,0.0,0.0,0.0,0.0,0.0,0.0,0.0,0.0,0.0,0.0,0.0,0.0,0.0,0.0,0.0,0.0,5.4063,5.9869,6.5191,6.8862,7.0513,7.1284,7.1101,7.1798,7.2349,7.2496,7.2496,7.2496,7.2496,7.323,7.334,7.2532,7.2055,7.1248,7.0146,7.0403,7.0403,7.011,7.0734,7.1174,7.1321,0.0,0.0,6.8953,6.9036,6.855,6.7677,6.8111,6.7651,6.6611,6.676,6.5942,6.4568,6.4233,6.3899,6.3453,6.2153,6.1558,6.1224,0.0,2.8975,2.8975,2.8975,2.8975,2.8975,2.8975,3.0026,3.2706,3.7991,4.4672,5.1242,5.7336,6.0529,6.2585,6.3356,5.8621,5.5713,5.6108,5.729,6.0799,6.7213,7.106,7.4198,7.6558,7.8673,7.9984,8.0388,8.1195,8.1819,8.2186,8.2186,8.2003,8.1562,7.9954,7.8935,7.8484,7.6838,7.544,7.4416,7.4363,7.2941,7.0659,6.9526,6.8291,6.7016,6.5911,6.5034,6.3894,6.0605,5.8908,5.7542,5.3584,5.0488,4.7351,0.0,0.0,0.0,0.0,0.0,0.0,0.0,0.0,0.0,0.0,0.0,0.0,0.0,0.0,4.2869,4.5168,0.0,5.4255,5.8578,6.3335,6.7467,7.0293,7.1762,7.2349,7.1945,7.2606,7.2936,7.2532,7.2863,7.2936,7.2532,7.3634,7.378,7.2569,7.2496,7.1762,7.0146,7.0881,7.0917,7.011,7.0917,7.1505,7.1908,7.066,6.9889,6.9486,6.9352,6.8845,6.8121,6.7963,6.7688,6.7243,6.6388,6.5348,6.4159,6.3788,6.3602,6.3527,6.271,6.2153,6.1633,0.0,0.0,2.8975,2.8975,2.8865,2.8815,2.8975,2.9696,3.1678,3.5752,4.1368,4.6874,5.1977,5.3371,5.4032,5.4216,5.1646,5.2009,5.6566,6.1019,6.5673,7.0405,7.5092,7.7279,7.6642,7.9517,8.0755,8.0241,8.1562,8.2186,8.2186,8.2039,8.2039,8.2113,7.9834,7.9097,7.936,7.7232,7.5726,7.4798,7.4682,7.3793,7.2302,7.1579,7.0807,7.0061,6.8891,6.6447,6.3718,6.2981,6.1105,5.8556,5.547,5.4029,5.1923,4.3664,4.2665,0.0,0.0,0.0,0.0,0.0,0.0,0.0,0.0,0.0,4.1908,4.3562,4.5293,4.7541,5.1067,5.4327,5.8175,6.3145,6.6464,6.9119,7.1248,7.2239,7.2679,7.2532,7.3193,7.3377,7.2569,7.323,7.3377,7.2569,7.3854,7.4037,7.2569,7.3266,7.2716,7.0624,7.1835,7.1872,7.0587,7.1211,7.1872,7.2496,7.1174,7.0477,7.0293,6.9757,6.9104,6.8306,6.7443,6.7094,6.6945,6.5274,6.4196,6.3602,6.3602,6.3602,6.3602,6.3602,6.3007,6.2079,0.0,0.0,0.0,2.8975,2.8411,2.8191,2.8888,2.9696,3.1678,3.5752,3.9423,4.2727,4.548,4.7168,4.7241,4.5149,4.9114,5.3482,5.7593,6.3025,6.8568,7.4088,7.7011,7.8736,7.936,8.0461,8.1305,8.1929,8.2113,8.2186,8.2186,8.1489,8.1525,8.2113,8.0434,7.934,7.8659,7.7691,7.5987,7.391,7.3926,7.3026,7.1559,7.0776,7.0453,7.0007,6.7238,6.4308,6.1605,6.1501,5.9892,5.7797,5.7359,5.6113,5.3508,4.6916,0.0,4.1328,3.6777,3.5928,3.7071,4.017,4.1361,4.2982,0.0,0.0,5.0261,5.1134,5.3309,5.5531,5.7149,6.0772,6.4351,6.6848,6.931,7.1248,7.2239,7.3046,7.3303,7.2569,7.3193,7.3377,7.2569,7.323,7.3377,7.2569,7.334,7.345,7.2569,7.3266,7.323,7.2275,7.2422,7.2422,7.2239,7.2312,7.2422,7.2496,7.2312,7.1872,7.1138,7.0605,6.9953,6.9067,6.7061,6.6239,6.6091,6.4456,6.3676,6.3602,6.3602,6.3602,6.3602,6.3602,6.2636,6.1336,0.0,0.0,0.0,2.9067,2.8795,2.8631,2.8938,2.9269,3.0467,3.3109,3.5422,3.7808,4.023,4.0708,3.9827,3.7367,4.3644,5.0028,5.5367,6.2938,6.965,7.5238,7.7903,7.8993,7.8369,8.0534,8.1415,8.0791,8.1746,8.1966,8.1489,8.1636,8.1366,8.0677,7.9571,7.8884,7.8433,7.717,7.6049,7.5119,7.4636,7.3533,7.1946,6.9842,6.825,6.6676,6.3677,6.0909,0.0,0.0,5.6941,5.635,5.5959,5.431,5.1422,4.6035,4.3093,0.0,3.991,0.0,0.0,0.0,4.6632,4.9394,5.1705,5.3294,5.4489,5.5418,5.7254,5.9102,6.0552,6.2521,6.4918,0.0,6.9332,7.0588,7.2255,7.2386,7.2018,7.1211,7.0991,7.0954,7.1101,7.2679,7.2973,7.1211,7.2716,7.334,7.2532,7.2826,7.2863,7.2496,7.2496,7.2496,7.2496,7.2496,7.2496,7.2496,7.2496,7.1835,7.0624,7.101,7.056,6.942,6.7603,6.6537,6.6054,6.5348,6.4493,6.3676,6.4122,6.401,6.3602,6.3602,6.2599,6.1187,0.0,0.0,0.0,2.9074,2.9112,2.8998,2.9067,2.9021,2.9439,3.0577,3.1935,3.3476,3.5275,3.4761,3.366,3.2082,3.9166,4.6324,5.2432,6.1765,6.9394,7.4702,7.7829,7.8883,7.7708,8.0204,8.0975,7.98,8.0975,8.1232,8.0681,8.1269,8.0874,7.9682,7.9142,7.8633,7.8034,7.6954,7.6106,7.5395,7.4636,7.3153,7.1084,6.8014,6.4669,6.1289,5.9116,5.6598,0.0,0.0,5.15,5.2004,5.1291,5.0375,4.8692,4.4187,4.156,4.0324,4.1457,0.0,0.0,4.718,5.0661,5.3922,5.5073,5.6334,5.7746,5.8908,6.0047,6.1289,6.2806,6.3659,6.5019,6.8108,6.883,6.9648,7.1326,7.0872,7.0051,6.9229,6.8239,6.7671,6.776,7.0734,7.2055,7.055,7.2239,7.312,7.2532,7.2496,7.2496,7.2496,7.2496,7.2496,7.2496,7.2275,7.2275,7.2496,7.2275,7.1688,7.077,7.1212,7.0665,6.9286,6.7911,6.6982,6.6425,6.5942,6.5051,6.3973,6.4345,6.4122,6.3602,6.3602,6.2747,6.1521,0.0,0.0,0.0,0.0,2.8998,2.9067,2.927,2.9134,2.9012,2.9049,2.9806,3.0356,3.043,2.9696,2.9512,3.021,3.7,4.3608,4.926,5.9501,6.754,7.2386,7.6497,7.8589,7.8552,7.9396,7.9837,7.98,7.9837,7.9837,7.9837,7.9837,7.9815,7.9752,7.9682,7.8771,7.7345,7.731,7.5973,7.3774,7.305,7.0946,6.7911,6.4876,5.9564,5.3736,5.3632,0.0,0.0,0.0,4.2921,4.3439,4.2595,4.4406,0.0,4.2127,3.9121,3.7496,0.0,0.0,4.2949,4.8586,5.1724,5.4302,5.7786,5.938,6.0496,6.2048,6.2393,6.2875,6.4358,6.5227,6.604,6.6919,6.8213,6.9129,6.9201,6.8536,6.7658,6.6716,6.5332,6.3766,0.0,6.6916,7.0513,7.1211,7.2055,7.2532,7.2496,7.2496,7.2496,7.2496,7.2496,7.2496,7.2496,7.1725,7.1725,7.2496,7.1725,7.1725,7.2386,7.1084,6.9813,6.8506,6.7688,6.7317,6.7168,6.5534,6.4828,6.4716,6.3936,6.3639,6.3602,6.3602,6.3082,6.2264,0.0,0.0,0.0,0.0,0.0,2.9067,2.9291,2.9156,2.8975,2.8975,2.9232,0.0,0.0,0.0,0.0,0.0,3.4431,3.9717,4.592,5.4693,6.2071,6.7504,7.3634,7.668,7.6166,7.8552,7.9543,7.8993,7.9543,7.9507,7.9029,7.9543,7.8923,7.7342,7.788,7.722,7.5655,7.5134,7.4756,7.4257,7.0981,6.9015,6.7394,6.0806,5.5322,5.0424,0.0,0.0,0.0,3.8338,3.8495,3.9772,4.0308,4.0146,3.9215,3.6422,3.7482,3.9926,0.0,0.0,4.9465,5.2879,5.6235,5.9115,6.0843,6.1845,6.2461,6.2496,6.0047,5.8254,5.9254,5.8421,5.8642,6.1928,6.3264,6.5144,6.8609,6.6591,6.5003,6.5653,6.3826,0.0,0.0,0.0,0.0,6.8091,7.0367,7.1945,7.2459,7.2496,7.2496,7.2496,7.2496,7.2496,7.2496,7.2239,7.2239,7.2496,7.1138,7.0716,7.1011,6.9553,6.8985,6.9113,6.7826,6.702,6.6462,6.5905,6.5013,6.4048,6.4308,6.4085,6.3602,6.3602,6.3453,6.3082,0.0,0.0,0.0,0.0,0.0,0.0,0.0,0.0,0.0,0.0,0.0,0.0,0.0,0.0,0.0,0.0,0.0,3.6413,4.1772,4.8343,5.4583,6.0309,6.5007,6.765,6.8017,7.0073,7.1468,7.2092,7.3487,7.4515,7.5139,7.602,7.54,7.3618,7.4292,7.3737,7.2429,7.1394,7.0912,7.0463,6.56,6.2979,6.122,5.3632,4.8273,0.0,0.0,0.0,3.4376,3.3106,3.4156,3.6057,3.6191,3.5883,3.549,3.5352,3.8146,4.1974,4.5147,4.9459,5.3701,5.6564,5.9702,6.2186,6.2427,6.3048,6.3289,6.2289,5.884,5.5943,5.5632,5.3736,5.3298,5.671,5.793,6.0291,6.5519,6.3811,6.2657,6.4274,6.2522,6.1478,0.0,0.0,0.0,6.5983,6.8733,7.0697,7.1211,7.1505,7.1908,7.2496,7.2496,7.2496,7.2496,7.2202,7.1945,7.1615,7.0881,7.0275,6.9851,6.8941,6.843,6.8161,6.7863,6.6945,6.5682,6.5979,6.5274,6.4048,6.4308,6.4085,6.3602,6.3602,6.3602,6.349,0.0,0.0,0.0,0.0,0.0,0.0,0.0,0.0,0.0,0.0,0.0,0.0,0.0,0.0,0.0,0.0,0.0,0.0,3.6993,4.1001,4.57,5.1206,5.1756,5.3004,5.528,5.5427,5.6969,6.0052,6.2401,6.5081,6.8128,6.9085,6.9074,6.8199,6.8434,6.7994,6.7161,6.5711,6.426,6.2427,5.715,5.3356,5.0149,4.4009,0.0,0.0,0.0,0.0,0.0,2.8237,3.0238,3.2598,3.0999,3.2332,3.518,3.8801,4.1112,4.3768,4.9631,5.3046,5.5805,5.9461,6.1979,6.3358,6.2634,6.2944,6.2875,6.1254,5.8357,5.546,0.0,0.0,5.0045,5.177,5.2776,5.5203,6.0557,6.059,6.0755,0.0,0.0,0.0,0.0,0.0,0.0,6.5091,0.0,6.9009,6.9082,6.9816,7.0917,7.2459,7.2496,7.2496,7.2496,7.1725,7.0881,7.0036,7.0807,7.0422,6.9041,6.9199,6.801,6.6049,6.7714,6.7094,6.4939,6.5719,6.5534,6.4679,6.3899,6.3602,6.3602,6.3602,6.3565,6.3453,0.0,0.0,0.0,0.0,0.0,0.0,0.0,0.0,0.0,0.0,0.0,0.0,0.0,0.0,0.0,0.0,0.0,0.0,3.2816,3.7331,4.1111,4.3754,4.8526,5.1389,5.2013,5.3188,5.4216,5.506,5.5684,5.6418,5.7226,5.7491,5.717,5.6331,5.6438,5.5957,5.5164,5.4017,5.3619,5.341,0.0,4.7207,4.65,0.0,0.0,0.0,0.0,0.0,0.0,0.0,0.0,0.0,0.0,3.8511,4.0284,4.1836,4.5768,5.008,5.2252,5.6564,6.0806,6.2358,6.2737,6.2703,6.253,6.1289,5.9288,5.6081,5.1183,4.6596,0.0,0.0,0.0,4.8872,5.2226,0.0,6.2108,6.2169,0.0,6.3639,0.0,6.3549,6.4584,6.5346,0.0,0.0,6.8257,7.033,7.1505,7.1798,7.2092,7.2496,7.2496,7.2496,7.2496,7.1725,7.0624,6.9229,6.9412,6.9026,6.8194,6.8351,6.8121,6.7679,6.764,6.6908,6.5756,6.5311,6.4642,6.3899,6.3676,6.3602,6.3602,6.3602,6.323,6.2673,0.0,0.0,0.0,0.0,0.0,0.0,0.0,0.0,0.0,0.0,0.0,0.0,0.0,0.0,0.0,0.0,0.0,0.0,0.0,3.2926,3.5165,3.678,3.968,4.1552,4.2286,4.3167,4.4342,4.5773,4.6838,4.8086,4.9481,4.9569,4.9343,4.8911,4.8637,4.8435,4.8272,4.7031,4.656,0.0,0.0,0.0,0.0,0.0,0.0,0.0,0.0,0.0,0.0,0.0,0.0,3.744,4.1997,4.3919,4.5113,4.8252,0.0,5.4701,5.6805,6.0116,6.2979,6.3082,6.2806,6.1875,5.953,5.7736,5.5081,4.9976,4.563,0.0,3.7939,3.8043,0.0,0.0,0.0,0.0,6.021,6.1107,6.1822,0.0,6.3931,0.0,6.6164,6.6607,6.6891,0.0,6.8341,6.9644,7.0881,7.1248,7.1762,7.2496,7.2496,7.2349,7.1982,7.1174,7.0146,6.8898,6.8898,6.8512,6.7899,6.8018,6.7617,6.6716,6.7158,6.6239,6.4493,6.4716,6.4169,6.3205,6.3205,6.3062,6.2867,6.311,6.2909,6.2586,0.0,0.0,0.0,0.0,0.0,0.0,0.0,0.0,0.0,0.0,2.9095,2.8975,0.0,0.0,0.0,0.0,0.0,0.0,0.0,0.0,2.9622,3.1066,2.9779,2.9729,3.1114,3.1151,3.2551,3.5423,3.7463,3.9926,4.265,4.2813,4.2874,4.2874,4.2276,4.2412,4.2935,4.1556,4.0601,3.9686,3.5652,0.0,0.0,0.0,0.0,0.0,0.0,0.0,0.0,0.0,3.9215,4.0263,4.6951,4.9118,5.0252,5.5563,5.7391,5.8392,6.1634,6.3082,6.3565,6.2806,6.2324,6.0703,5.5667,5.346,5.0597,4.394,0.0,3.8732,3.4663,3.5801,3.8491,4.2043,0.0,5.1149,5.6877,5.9039,6.1043,6.3764,6.3693,6.446,6.6884,6.6954,6.7271,6.8539,6.8063,6.809,6.9059,6.9775,7.0799,7.2307,7.227,7.183,7.1174,7.033,6.9522,6.8752,6.8752,6.8456,6.7952,6.8055,6.7025,6.5197,6.6564,6.5534,6.297,6.4159,6.3918,6.2794,6.2745,6.2391,6.2059,6.2442,6.2522,6.2498,0.0,0.0,0.0,0.0,0.0,0.0,0.0,0.0,0.0,0.0,2.965,2.8975,0.0,0.0,0.0,0.0,0.0,0.0,0.0,0.0,0.0,2.9657,2.9397,2.9444,2.9887,2.9924,3.0186,3.0764,3.1005,3.1436,3.1969,3.1861,3.178,3.178,3.1637,3.1656,3.1801,3.1281,3.1016,3.08,2.9712,0.0,0.0,0.0,0.0,0.0,0.0,0.0,0.0,0.0,4.2749,4.6428,5.1706,5.511,5.7253,5.8357,6.0461,6.2427,6.2496,6.3462,6.4324,6.36,6.153,5.8771,5.5288,5.1011,0.0,0.0,3.718,3.4835,3.3386,3.4973,3.856,4.4803,4.8562,5.2123,5.6194,5.9666,6.2048,0.0,6.2906,6.4186,6.762,6.5352,0.0,0.0,6.7691,6.7969,6.9956,7.0171,7.0649,7.1547,7.0992,7.0506,7.033,6.9522,6.8715,6.7907,6.7907,6.7957,6.8107,6.807,6.8,6.7752,6.676,0.0,6.5385,6.427,6.3668,6.3382,6.288,6.2645,6.2493,6.2129,6.1587,6.1059,0.0,0.0,0.0,0.0,0.0,0.0,0.0,3.0429,3.0846,3.2051,3.1682,3.0974,3.0076,2.9593,2.9312,0.0,0.0,0.0,0.0,0.0,0.0,0.0,0.0,0.0,0.0,2.9589,0.0,0.0,0.0,2.9397,2.9312,0.0,0.0,2.8975,2.8975,2.8975,2.8975,2.8858,2.8834,2.8821,0.0,0.0,0.0,0.0,0.0,0.0,0.0,0.0,0.0,0.0,4.1116,4.6378,5.3901,5.7805,5.9702,6.0116,6.1565,6.2944,6.2599,6.3289,6.3772,6.222,5.984,5.6357,5.0528,0.0,0.0,0.0,3.2697,3.1455,3.0696,3.3076,0.0,4.2147,4.6251,5.0435,5.5201,5.8015,6.0412,6.2478,6.2608,6.3392,0.0,6.405,6.3886,6.609,6.599,6.7092,7.0125,7.03,7.0257,7.026,6.9505,6.8841,6.8416,6.7559,6.7003,6.6641,6.6736,6.691,6.7045,6.7157,6.6884,6.6203,6.5433,6.42,6.2658,6.2732,6.2054,6.1105,6.1589,6.164,6.1358,6.1394,6.1142,6.0896,0.0,0.0,0.0,0.0,0.0,0.0,3.0874,3.1298,3.2062,3.3601,3.3809,3.3223,3.1732,3.0716,3.0002,0.0,0.0,0.0,0.0,0.0,0.0,0.0,0.0,0.0,0.0,0.0,0.0,0.0,0.0,0.0,0.0,0.0,0.0,0.0,0.0,0.0,2.9089,2.9067,2.9067,0.0,0.0,0.0,0.0,0.0,0.0,0.0,0.0,0.0,0.0,0.0,3.787,4.2975,5.1735,5.6564,5.9081,5.9668,6.0978,6.2324,6.2841,6.3255,6.3082,6.0978,5.8254,5.4011,4.6079,4.1526,0.0,3.08,2.9248,2.9041,2.911,3.1558,3.5007,0.0,4.2871,4.73,5.3484,5.5619,5.801,0.0,6.2198,0.0,6.3509,6.294,0.0,6.4102,6.4649,6.6408,6.9637,6.9672,6.9388,6.8991,6.803,6.7314,6.6803,6.5982,6.559,6.559,6.5815,6.5976,6.6125,6.6163,6.5583,6.4468,6.4106,6.2367,5.9885,6.1281,6.0738,5.9,6.0438,6.0722,6.0325,6.0661,6.0843,6.1022,0.0,0.0,0.0,0.0,0.0,0.0,3.0171,3.1569,3.3172,3.4797,3.5026,3.4683,3.3821,3.2598,3.128,0.0,0.0,0.0,0.0,0.0,0.0,0.0,0.0,0.0,0.0,0.0,0.0,0.0,0.0,0.0,0.0,0.0,0.0,0.0,0.0,0.0,0.0,0.0,0.0,0.0,0.0,0.0,0.0,0.0,0.0,0.0,0.0,0.0,0.0,0.0,0.0,3.6801,4.1871,4.8769,5.5046,5.5115,0.0,0.0,6.3945,6.4048,6.322,6.1599,5.7426,5.208,4.5768,0.0,3.5249,3.0489,2.842,2.8316,3.0972,3.1765,0.0,0.0,0.0,4.289,5.0189,5.3078,5.5995,6.0109,0.0,0.0,6.3679,6.2139,6.1913,6.4187,6.5206,6.6505,6.8215,6.7661,6.7626,6.8149,6.6673,6.6209,6.6767,6.5982,6.559,6.559,6.5815,6.5976,6.6089,6.5586,6.5402,6.5265,6.3816,6.2241,0.0,6.1534,6.0919,5.9509,6.0612,6.0962,6.0843,6.0388,6.036,6.0696,0.0,0.0,0.0,0.0,0.0,0.0,3.0084,3.1217,3.2936,3.5649,3.5534,3.5076,3.477,3.3815,3.2362,3.0143,0.0,0.0,0.0,0.0,0.0,0.0,0.0,0.0,0.0,0.0,3.0199,3.0188,3.0118,0.0,0.0,0.0,0.0,0.0,0.0,0.0,0.0,0.0,0.0,0.0,0.0,0.0,0.0,0.0,0.0,0.0,0.0,0.0,0.0,0.0,0.0,0.0,3.3007,3.7629,0.0,0.0,5.2632,5.6322,5.8599,6.0703,6.1737,5.9771,5.5598,5.0424,4.432,0.0,3.38,2.9696,2.8006,2.7937,3.0041,3.0041,3.1282,0.0,0.0,0.0,4.6254,4.8552,5.1884,5.8416,5.9916,0.0,0.0,0.0,6.162,6.3142,6.3669,6.4703,6.6669,6.6497,6.6236,6.6016,6.5391,6.5015,6.4883,6.4568,6.4498,6.4567,6.4808,6.4908,6.5074,6.4989,6.4728,6.4294,6.3155,6.0985,0.0,6.0096,5.9348,5.732,5.9583,6.045,6.045,6.0199,6.0297,6.0671,0.0,0.0,0.0,0.0,0.0,2.8925,2.9729,3.1193,3.3089,3.5458,3.5665,3.5506,3.5293,3.4312,3.2986,3.1172,3.0519,0.0,0.0,0.0,0.0,0.0,0.0,0.0,0.0,0.0,3.0228,3.0267,3.0254,3.0215,0.0,0.0,0.0,0.0,0.0,0.0,0.0,0.0,0.0,0.0,0.0,0.0,0.0,0.0,0.0,0.0,0.0,0.0,0.0,0.0,0.0,0.0,0.0,0.0,0.0,0.0,4.6872,5.139,5.3667,5.7219,5.9806,5.7736,5.3287,4.801,0.0,0.0,3.2145,2.8765,2.7661,2.7661,2.8937,2.8937,2.9834,0.0,0.0,3.6414,4.3529,4.5795,4.9238,5.5962,0.0,5.9211,0.0,6.189,6.2385,6.3082,6.2944,6.36,6.5428,6.5324,6.5048,6.4703,6.4496,6.4117,6.36,6.36,6.3673,6.3927,6.4109,6.3903,6.3414,6.383,6.3372,6.2213,6.1862,5.9896,0.0,5.9229,5.8562,5.6455,5.9053,6.0107,6.0107,6.0107,6.036,6.0793,0.0,0.0,0.0,0.0,0.0,2.8088,2.8898,3.1847,3.3968,3.4006,3.5515,3.6266,3.5479,3.3955,3.2979,3.2878,3.1224,0.0,0.0,0.0,0.0,0.0,0.0,0.0,0.0,0.0,3.0314,3.0402,3.0402,3.0423,3.0472,3.0472,3.0451,0.0,0.0,0.0,0.0,0.0,0.0,0.0,0.0,0.0,0.0,0.0,0.0,0.0,0.0,0.0,0.0,0.0,0.0,0.0,0.0,2.7904,2.9118,0.0,4.1216,4.8252,5.0528,5.4494,5.7564,5.6012,5.0528,4.4458,0.0,3.5042,3.0075,2.7764,2.7316,2.7523,2.8282,2.9006,3.0248,0.0,0.0,0.0,4.2526,4.5803,4.8942,0.0,0.0,5.6815,6.0476,6.3136,6.4669,6.4669,6.3979,0.0,6.4669,6.4014,6.3945,6.4669,6.3979,6.36,6.36,6.36,6.3673,6.3927,6.4109,6.3067,6.1072,6.2007,6.1195,5.9089,5.9826,5.9229,0.0,5.944,5.9194,5.793,5.9475,6.0107,6.0107,6.0107,6.0547,6.1093,0.0,0.0,0.0,0.0,0.0,0.0,2.9011,3.0491,3.1968,3.3147,3.3288,3.357,3.4469,3.3106,3.2116,3.2093,3.097,0.0,0.0,0.0,0.0,0.0,0.0,0.0,0.0,0.0,3.0461,3.0535,3.0479,3.0488,3.0591,3.052,3.0472,3.0469,3.0402,0.0,0.0,0.0,0.0,0.0,0.0,0.0,0.0,0.0,0.0,0.0,0.0,0.0,0.0,0.0,0.0,0.0,0.0,0.0,0.0,2.9674,3.453,3.9971,4.2575,4.5527,4.7596,4.6562,4.3113,3.9284,3.649,3.2766,2.9386,2.7661,2.7282,2.7523,2.8247,2.8592,2.9834,0.0,0.0,0.0,0.0,0.0,0.0,5.42,5.8428,6.1459,0.0,0.0,6.2806,6.3876,6.2772,6.2599,6.3876,6.3738,6.3703,6.3945,6.322,6.2841,6.2841,6.2289,6.2433,6.3309,6.338,6.2613,6.127,6.2635,6.1932,5.9791,6.0563,6.0036,5.8702,5.9685,5.9194,5.7965,5.951,6.0107,6.0171,6.036,6.0377,6.0272,0.0,0.0,0.0,0.0,0.0,0.0,2.9157,3.0163,3.1163,3.1934,3.1841,3.2248,3.3639,3.2318,3.1555,3.2182,3.1118,0.0,0.0,0.0,0.0,0.0,0.0,0.0,3.0521,3.0506,3.0877,3.1605,3.093,3.0937,3.1612,3.0901,3.0565,3.0492,3.0479,3.0328,0.0,0.0,0.0,0.0,0.0,0.0,2.9134,0.0,0.0,0.0,0.0,0.0,0.0,0.0,0.0,0.0,0.0,0.0,0.0,0.0,3.0366,3.367,3.6893,4.0145,4.2462,4.1661,3.899,3.6063,3.4241,0.0,2.8548,2.752,2.773,2.8109,2.8006,2.8903,3.0282,3.2076,3.4663,0.0,0.0,0.0,0.0,5.3391,0.0,0.0,0.0,6.2496,6.2875,6.3531,6.2703,6.2599,6.3531,6.36,6.36,6.36,6.2875,6.2496,6.2496,6.1774,6.1848,6.2579,6.2649,6.1911,6.0493,6.2038,6.1441,5.9299,6.0388,6.0282,0.0,5.9896,5.9545,5.8773,5.9721,6.0107,6.0171,6.0485,6.0473,6.0367,0.0,0.0,0.0,0.0,0.0,0.0,0.0,3.0636,3.1339,3.0462,3.113,3.2028,3.2851,3.1592,3.129,3.2783,3.1491,0.0,0.0,0.0,0.0,0.0,0.0,0.0,3.0506,3.0562,3.146,3.3122,3.1559,3.1602,3.3098,3.1529,3.0691,3.05,3.0482,3.0359,0.0,0.0,0.0,0.0,2.8497,2.8582,0.0,0.0,0.0,0.0,0.0,0.0,0.0,0.0,0.0,0.0,0.0,0.0,0.0,0.0,0.0,0.0,0.0,3.7404,4.0665,3.9888,3.7031,3.4163,3.3213,3.0267,0.0,2.7483,2.8558,2.911,2.7833,3.0006,3.1524,3.0144,3.4869,0.0,0.0,4.3009,0.0,0.0,5.5985,0.0,5.9978,6.2806,6.4289,6.3496,6.3531,6.3565,6.3531,6.3531,6.3531,6.3531,6.2737,6.2358,6.2393,6.1812,6.1502,6.1708,6.1913,6.0893,5.8913,6.0528,6.0036,0.0,5.944,6.0107,6.0107,6.0036,6.0001,6.0001,5.9966,5.9966,6.0065,6.0344,6.0711,6.0938,0.0,0.0,0.0,0.0,0.0,0.0,0.0,0.0,0.0,0.0,3.0428,3.1057,3.1251,3.0916,3.0846,0.0,0.0,0.0,0.0,0.0,0.0,0.0,0.0,0.0,3.0723,3.0736,3.0973,3.1395,3.163,3.1626,3.1376,3.1582,3.132,3.0664,3.0543,3.0359,0.0,0.0,0.0,0.0,2.9326,2.9265,0.0,0.0,0.0,0.0,2.8998,2.8975,0.0,0.0,0.0,0.0,0.0,0.0,0.0,0.0,2.8761,2.9053,2.9819,0.0,3.1275,3.1097,3.038,2.9574,0.0,2.8333,0.0,0.0,0.0,2.9765,3.0593,3.2283,3.3628,3.3835,0.0,4.056,4.1112,0.0,0.0,5.4391,5.9288,6.139,5.8702,6.1737,6.3289,6.1944,6.291,6.3358,6.2772,6.2737,6.2737,6.2737,6.1603,6.1224,6.1812,6.0463,5.9696,5.9469,6.0688,5.9809,5.7263,6.0036,6.0036,5.7895,5.944,6.0107,6.0072,5.9475,5.9264,5.9194,5.8597,5.8737,5.9257,5.9195,5.9608,6.0117,0.0,0.0,0.0,0.0,0.0,0.0,0.0,0.0,0.0,0.0,3.019,3.074,3.074,3.0714,3.0714,0.0,0.0,0.0,0.0,0.0,0.0,0.0,0.0,3.0781,3.0781,3.0818,3.1171,3.199,3.1678,3.1674,3.197,3.1604,3.1196,3.0706,3.0568,3.0413,3.0251,0.0,0.0,0.0,2.9317,0.0,0.0,0.0,0.0,0.0,2.9044,2.8975,0.0,2.8975,2.8975,2.8975,0.0,0.0,0.0,0.0,2.8881,2.8952,2.8834,2.8651,2.8696,2.9419,2.9057,2.8655,2.9104,0.0,0.0,0.0,0.0,3.0107,3.129,3.2437,3.3543,0.0,3.7284,0.0,0.0,0.0,5.2701,5.4839,5.7667,5.915,0.0,6.0909,6.2186,6.1358,6.2082,6.2358,6.1979,6.1944,6.2016,6.2087,6.0705,6.0324,6.1051,5.9696,5.8572,5.7681,5.9284,5.8647,5.621,5.8983,5.9369,5.7825,5.793,5.8386,5.8948,5.786,5.7825,5.8421,5.8149,5.8219,5.8658,5.8788,5.943,6.006,0.0,0.0,0.0,0.0,0.0,0.0,0.0,0.0,0.0,0.0,0.0,0.0,0.0,0.0,0.0,0.0,0.0,0.0,0.0,0.0,0.0,0.0,3.082,3.0814,3.0814,3.0811,3.152,3.3007,3.1914,3.1951,3.299,3.1899,3.1142,3.0706,3.0591,3.0509,3.0434,2.9521,2.9499,3.0052,2.9156,0.0,0.0,0.0,0.0,0.0,0.0,0.0,0.0,2.8975,2.8998,2.9044,2.9044,0.0,0.0,0.0,0.0,0.0,2.8975,2.9085,2.9549,3.1017,3.021,2.9368,3.0711,0.0,0.0,0.0,0.0,0.0,3.1767,3.2861,0.0,0.0,0.0,0.0,4.7286,4.9079,5.0838,5.3977,5.5046,0.0,5.8288,6.0185,6.122,6.0978,6.1185,6.1254,6.1151,6.1116,6.1153,6.1259,5.9873,5.9455,5.9976,5.8955,5.7751,5.6309,5.8008,5.7649,5.5578,5.7825,5.8457,5.7719,5.642,0.0,5.7684,5.628,5.6455,5.7736,5.78,5.7954,5.8142,5.8606,5.9365,6.0068,0.0,0.0,0.0,0.0,0.0,0.0,0.0,0.0,0.0,0.0,0.0,0.0,0.0,0.0,0.0,0.0,0.0,0.0,0.0,0.0,0.0,3.0806,3.0801,3.0796,3.0796,3.0813,3.0934,3.1194,3.3144,3.3119,3.1247,3.3202,3.2877,3.0711,3.0691,3.062,3.0482,3.0337,3.0198,3.0095,2.9923,0.0,0.0,0.0,0.0,0.0,0.0,0.0,0.0,2.8975,2.9134,2.927,2.927,0.0,0.0,0.0,0.0,0.0,2.8975,2.9512,3.0246,3.1164,3.021,2.9368,3.0711,0.0,0.0,0.0,0.0,0.0,0.0,3.7824,3.9025,0.0,0.0,4.4251,0.0,0.0,5.3632,5.3563,0.0,5.9185,5.6391,5.9254,6.0771,5.9461,6.0565,6.1013,6.0392,6.0358,6.0151,5.97,5.8932,5.8333,5.7939,5.7758,5.7009,5.5659,5.7263,5.7122,5.5578,5.7228,5.793,5.779,0.0,5.7579,5.7719,5.6806,5.674,5.7152,5.6538,5.6794,5.7576,5.7227,5.8071,5.9221,0.0,0.0,0.0,0.0,0.0,0.0,0.0,0.0,0.0,0.0,0.0,0.0,0.0,0.0,0.0,0.0,0.0,0.0,0.0,0.0,3.0886,3.1255,3.0873,3.0675,3.0806,3.1261,3.1737,3.2196,3.3406,3.338,3.2226,3.2461,3.1948,3.076,3.0728,3.0681,3.062,3.0527,3.0413,3.029,0.0,0.0,0.0,0.0,0.0,0.0,0.0,0.0,0.0,0.0,2.9394,2.9456,2.9456,0.0,0.0,0.0,0.0,0.0,2.9185,2.9437,3.0189,3.2206,3.1494,3.1029,3.3853,0.0,0.0,0.0,0.0,0.0,0.0,0.0,3.908,4.1094,0.0,4.8907,5.1356,5.2252,5.3011,0.0,0.0,5.6046,5.5115,5.7357,5.8737,5.8426,5.9081,5.9495,5.9564,5.9253,5.9009,5.8828,5.7875,5.7199,5.7,5.6615,5.5904,5.4875,5.642,5.6139,5.4314,5.628,5.6947,5.6526,0.0,5.5788,5.649,5.5437,5.5574,5.6489,5.638,5.6671,5.7191,5.7529,5.8103,5.8681,0.0,0.0,0.0,0.0,0.0,0.0,0.0,0.0,0.0,0.0,0.0,0.0,0.0,0.0,0.0,0.0,0.0,0.0,0.0,3.0591,3.0823,3.14,3.082,3.0776,3.132,3.181,3.2577,3.3652,3.3895,3.3874,3.366,3.1718,3.0781,3.0818,3.0755,3.0728,3.0706,3.0605,3.0527,3.052,0.0,0.0,0.0,0.0,0.0,0.0,0.0,0.0,0.0,0.0,0.0,0.0,0.0,0.0,0.0,2.9662,2.9626,2.9551,2.9336,2.9423,3.0176,3.261,3.2045,3.2118,3.6964,0.0,0.0,0.0,0.0,0.0,0.0,3.7184,0.0,4.5072,4.9158,5.2011,5.2873,5.2528,5.2873,5.4805,5.4011,5.3736,5.4943,5.6115,5.7047,5.7598,5.7633,5.7874,5.8528,5.8144,5.7894,5.7945,5.6955,5.6344,5.635,5.5788,5.5191,5.4595,5.5788,5.5437,5.3787,5.5543,5.6034,5.5437,5.4244,5.4442,5.5519,5.4514,5.4894,5.6126,5.6617,5.6829,5.6953,5.7861,5.813,5.813,0.0,0.0,0.0,0.0,0.0,0.0,0.0,0.0,0.0,0.0,0.0,0.0,0.0,0.0,0.0,0.0,0.0,0.0,0.0,3.0509,3.053,3.0598,3.052,3.1217,3.2803,3.2252,3.2725,3.4428,3.5281,3.5329,3.4537,3.1983,3.0781,3.0818,3.0779,3.0762,3.0711,3.0701,3.0664,3.0598,3.0576,0.0,0.0,0.0,0.0,0.0,0.0,0.0,0.0,0.0,0.0,0.0,0.0,0.0,2.9888,2.9883,2.9767,2.9551,2.9336,2.9869,3.0598,3.1385,3.0356,0.0,3.8102,3.532,0.0,3.9911,0.0,0.0,0.0,4.0909,4.2896,4.6991,4.9044,5.139,5.4874,0.0,5.5632,5.6529,5.6529,5.6495,5.6633,5.6736,5.6805,5.6874,5.6874,5.694,5.7105,5.7136,5.6918,5.6563,5.6458,5.6134,5.5578,5.5543,5.5472,5.5437,5.5543,5.5507,5.5367,5.5507,5.5578,5.5507,5.5402,5.5543,5.5844,5.5794,5.613,5.6724,5.6776,5.6933,5.7188,5.7261,5.7297,5.7297,0.0,0.0,0.0,0.0,0.0,0.0,0.0,0.0,0.0,0.0,0.0,0.0,0.0,0.0,0.0,0.0,0.0,0.0,0.0,2.9901,3.0017,3.0915,3.0404,3.0672,3.1857,3.2426,3.3526,3.5266,3.5118,3.4601,3.3718,3.1694,3.0742,3.0752,3.0776,3.078,3.0765,3.071,3.0681,3.0675,3.0626,3.0583,0.0,0.0,0.0,0.0,0.0,0.0,0.0,0.0,3.0201,3.0215,3.0227,3.019,3.0171,3.0147,3.0075,2.9899,2.957,3.0093,3.1054,3.2514,3.1185,0.0,0.0,3.7133,3.596,4.1518,4.0139,0.0,0.0,0.0,4.5874,4.8067,5.128,5.3977,5.5426,5.5598,5.5736,5.6046,5.5667,5.5357,5.5357,5.5357,5.5563,5.6046,5.621,5.6482,5.6997,5.6773,5.6578,5.6388,5.6054,5.5729,5.5507,5.5507,5.5507,5.5507,5.5507,5.5507,5.5507,5.5507,5.5625,5.5764,5.5764,5.5936,5.6217,5.6402,5.6564,5.6812,5.6984,5.7087,5.7188,5.7188,5.7188,5.7188,0.0,0.0,0.0,0.0,0.0,0.0,0.0,0.0,0.0,0.0,0.0,0.0,0.0,0.0,0.0,0.0,0.0,0.0,3.0215,2.9267,2.9181,3.0354,2.9877,2.9953,3.0755,3.2039,3.3382,3.4807,3.4301,3.3619,3.2718,3.1319,3.0646,3.0625,3.0739,3.0771,3.078,3.0739,3.0728,3.0713,3.0676,3.0647,0.0,0.0,0.0,0.0,0.0,0.0,0.0,0.0,3.0488,3.0472,3.0472,3.0392,3.0304,3.0279,3.0202,3.0022,2.9642,2.9907,3.0777,0.0,0.0,0.0,3.9156,3.8611,3.8102,4.3483,4.2405,0.0,0.0,0.0,0.0,0.0,5.1933,5.4701,5.5184,5.5253,5.5253,5.5253,5.4805,5.4494,5.4592,5.4592,5.4862,5.5346,5.5542,5.5876,5.6397,5.616,5.6003,5.6099,5.5729,5.5507,5.5507,5.5507,5.5566,5.5625,5.5625,5.5566,5.5507,5.5625,5.5706,5.5901,5.6049,5.6273,5.6546,5.676,5.6865,5.6933,5.6848,5.6971,5.7188,5.7188,5.7188,5.7188,0.0,0.0,0.0,0.0,0.0,0.0,0.0,0.0,2.874,3.049,2.9899,0.0,0.0,0.0,0.0,0.0,0.0,0.0,3.0161,2.8618,2.7992,2.8662,2.8803,2.9198,2.9861,3.0983,3.2004,3.2902,3.3004,3.2619,3.1768,3.0907,3.0518,3.0506,3.0658,3.0706,3.0703,3.081,3.0816,3.0817,3.0781,3.0774,3.0713,0.0,0.0,0.0,0.0,0.0,0.0,0.0,3.0605,3.0591,3.0605,3.0527,3.0392,3.0263,3.0084,2.9813,2.9513,2.9353,0.0,0.0,0.0,0.0,4.0202,3.9558,3.9341,4.602,0.0,4.602,4.5885,0.0,0.0,4.7945,5.0449,5.277,5.4287,5.4494,5.4494,5.4494,5.4494,5.4592,5.478,5.478,5.4842,5.4992,5.4992,5.5053,5.5199,5.5199,5.5259,5.5507,5.5507,5.5507,5.5507,5.5507,5.5648,5.5901,5.5901,5.5729,5.5507,5.5764,5.5901,5.5901,5.6273,5.6546,5.6776,5.6776,5.6933,5.708,5.6283,5.6464,5.7188,5.7188,5.7188,5.7188,0.0,0.0,0.0,0.0,0.0,0.0,0.0,0.0,2.9954,3.0496,3.0324,0.0,0.0,0.0,0.0,0.0,0.0,0.0,2.9946,2.8455,2.7812,2.8399,2.8504,2.8137,2.7275,2.7714,2.961,3.3053,3.2223,3.1687,3.1444,3.0548,3.0126,3.0201,3.1671,3.1662,3.0646,3.1943,3.1824,3.0718,3.0776,3.0781,3.0781,0.0,0.0,0.0,0.0,0.0,0.0,0.0,0.0,0.0,3.0686,3.0598,3.0685,3.1862,3.1175,3.0228,3.1202,3.0844,0.0,3.2022,0.0,0.0,0.0,3.9115,0.0,0.0,4.6984,4.6118,4.5009,0.0,0.0,4.7415,5.053,5.3307,5.3667,5.3887,5.4217,5.4648,5.4807,5.4869,5.493,5.493,5.493,5.4992,5.5079,5.5139,5.5199,5.5354,5.5448,5.5507,5.5507,5.5227,5.4665,5.4838,5.4726,5.4272,5.4437,5.515,5.6106,5.5648,5.5847,5.651,5.6044,5.6001,5.6219,5.5713,5.5496,5.5558,5.5341,5.5377,5.5595,5.5595,5.5595,5.5595,0.0,0.0,0.0,0.0,0.0,0.0,0.0,0.0,2.9679,3.0335,3.0111,2.9979,0.0,0.0,0.0,0.0,0.0,0.0,0.0,2.7979,2.7264,2.8203,2.8014,2.7612,2.7016,2.7138,2.8374,3.0765,3.0376,3.0198,3.0083,2.9899,2.9839,2.9939,3.1213,3.1245,3.0463,3.1599,3.1499,3.0574,3.0628,3.0646,3.0646,0.0,0.0,0.0,0.0,0.0,0.0,0.0,0.0,0.0,0.0,0.0,3.1593,3.178,3.1402,3.113,3.1845,0.0,0.0,3.4385,3.5078,3.5824,3.8415,0.0,0.0,0.0,0.0,4.7948,4.7603,4.9491,0.0,4.8799,5.1176,5.3211,5.3125,5.3271,5.3505,5.3931,5.4305,5.44,5.4147,5.4486,5.466,5.472,5.4559,5.4548,5.4863,5.4677,5.4595,5.4595,5.471,5.4521,5.4028,5.4272,5.4278,5.3886,5.3758,5.445,5.5773,5.5167,5.5219,5.5805,5.5476,5.541,5.5486,5.4725,5.4617,5.487,5.4544,5.4617,5.4907,5.4907,5.4689,5.4436,0.0,0.0,2.9174,2.8208,0.0,0.0,0.0,0.0,2.8549,3.0098,2.9526,2.9344,0.0,0.0,0.0,0.0,0.0,0.0,0.0,2.7403,2.6577,2.792,2.7436,2.752,2.8437,2.8327,2.7951,2.7182,2.8088,2.8454,2.8278,2.9083,2.9514,2.9642,2.9943,3.0098,3.0163,3.0417,3.0475,3.0332,3.0337,3.0327,3.0336,3.0366,0.0,0.0,0.0,0.0,0.0,0.0,0.0,0.0,3.0732,3.1741,3.2607,3.0791,3.1194,3.2223,3.1957,0.0,0.0,3.6999,3.7147,0.0,4.1101,4.4401,4.8066,5.3038,0.0,5.0679,5.2171,5.0841,5.0015,5.1233,5.2103,5.2625,5.2625,5.2555,5.2555,5.259,5.3217,5.338,5.2787,5.3416,5.3964,5.4103,5.3401,5.3331,5.4173,5.3471,5.3085,5.3141,5.3329,5.3422,5.3335,5.3602,5.3826,5.3972,5.3253,5.3471,5.4472,5.4229,5.4129,5.4129,5.4448,5.4581,5.4508,5.3711,5.3784,5.4399,5.3675,5.382,5.4472,5.4472,5.4001,5.3385,0.0,0.0,2.9201,2.8964,0.0,0.0,0.0,0.0,0.0,3.015,0.0,0.0,0.0,0.0,0.0,0.0,0.0,0.0,0.0,2.7382,2.6805,2.7063,2.724,2.7782,2.8789,2.7979,2.7382,2.7022,2.7774,2.8108,2.8086,2.8825,2.9175,2.9312,3.0787,3.0734,2.9681,3.1121,3.0978,2.9779,2.9837,2.9855,2.9868,3.0047,3.0094,0.0,0.0,0.0,0.0,0.0,0.0,0.0,3.0736,3.094,3.1357,3.2027,3.2064,3.2139,3.3259,3.2773,0.0,0.0,3.7041,4.0282,4.5917,4.707,4.7576,4.9903,5.0411,5.0654,5.1558,5.1836,5.1685,5.078,5.1359,5.1939,5.179,5.1472,5.1444,5.1961,5.2249,5.2096,5.138,5.2011,5.2467,5.2488,5.1821,5.1997,5.3331,5.2699,5.2388,5.2552,5.2661,5.2165,5.1094,5.1357,5.1215,5.07,5.0741,5.0914,5.114,5.171,5.1953,5.1953,5.2045,5.2082,5.2009,5.1212,5.0959,5.1104,5.0923,5.0959,5.1104,5.1104,5.0995,5.085,0.0,0.0,0.0,0.0,0.0,0.0,0.0,0.0,0.0,0.0,0.0,0.0,0.0,0.0,0.0,0.0,0.0,0.0,0.0,0.0,2.6763,2.686,2.7006,2.7403,2.8032,2.7353,2.6784,2.6265,2.7253,2.775,2.7772,2.8535,2.8984,2.9075,3.008,3.0076,2.9414,3.0355,3.0148,2.9228,2.927,2.9157,2.9061,2.9307,2.9433,2.9485,2.997,0.0,0.0,0.0,0.0,0.0,0.0,0.0,3.1848,3.1532,3.1656,3.2047,3.2669,0.0,0.0,3.6079,0.0,4.2717,4.5509,4.672,4.7491,4.8429,4.9632,5.0544,5.0579,5.0949,5.0899,4.9746,4.994,5.0185,5.0041,4.9888,4.9872,5.0204,5.0608,5.0592,4.982,5.0452,5.0908,5.0908,5.0277,5.0488,5.1652,5.1087,5.0767,5.0921,5.0667,5.0388,5.0068,4.9944,4.9686,4.9334,4.9104,4.8583,4.8083,4.9892,5.0705,5.0705,5.0705,5.0705,5.0669,5.0271,5.009,5.009,5.009,5.009,5.009,5.009,4.9836,4.9474,0.0,0.0,0.0,0.0,0.0,0.0,0.0,0.0,0.0,0.0,0.0,0.0,0.0,0.0,0.0,0.0,0.0,0.0,0.0,0.0,0.0,2.6935,2.7028,2.7233,2.7544,2.727,2.6837,2.6151,2.7222,2.79,2.8155,2.8785,2.9186,2.9355,2.9355,2.9265,2.9206,2.9126,2.892,2.8675,2.8627,2.8469,2.8283,2.8567,2.8745,2.8883,2.9476,2.9796,2.9946,3.0309,0.0,0.0,0.0,0.0,3.2391,3.0546,3.0911,3.1842,3.1381,0.0,3.4624,3.8082,4.1094,0.0,4.3212,4.4898,4.6618,4.7261,4.8936,5.0025,4.9485,4.9451,4.9293,4.8696,4.8556,4.8521,4.8521,4.8451,4.838,4.8345,4.8907,4.8977,4.8205,4.8889,4.9327,4.917,4.8685,4.8728,4.9508,4.8994,4.8663,4.8663,4.8253,4.8272,4.8683,4.8388,4.815,4.8063,4.7421,4.6521,4.5561,4.8011,4.927,4.9567,4.9334,4.9334,4.9523,4.9334,4.9334,4.9567,4.9567,4.9611,4.9691,4.9691,4.9184,4.8424,0.0,0.0,0.0,0.0,0.0,0.0,0.0,0.0,0.0,0.0,3.0185,3.0185,0.0,3.0,2.9839,2.9681,2.9416,2.8931,2.8073,0.0,0.0,2.7148,2.7771,2.85,2.9427,2.9101,2.8907,2.8795,2.878,2.9465,0.0,0.0,0.0,3.073,3.073,2.9958,2.8651,2.8386,2.8246,2.8192,2.7918,2.7946,2.8139,2.8094,2.8467,0.0,0.0,0.0,2.9883,3.0202,3.0458,0.0,0.0,0.0,3.0888,3.0188,3.0822,3.1528,0.0,0.0,3.3935,0.0,3.7796,3.8997,0.0,0.0,4.298,0.0,4.7141,4.875,4.8714,4.8731,4.8696,4.8626,4.8556,4.8521,4.8521,4.7959,4.7538,4.7538,4.7643,4.7397,4.6625,4.7456,4.778,4.706,4.6529,4.6514,4.7287,4.6585,4.6077,4.5939,4.623,4.5864,4.4682,4.5106,4.5158,4.4759,4.4742,4.468,4.4485,4.4894,4.5918,4.7267,4.6176,4.6294,4.7222,4.6141,4.6329,4.7339,4.7339,4.7607,4.8025,4.8025,4.7518,4.6902,0.0,0.0,0.0,0.0,0.0,0.0,0.0,0.0,0.0,0.0,0.0,2.9905,3.0,2.9732,2.9514,2.9436,2.9249,2.8743,2.7882,2.7413,2.7343,2.7643,2.7475,2.7811,2.8839,2.8203,2.8106,2.8589,2.8375,0.0,0.0,3.2419,3.1872,0.0,0.0,3.0848,2.838,2.9104,2.8734,2.7577,2.7491,2.7487,2.7607,0.0,0.0,0.0,0.0,0.0,0.0,0.0,3.0328,3.0582,3.0611,0.0,0.0,0.0,2.9888,0.0,3.0468,3.1173,3.2634,0.0,3.6454,3.6695,4.034,0.0,4.1013,4.2955,4.4387,4.5615,4.6725,4.7455,4.7783,4.7327,4.7257,4.7081,4.666,4.6309,4.5923,4.5466,4.5431,4.5339,4.5164,4.5541,4.5751,4.5498,4.5364,4.5423,4.5738,4.5329,4.5062,4.4938,4.4467,4.4156,4.4036,4.3837,4.3669,4.3536,4.3311,4.3173,4.3173,4.331,4.4155,4.5391,4.4845,4.5174,4.595,4.4986,4.5457,4.6707,4.6244,4.6443,4.69,4.6773,4.6421,4.6025,0.0,0.0,0.0,0.0,0.0,0.0,0.0,0.0,0.0,0.0,0.0,2.9681,2.9822,0.0,0.0,0.0,2.9134,2.8645,2.7838,2.772,2.7787,2.7948,2.7294,2.7352,2.8326,2.7751,2.7751,2.8326,0.0,0.0,3.325,3.3488,3.2911,0.0,3.2879,3.1881,0.0,0.0,0.0,0.0,2.7669,2.7526,0.0,0.0,0.0,0.0,0.0,0.0,0.0,0.0,0.0,0.0,0.0,3.0637,0.0,0.0,0.0,0.0,0.0,0.0,3.0696,3.4494,3.438,3.4192,0.0,0.0,3.8622,0.0,4.1596,4.2689,4.4404,4.561,4.621,4.5698,4.5642,4.5431,4.4869,4.4799,4.4636,4.405,4.4014,4.4107,4.4334,4.4423,4.444,4.44,4.4581,4.4592,4.4217,4.4049,4.3878,4.366,4.2837,4.2658,4.3115,4.2601,4.2412,4.2546,4.2275,4.2137,4.2091,4.2299,4.2832,4.3607,4.3638,4.4085,4.4847,4.419,4.4753,4.6046,4.5658,4.5929,4.6542,4.6203,4.5917,4.5587,0.0,0.0,0.0,0.0,0.0,0.0,0.0,0.0,0.0,0.0,0.0,2.9589,2.9607,2.9416,2.9312,2.9312,2.9134,2.8622,2.7771,2.7698,2.7765,2.7885,2.7806,0.0,2.8942,2.9079,2.92,2.9237,2.94,0.0,3.2131,3.3449,3.3891,3.3552,3.3473,3.3075,3.2449,0.0,0.0,0.0,0.0,0.0,0.0,0.0,0.0,0.0,0.0,0.0,0.0,0.0,0.0,0.0,0.0,0.0,0.0,0.0,0.0,0.0,0.0,2.783,0.0,2.9955,3.0196,0.0,0.0,0.0,3.499,3.7184,3.9125,4.0793,4.2037,4.2978,4.3597,4.398,4.4027,4.3992,4.3957,4.3957,4.405,4.4279,4.4279,4.4334,4.4563,4.4778,4.4581,4.3863,4.4032,4.3592,4.2399,4.2323,4.1945,4.1,4.1471,4.1335,4.0523,4.0734,4.0892,4.1034,4.138,4.1525,4.1525,4.155,4.1595,4.163,4.1698,4.2457,4.3589,4.3012,4.3561,4.4774,4.5506,4.6376,4.7196,4.6707,4.6147,4.5615,0.0,0.0,0.0,0.0,0.0,0.0,0.0,0.0,0.0,0.0,0.0,0.0,0.0,2.9185,2.9007,2.8962,2.8929,2.8748,2.8432,2.8348,2.8372,2.8406,2.8336,2.8458,2.8749,2.8566,2.8755,2.9312,2.8989,2.9926,3.2023,3.2381,3.2957,3.3799,3.5654,3.4578,3.1408,3.2506,0.0,0.0,0.0,0.0,0.0,0.0,0.0,0.0,0.0,0.0,0.0,0.0,0.0,0.0,0.0,0.0,0.0,0.0,0.0,0.0,0.0,0.0,0.0,3.0594,2.9588,2.8757,3.1641,3.2536,3.3071,3.4342,3.6693,3.8478,3.8432,4.0941,4.3103,4.351,4.3554,4.32,4.2172,4.203,4.2072,4.2234,4.227,4.2317,4.2521,4.2641,4.2282,4.1375,4.0486,4.0197,4.0721,3.9317,3.9083,4.0418,4.0216,4.0212,4.0534,4.0246,4.0065,4.0112,4.0577,4.0797,4.0832,4.1591,4.176,4.149,4.1499,4.1903,4.2535,4.2339,4.295,4.4082,4.4138,4.4768,4.5564,4.5244,4.4903,4.4599,0.0,0.0,0.0,0.0,0.0,2.8975,2.8975,2.8975,2.9021,2.9163,0.0,0.0,0.0,0.0,2.8858,2.881,2.8712,2.8651,2.8761,2.8737,2.8712,2.8687,2.8612,2.8587,2.8587,2.8433,2.8635,2.9312,2.8952,2.9664,3.1317,3.1656,3.208,3.2695,3.5417,3.4866,0.0,0.0,0.0,2.9417,0.0,0.0,2.9417,0.0,0.0,0.0,0.0,0.0,0.0,0.0,0.0,0.0,0.0,0.0,0.0,0.0,0.0,0.0,2.8904,0.0,0.0,0.0,0.0,2.7396,2.977,0.0,3.1732,3.2435,3.5101,3.725,3.719,3.9476,4.1633,4.2169,4.2246,4.1772,4.0583,4.0441,4.0441,4.04,4.04,4.0522,4.0876,4.0876,4.0623,3.9971,3.9008,3.879,3.9593,3.8193,3.8119,3.9783,3.9456,3.9494,3.9971,3.979,3.956,3.9319,4.0053,4.0461,4.0665,4.1736,4.2133,4.1966,4.2043,4.1925,4.1678,4.2064,4.2683,4.3454,4.3593,4.412,4.4845,4.4485,4.4349,4.4217,0.0,0.0,2.9012,2.8975,2.8975,2.8975,2.8952,2.8905,2.8881,2.8881,0.0,0.0,0.0,0.0,0.0,2.8749,2.8489,2.8412,2.8687,2.8712,2.8687,2.8612,2.8587,2.8587,2.8587,2.8881,2.9097,2.9312,2.9475,2.9699,2.991,0.0,3.1352,3.0442,3.257,3.3831,3.4368,0.0,3.4021,3.3194,0.0,3.268,3.2263,0.0,0.0,0.0,3.5707,3.5953,0.0,3.7187,0.0,0.0,0.0,0.0,0.0,0.0,0.0,0.0,0.0,0.0,0.0,0.0,0.0,0.0,2.7006,0.0,3.0837,3.1564,3.4428,3.7158,3.8358,3.8611,3.8933,3.9715,3.9857,3.974,3.9341,3.9258,3.9175,3.9006,3.8998,3.9217,3.986,3.9863,3.9863,3.9828,3.9792,3.9597,3.9153,3.9147,3.9098,3.8912,3.9227,3.9123,3.8594,3.9284,3.9284,3.8594,3.9809,4.063,4.1109,4.1859,4.2458,4.288,4.3166,4.2379,4.1034,4.223,4.2693,4.2808,4.3997,4.4749,4.512,4.4664,4.4534,4.4491,0.0,2.8735,2.8905,2.8615,2.8565,2.8489,2.8228,2.8174,2.8174,0.0,0.0,0.0,0.0,0.0,2.7851,2.7518,2.7906,2.8281,2.8612,2.8637,2.8612,2.8587,2.8587,2.8587,2.8587,2.8881,2.9044,2.9075,2.9249,2.9336,0.0,0.0,0.0,0.0,3.0909,3.1512,3.1185,3.3741,0.0,2.942,3.3932,3.3424,0.0,0.0,0.0,0.0,0.0,3.8608,3.7922,0.0,3.6729,3.3821,0.0,0.0,0.0,0.0,0.0,0.0,2.926,0.0,0.0,0.0,0.0,0.0,2.6817,2.75,2.8481,2.9473,3.2021,3.4469,3.5971,3.7113,3.8043,3.8581,3.9157,3.9302,3.8618,3.8183,3.8322,3.9191,3.873,3.8651,3.9482,3.9227,3.879,0.0,3.7184,3.6861,3.7501,3.8063,3.8339,3.8203,3.8764,3.8945,3.8594,3.8249,3.8249,3.8594,3.925,3.9933,4.0623,4.206,4.2418,4.1924,4.2347,4.2058,4.1426,4.2608,4.2995,4.2889,4.3435,4.3888,4.4328,4.4169,4.3782,4.325,2.8334,2.8412,2.8464,2.8219,2.8166,2.8147,2.7926,2.7869,2.7763,0.0,0.0,0.0,0.0,0.0,0.0,2.6854,2.7528,2.8065,2.837,2.8536,2.8562,2.8396,2.8396,2.8281,2.8147,2.8272,2.8478,2.8652,2.8735,0.0,0.0,0.0,0.0,0.0,2.9326,2.9402,0.0,0.0,0.0,0.0,3.4729,0.0,0.0,3.8235,3.9014,0.0,0.0,0.0,3.9758,4.1235,3.9028,0.0,0.0,0.0,0.0,0.0,0.0,0.0,0.0,0.0,0.0,0.0,0.0,0.0,2.7378,2.8315,2.944,3.0437,3.3029,3.5261,3.5522,3.6276,3.6958,3.7225,3.7693,3.7954,3.7897,3.7685,3.7647,3.8071,3.7839,3.7842,3.8329,3.8366,3.8078,3.7431,3.672,3.6542,3.6985,3.7321,3.7486,3.744,3.7965,3.807,3.7629,3.7525,3.7525,3.7629,3.859,3.9328,3.9997,4.1594,4.2098,4.1839,4.2056,4.2175,4.2169,4.2844,4.3048,4.2918,4.3393,4.365,4.3834,4.3944,4.3467,4.2662,0.0,2.7869,2.7897,2.784,2.784,2.7811,2.7783,2.766,2.7391,0.0,2.6492,0.0,0.0,0.0,0.0,0.0,2.7151,2.7725,2.8002,2.8317,2.8344,2.8029,2.8002,2.7862,2.7512,2.7512,2.7712,2.8121,0.0,0.0,0.0,0.0,0.0,0.0,2.8077,2.7825,2.6788,0.0,0.0,3.4196,3.5462,3.7253,0.0,0.0,4.1437,4.0597,4.3885,4.3147,4.1001,4.3922,4.1874,0.0,0.0,0.0,0.0,0.0,3.1479,0.0,0.0,0.0,0.0,0.0,2.8548,0.0,2.8155,2.9781,3.1384,3.2218,3.4961,3.689,3.5818,3.5599,3.5599,3.5599,3.5599,3.5991,3.7148,3.747,3.7212,3.6371,3.6716,3.7058,3.7135,3.7506,3.7578,3.7285,3.7542,3.7542,3.721,3.6821,3.6655,3.6816,3.7067,3.693,3.6318,3.7008,3.7042,3.6456,3.7801,3.8747,3.9385,4.0753,4.1603,4.205,4.2133,4.2378,4.2806,4.2806,4.2882,4.3032,4.3697,4.3726,4.3419,4.3749,4.325,4.2298,2.7547,2.7725,2.7811,2.7487,2.7426,2.7303,2.6987,2.6657,2.6353,2.6219,2.5682,0.0,0.0,0.0,0.0,0.0,2.648,2.7334,2.7601,2.7631,2.7572,2.7512,2.7547,2.7482,2.7391,2.7391,2.7452,2.7572,0.0,0.0,0.0,0.0,0.0,0.0,2.7946,2.7974,2.752,0.0,0.0,3.3103,3.6073,0.0,3.7561,4.2019,4.233,4.0896,4.4383,4.4199,4.2273,4.2197,4.1494,3.9947,0.0,0.0,0.0,3.1412,0.0,0.0,0.0,0.0,0.0,0.0,0.0,0.0,2.7111,2.6702,2.6913,2.8349,2.9528,3.0903,3.2766,3.3085,3.3085,3.3085,3.3085,3.3858,3.5986,3.7136,3.7324,3.6164,3.672,3.7396,3.8065,3.765,3.7432,3.765,3.7132,3.6978,3.7321,3.6939,3.6741,3.686,3.6921,3.6754,3.6284,3.6456,3.6766,3.7249,3.756,3.8363,3.9673,4.0307,4.0796,4.1163,4.149,4.1888,4.2338,4.2338,4.2732,4.3428,4.3566,4.3162,4.254,4.2891,4.1964,4.0523,2.7083,2.7178,2.7241,2.7019,2.6856,2.6623,2.6419,2.6068,2.5684,2.5288,2.4307,0.0,0.0,0.0,0.0,0.0,0.0,0.0,0.0,2.672,2.6687,2.6556,2.6556,2.6455,2.6215,2.618,2.6284,2.6387,0.0,0.0,0.0,0.0,0.0,0.0,0.0,0.0,0.0,0.0,3.0111,3.2943,3.6189,0.0,3.9429,4.3447,4.4234,4.3411,4.4987,4.4806,4.3587,4.1841,4.1093,0.0,3.8362,3.6374,3.4507,0.0,3.1837,3.1339,0.0,0.0,0.0,2.9953,0.0,0.0,0.0,2.7298,2.7435,2.8772,2.9514,3.0195,3.1224,3.1371,3.1236,3.0833,3.1393,3.2025,3.2464,3.5036,3.6841,3.6604,3.7184,3.7578,3.7542,3.7433,3.7432,3.7614,3.6701,3.6291,3.6786,3.6138,3.5752,3.5873,3.6088,3.6165,3.5941,3.6156,3.649,3.6904,3.7284,3.787,3.8629,3.9624,3.9926,3.9813,4.0388,4.0885,4.1279,4.1136,4.1681,4.2701,4.313,4.3002,4.2538,4.2416,4.1577,4.0421,2.659,2.6521,2.6487,2.6487,2.621,2.5964,2.5964,2.5635,2.511,2.4365,0.0,0.0,0.0,0.0,0.0,0.0,0.0,0.0,0.0,0.0,2.6188,2.557,2.5533,2.5341,2.4871,2.491,2.5035,2.5163,0.0,0.0,0.0,0.0,0.0,0.0,0.0,0.0,0.0,0.0,0.0,3.3928,0.0,3.9324,4.1402,4.4706,4.5696,4.5333,4.5166,4.5042,4.4569,4.1857,4.0807,4.0603,4.0463,3.7792,0.0,0.0,0.0,0.0,0.0,0.0,0.0,0.0,0.0,2.8529,0.0,0.0,0.0,2.9481,0.0,0.0,0.0,0.0,0.0,2.8852,0.0,0.0,0.0,3.258,0.0,3.5722,3.657,3.6823,3.6063,3.6461,3.6891,3.7135,3.6088,3.5599,3.5925,3.5203,3.4864,3.4958,3.5283,3.5498,3.5633,3.5985,3.6156,3.6156,3.6896,3.7353,3.7525,3.8732,3.9008,3.8629,3.9124,3.9593,4.0009,3.9711,4.0221,4.1324,4.2365,4.2565,4.2262,4.1863,4.1154,4.0375,2.6175,2.5888,2.5668,2.5668,2.5598,2.5561,2.5561,2.5253,2.4689,0.0,0.0,0.0,0.0,0.0,0.0,0.0,0.0,0.0,2.6206,0.0,0.0,2.5084,2.502,2.4752,2.4318,2.4672,2.4712,2.4358,0.0,0.0,0.0,0.0,0.0,0.0,2.7996,0.0,0.0,0.0,3.448,0.0,3.984,4.0298,0.0,4.4429,4.5074,4.3578,4.4128,4.4729,4.476,0.0,4.0896,4.0987,0.0,3.6839,3.5926,3.3762,0.0,0.0,0.0,0.0,0.0,0.0,3.0013,0.0,0.0,0.0,2.7396,2.6534,0.0,0.0,0.0,0.0,0.0,0.0,0.0,0.0,2.942,3.0895,3.1623,3.0758,3.2596,3.3774,3.343,3.3949,3.4731,3.5761,3.5237,3.4911,3.4958,3.4864,3.5005,3.5464,3.5098,3.5098,3.5588,3.5677,3.5677,3.5677,3.6217,3.6801,3.7491,3.7663,3.8043,3.8594,3.8184,3.8277,3.8693,3.8422,3.8608,3.9312,4.0842,4.0997,4.0459,4.068,3.9928,3.8817,2.5187,2.5375,2.5486,2.5486,2.5329,2.5098,2.491,2.4647,2.4212,0.0,0.0,0.0,0.0,0.0,0.0,0.0,0.0,2.7182,0.0,0.0,0.0,2.4957,2.3851,2.3172,2.2862,2.3084,2.301,2.2759,2.32,0.0,0.0,0.0,0.0,0.0,2.7127,0.0,3.1418,0.0,3.5077,0.0,0.0,0.0,0.0,4.4533,4.5452,4.4553,4.3859,4.4397,4.4902,0.0,4.1322,0.0,0.0,0.0,0.0,3.6074,0.0,0.0,0.0,0.0,0.0,0.0,0.0,0.0,2.9916,0.0,2.7485,0.0,0.0,0.0,0.0,0.0,0.0,0.0,2.714,0.0,0.0,0.0,3.0153,3.1869,0.0,0.0,3.3167,3.2762,3.2889,3.3829,3.3557,3.3313,3.3172,3.3664,3.4018,3.4267,3.4366,3.4513,3.4754,3.5005,3.5144,3.5144,3.5328,3.5588,3.5971,3.6409,3.6544,3.6397,3.6611,3.6956,3.7216,3.6581,3.6977,3.8007,3.7791,3.8329,3.9176,3.9252,3.8658,3.7881,2.4137,2.4627,2.5176,2.5176,2.4863,2.4502,2.4142,2.4358,0.0,0.0,0.0,0.0,2.4487,2.3703,0.0,0.0,2.7229,2.7524,0.0,0.0,2.5745,0.0,0.0,0.0,0.0,2.1904,2.169,2.1253,2.1918,0.0,0.0,0.0,0.0,0.0,0.0,2.8627,3.1656,0.0,3.6119,3.9405,4.0354,4.1358,4.2502,4.4492,4.544,4.5549,4.4119,4.443,4.5047,4.1655,4.1508,0.0,4.0905,0.0,3.7668,0.0,0.0,0.0,3.4052,0.0,0.0,0.0,0.0,0.0,0.0,0.0,0.0,0.0,0.0,0.0,0.0,0.0,0.0,0.0,0.0,2.7608,0.0,2.7662,0.0,0.0,0.0,0.0,0.0,3.1686,3.1523,3.1978,3.2073,3.1978,3.1774,3.2755,3.3361,3.3487,3.3745,3.3949,3.4101,3.4415,3.461,3.461,3.4721,3.4769,3.4849,3.5283,3.5168,3.4706,3.5038,3.5317,3.5481,3.4546,3.4963,3.6084,3.4738,3.5161,3.6561,3.7399,3.7398,3.6856,2.3112,2.3662,0.0,0.0,2.4036,2.3696,2.3392,0.0,0.0,0.0,0.0,0.0,0.0,0.0,0.0,0.0,0.0,2.9094,2.9696,0.0,2.7876,0.0,0.0,2.2628,0.0,2.2002,2.1328,2.0143,2.1205,0.0,0.0,0.0,0.0,0.0,0.0,2.862,3.0684,3.5566,3.869,4.0643,4.4025,4.5579,4.5657,0.0,4.4533,4.5777,4.4886,0.0,0.0,4.1893,4.1274,0.0,0.0,0.0,0.0,0.0,0.0,0.0,0.0,0.0,0.0,3.353,0.0,0.0,0.0,0.0,2.901,0.0,0.0,0.0,0.0,0.0,0.0,0.0,0.0,0.0,0.0,0.0,0.0,0.0,0.0,0.0,0.0,3.0387,3.0723,0.0,3.1062,3.1437,3.1272,3.255,3.3539,3.405,3.3591,3.3539,3.4101,3.4101,3.4151,3.4151,3.461,3.4769,3.4769,3.4366,3.4268,3.4366,3.3411,3.313,3.3214,3.229,3.229,3.2895,3.2098,3.1622,3.1726,3.5023,3.6028,3.5608,2.3488,2.3579,0.0,0.0,0.0,0.0,0.0,2.3985,0.0,0.0,0.0,0.0,0.0,2.765,2.7468,0.0,0.0,2.9628,2.9721,2.8254,0.0,0.0,0.0,2.2988,0.0,2.1422,2.0517,1.8768,1.9554,0.0,0.0,0.0,0.0,0.0,0.0,2.747,0.0,0.0,0.0,0.0,0.0,4.4289,4.4404,0.0,4.5481,4.5914,4.5642,4.566,0.0,4.3181,4.2893,4.3374,4.2398,4.1168,4.0485,4.2415,4.0808,3.8474,0.0,0.0,3.9014,3.7034,0.0,0.0,0.0,0.0,0.0,0.0,0.0,0.0,0.0,0.0,0.0,0.0,0.0,0.0,0.0,0.0,0.0,0.0,0.0,0.0,0.0,0.0,0.0,0.0,2.867,0.0,2.8874,3.0943,3.2187,3.2384,3.2958,3.3414,3.3539,3.3245,3.314,3.314,3.2917,3.2864,3.2864,3.2756,3.2509,3.2314,3.2376,3.2124,3.1585,3.0807,3.069,3.0834,2.9379,2.887,2.9371,3.1914,3.2134,3.1177,2.3845,2.3679,0.0,0.0,0.0,0.0,0.0,0.0,0.0,0.0,2.796,0.0,2.9125,0.0,2.8322,0.0,2.8549,2.9251,3.0177,2.7714,0.0,2.7996,2.5468,0.0,0.0,0.0,2.0483,1.9264,1.8846,1.9172,0.0,0.0,0.0,0.0,0.0,2.6168,2.9651,3.4264,3.7852,0.0,0.0,4.3872,0.0,0.0,4.5511,4.5997,0.0,4.5941,4.5738,4.4548,4.4423,4.4658,4.3981,4.3061,4.2556,4.4135,4.2462,4.0329,4.1093,4.1178,0.0,3.9248,3.8222,0.0,3.5895,0.0,3.2492,0.0,0.0,0.0,0.0,0.0,0.0,0.0,0.0,0.0,0.0,2.837,0.0,0.0,0.0,0.0,0.0,0.0,0.0,0.0,0.0,0.0,0.0,2.9721,3.111,3.111,3.2343,3.2958,3.2958,3.2656,3.2492,3.2437,3.216,3.1879,3.1622,3.145,3.116,3.0778,3.1043,3.066,2.9915,2.9212,2.9031,2.892,2.7037,2.6375,2.6909,2.8955,2.883,2.7605,2.4169,2.3872,0.0,0.0,2.3572,0.0,0.0,0.0,2.8383,0.0,2.9968,2.9328,2.8433,2.7729,2.7358,2.7472,2.7041,2.8023,3.081,2.7305,0.0,0.0,2.5711,2.4268,2.4668,0.0,0.0,0.0,1.9183,0.0,0.0,0.0,0.0,0.0,2.3396,0.0,2.6653,3.313,3.6749,3.8403,4.1897,4.4336,4.5703,4.4162,4.4592,4.6017,4.6007,4.5953,4.5893,4.5893,4.5696,4.5514,4.5475,4.5361,4.5239,4.5277,4.4666,4.3937,4.3741,4.2563,4.1119,4.0004,3.9075,0.0,0.0,0.0,3.6018,0.0,0.0,0.0,0.0,0.0,0.0,0.0,0.0,0.0,0.0,0.0,0.0,0.0,0.0,0.0,0.0,0.0,0.0,0.0,0.0,0.0,0.0,2.8781,3.0228,3.0351,3.1497,3.2204,3.2327,3.221,3.2155,3.2135,3.2079,3.1679,3.1042,3.0629,3.0208,2.9813,2.9407,2.8848,2.8217,2.7565,2.7207,2.6889,2.5039,2.416,2.414,2.6139,2.5996,2.4909,2.5167,2.4642,2.4557,0.0,2.4779,2.4888,0.0,0.0,0.0,0.0,3.1578,3.1913,2.9989,3.0101,2.9083,2.6034,2.6268,0.0,0.0,0.0,0.0,2.9654,2.7319,2.5358,2.4086,2.276,0.0,2.0161,0.0,0.0,1.9267,0.0,0.0,0.0,0.0,0.0,2.5779,3.1655,3.6687,4.0796,4.1367,4.2615,4.4099,0.0,4.4618,4.608,4.6059,4.6017,4.5893,4.5757,4.5632,4.5457,4.538,4.4898,4.4475,4.5125,4.4666,4.3895,4.3491,4.3139,4.241,4.0541,3.9175,3.8033,0.0,0.0,0.0,0.0,0.0,0.0,0.0,0.0,0.0,0.0,0.0,0.0,0.0,0.0,0.0,2.6922,0.0,0.0,0.0,0.0,0.0,0.0,0.0,0.0,2.6698,0.0,2.753,2.9728,2.8786,2.9361,3.1649,2.9724,2.9493,3.0896,3.0058,2.9504,2.9164,2.9192,2.8684,2.7723,2.7958,2.7326,2.6064,2.5644,2.4991,2.4184,2.3084,2.1714,2.041,2.1377,2.0807,1.9503,2.5746,2.5454,0.0,2.5459,0.0,0.0,2.7633,0.0,0.0,3.1932,3.2377,0.0,3.0514,3.0281,2.8998,2.6115,2.5359,0.0,2.7454,0.0,0.0,2.9147,2.7307,2.563,2.4393,2.3302,0.0,2.0841,0.0,0.0,1.9554,0.0,0.0,0.0,0.0,2.2497,2.4944,3.187,3.7288,4.1277,4.179,4.3011,0.0,4.3865,4.4686,4.6129,4.614,4.6052,4.5869,4.5789,4.5642,4.5509,4.538,4.5033,4.4689,4.5204,4.4645,4.3907,4.392,4.305,4.2002,4.1304,3.9882,3.86,3.8287,3.7468,3.6584,0.0,3.5862,3.552,0.0,0.0,0.0,0.0,0.0,0.0,0.0,0.0,0.0,0.0,2.595,0.0,0.0,0.0,0.0,0.0,0.0,0.0,0.0,0.0,2.5741,2.7137,2.7176,2.7732,2.8966,2.7456,2.7511,2.899,2.8352,2.7913,2.7683,2.7815,2.7126,2.5901,2.5802,2.5131,2.394,2.3582,2.2678,2.1369,2.0488,1.8744,1.6798,1.7187,1.7025,1.6472,2.624,0.0,0.0,0.0,0.0,0.0,0.0,3.0999,0.0,3.4175,0.0,3.1134,3.0009,2.8859,2.7703,2.6473,0.0,2.4179,2.7238,2.4336,2.4108,2.7734,2.6457,2.5463,2.5066,2.3786,2.2891,0.0,0.0,0.0,0.0,0.0,0.0,0.0,0.0,0.0,0.0,3.2814,3.7778,4.0585,4.2517,4.4217,4.5493,4.4426,4.4943,4.6207,4.621,4.6066,4.5881,4.5836,4.5722,4.5571,4.5457,4.5362,4.5247,4.5361,4.4666,4.3923,4.4234,4.2585,4.0914,4.1503,4.0367,3.907,3.913,3.8925,3.8502,3.7747,3.7535,3.6756,3.4357,0.0,0.0,0.0,0.0,0.0,0.0,0.0,0.0,0.0,0.0,0.0,0.0,0.0,0.0,0.0,0.0,0.0,0.0,0.0,2.4285,2.4221,2.5855,2.6408,2.58,2.5328,2.5704,2.6857,2.6634,2.6396,2.6152,2.6152,2.5366,2.4039,2.3245,2.2509,2.1728,2.1369,2.0352,1.8885,1.7785,1.5913,1.4015,1.3847,1.4072,1.4282,0.0,0.0,0.0,0.0,0.0,3.1075,3.4427,3.6087,3.5845,3.2584,3.321,3.2483,2.8536,2.678,2.5201,2.3467,2.2474,0.0,0.0,0.0,0.0,2.6955,2.5475,2.4664,2.4955,2.3717,2.3324,0.0,0.0,0.0,0.0,0.0,0.0,0.0,0.0,0.0,2.8837,3.2523,0.0,3.9769,4.23,4.3539,4.4067,4.5273,4.5958,4.6192,4.6186,4.6088,4.5896,4.5969,4.5803,4.5603,4.5555,4.503,4.4557,4.5208,4.4787,4.3864,4.2636,4.198,4.1073,3.8891,3.8079,3.7614,3.6955,3.6728,3.6576,3.6104,3.5625,3.5145,3.4577,0.0,0.0,0.0,0.0,0.0,0.0,0.0,0.0,0.0,0.0,2.3466,0.0,0.0,0.0,0.0,0.0,2.1511,2.2865,0.0,2.1956,0.0,2.2933,2.3018,0.0,0.0,2.3207,2.5642,2.4359,2.3694,2.3509,2.3654,2.2561,2.0562,2.0448,1.9849,1.891,1.8849,1.8408,1.7705,1.6355,1.5032,1.3931,1.3197,1.1552,0.9538,0.0,0.0,0.0,0.0,0.0,0.0,0.0,3.8225,0.0,3.4443,3.2846,3.0807,2.7296,2.5237,2.3582,2.2109,2.1292,2.1731,2.3523,2.2918,2.3515,2.5955,2.4712,2.3755,2.318,2.3276,2.3274,2.3115,0.0,0.0,0.0,0.0,0.0,0.0,0.0,2.4464,0.0,0.0,0.0,3.9354,4.3104,4.4694,4.4962,4.5852,4.622,4.6209,4.621,4.6127,4.6048,4.6064,4.592,4.5738,4.5764,4.5372,4.4994,4.5411,4.5055,4.4249,4.3075,4.1941,4.0483,3.7859,3.6452,3.5284,3.3481,3.321,3.3029,3.2143,3.1998,3.1821,3.1011,2.9465,0.0,0.0,0.0,0.0,0.0,0.0,2.3717,0.0,0.0,0.0,0.0,0.0,0.0,0.0,0.0,1.9762,2.0218,0.0,2.0618,0.0,0.0,0.0,2.3052,0.0,2.1681,2.319,2.2411,2.1931,2.1576,2.1631,2.0795,1.9085,1.8726,1.8089,1.7284,1.6211,1.5389,1.4892,1.3762,1.2674,1.1809,1.1402,0.9749,0.7738,0.0,3.1097,0.0,0.0,3.564,0.0,3.7425,3.946,3.9757,3.6373,3.252,2.9137,2.6626,2.4122,2.2262,2.1171,2.0473,2.0805,2.2709,2.1957,2.2197,2.4129,2.3625,2.2831,2.1755,2.2952,2.3284,0.0,0.0,0.0,0.0,0.0,0.0,0.0,0.0,0.0,0.0,0.0,3.8,3.9411,4.358,4.5487,4.5866,4.5884,4.6053,4.6203,4.6201,4.621,4.6179,4.6131,4.6025,4.593,4.5939,4.5829,4.568,4.5747,4.5393,4.475,4.3374,4.1423,3.9013,3.5976,3.366,3.1498,2.9059,2.8675,2.8609,2.7735,2.7879,2.7837,2.6909,2.6762,0.0,0.0,0.0,0.0,0.0,0.0,0.0,0.0,0.0,0.0,2.0345,0.0,0.0,0.0,0.0,1.8001,1.755,1.8575,1.9367,1.983,0.0,2.0745,2.0568,0.0,2.0441,2.0955,2.0765,2.0419,1.9906,1.9809,1.9043,1.7802,1.709,1.6437,1.5696,1.3776,1.2674,1.2225,1.1574,1.0722,0.9854,0.968,0.8448,0.6782,0.0,0.0,0.0,0.0,0.0,0.0,4.1775,4.0995,3.9093,3.5687,3.2578,2.971,2.7161,2.3489,2.0873,1.9937,1.9812,1.9564,1.8854,2.0638,2.1475,2.0977,2.1629,2.2097,2.2339,2.3128,2.3891,0.0,0.0,2.3168,0.0,0.0,0.0,0.0,0.0,0.0,0.0,3.4942,3.7771,4.0099,4.247,4.4062,4.5007,4.5014,4.5521,4.6183,4.619,4.6215,4.621,4.6179,4.6133,4.6069,4.6066,4.5978,4.5847,4.5897,4.5836,4.5128,4.1992,3.9265,3.6098,3.0865,2.7621,2.5255,2.3431,2.3028,2.3302,2.3943,2.3812,2.3792,2.4575,2.2701,2.1307,0.0,0.0,0.0,0.0,0.0,2.0424,1.7908,0.0,0.0,1.5856,1.4898,0.0,0.0,1.5269,1.7436,1.8,1.7357,1.7575,1.885,1.848,1.8491,1.9069,1.8509,1.888,1.9985,1.9257,1.8655,1.8221,1.7819,1.6764,1.5409,1.5061,1.4223,1.2954,1.1918,1.1488,1.1402,1.1327,1.0722,0.9767,0.8965,0.7474,0.5719,0.0,0.0,0.0,0.0,0.0,0.0,0.0,4.1716,3.9565,3.5654,3.2599,2.9382,2.5681,2.2481,2.0053,1.8913,1.9341,1.9813,2.0036,2.0642,2.09,2.0893,2.1213,2.1578,2.1983,2.3054,2.4299,0.0,0.0,0.0,0.0,0.0,0.0,0.0,0.0,3.0814,3.2385,3.6256,3.867,4.0089,4.2305,4.3513,4.4011,4.4097,4.4345,4.4656,4.4656,4.4631,4.4655,4.4641,4.5271,4.6117,4.6163,4.6036,4.5927,4.6013,4.5802,4.4884,4.1631,3.7356,3.2486,2.6637,2.2671,1.9273,1.6004,1.6442,1.7484,1.7432,1.8709,1.9944,2.0286,2.0749,2.0913,2.0292,0.0,0.0,0.0,0.0,0.0,1.7451,0.0,1.6518,0.0,1.3958,0.0,0.0,0.0,1.4805,1.4697,1.5212,1.6007,1.7031,0.0,1.7499,1.9084,1.8026,1.7839,1.8523,1.7672,1.6814,1.5959,1.5253,1.4156,1.2832,1.2577,1.1821,1.0799,1.0549,1.0115,0.9602,0.8973,0.8536,0.8105,0.7129,0.598,0.483,4.3757,0.0,4.2346,0.0,4.4774,4.4339,4.3361,4.2427,4.0152,3.5384,3.2213,2.8808,2.4679,2.1942,1.9957,1.8651,1.9288,1.9959,2.0529,2.0404,2.0439,2.0727,2.1115,0.0,2.2038,2.3599,2.504,2.6339,2.5692,0.0,0.0,0.0,0.0,0.0,3.1326,3.2774,3.3792,3.722,3.9038,3.975,4.1583,4.264,4.3025,4.3187,4.3364,4.3598,4.3598,4.3598,4.3604,4.3607,4.4348,4.5384,4.5696,4.5894,4.6002,4.614,4.584,4.4619,4.0551,3.4606,2.8022,2.1407,1.5964,1.1474,0.8737,0.9785,1.1657,1.2565,1.4489,1.599,1.6233,1.8154,1.9259,1.8165,0.0,0.0,0.0,1.7129,0.0,1.6444,1.5198,1.4547,1.4932,1.2757,0.0,0.0,0.0,1.2569,1.2513,1.3342,1.4269,0.0,0.0,0.0,1.7835,1.6781,1.647,1.6911,1.6078,1.5184,1.421,1.3159,1.2128,1.1198,1.0778,1.0269,0.9671,0.9244,0.8727,0.8032,0.7054,0.6694,0.6605,0.563,0.4741,0.4028,4.7156,4.6984,4.7349,5.0383,4.9769,4.7868,4.4981,4.348,4.0603,3.479,3.1435,2.8245,2.4564,2.2242,2.0549,1.9529,1.9638,1.9434,1.8793,1.9494,1.9888,0.0,0.0,2.2038,2.284,2.5133,2.6271,2.6339,0.0,0.0,2.8507,0.0,3.1438,3.1978,3.4193,3.5674,3.6429,3.7469,3.8361,3.9199,3.9983,4.1042,4.2121,4.2252,4.2864,4.3598,4.3598,4.3598,4.3598,4.3604,4.3514,4.3605,4.4585,4.5502,4.6207,4.6289,4.6015,4.4405,3.8403,3.0626,2.2403,1.4584,0.6683,0.1017,0.1989,0.3473,0.5999,1.0393,1.1563,1.2054,1.2783,1.4142,1.5101,1.5158,0.0,0.0,0.0,1.6197,0.0,1.39,1.2885,1.2028,1.1267,1.054,0.0,0.0,0.0,0.0,0.0,0.0,0.0,1.3476,1.2887,0.0,1.4314,1.4314,1.4713,1.5394,1.4504,1.382,1.3243,1.1958,1.1198,1.0961,1.0009,0.9758,0.9767,0.7929,0.7136,0.7054,0.6074,0.5719,0.563,0.4656,0.4028,0.3489,4.5114,4.7413,4.917,4.7889,4.7485,4.6735,4.4842,4.1818,3.8482,3.4739,3.0726,2.7244,2.4666,2.2262,2.0617,0.0,1.9519,1.947,0.0,2.0089,2.0275,2.1113,2.1291,2.205,2.3487,2.5043,2.6426,2.7769,0.0,0.0,0.0,3.125,3.2208,3.3857,3.5105,3.5925,3.647,3.7749,3.8456,3.8804,3.9751,4.0411,4.0785,4.1179,4.1535,4.1777,4.187,4.189,4.189,4.189,4.219,4.2626,4.3365,4.4308,4.5284,4.5913,4.6053,4.327,3.0828,2.3054,1.4992,0.0443,-0.479,-0.6366,-0.6302,-0.1158,0.4182,0.6155,0.8151,0.9643,1.0067,1.2031,1.3652,1.3565,1.5451,0.0,1.4776,0.0,1.4538,1.2808,1.1289,1.0352,1.03,0.9049,0.0,0.0,0.0,0.0,0.0,0.0,0.0,0.0,1.1935,0.0,1.3588,1.2018,1.1697,1.2796,1.1872,1.094,1.0,0.9575,0.879,0.7658,0.7482,0.7217,0.677,0.6334,0.6163,0.6074,0.5097,0.4746,0.4563,0.3317,0.278,0.2511,4.647,4.8259,4.9387,4.7576,4.6914,4.5841,4.3561,4.0288,3.688,3.3605,2.9655,2.6422,2.4723,2.2434,0.0,2.0835,2.0132,2.0143,2.1278,2.0575,2.0682,2.1937,2.2082,2.2912,2.453,2.6153,0.0,2.9232,3.0689,3.1964,3.2971,3.2542,3.3243,3.4897,3.5565,3.6096,3.6666,3.7683,3.8287,3.8559,3.9288,3.9629,3.9812,4.0488,4.0671,4.0583,4.0945,4.1052,4.103,4.103,4.116,4.1415,4.1822,4.2371,4.3101,4.4343,4.3606,3.9395,2.5701,1.7091,0.8339,-0.6911,-1.2501,-1.3486,-1.0775,-0.3726,0.2711,0.4732,0.6471,0.7826,0.8177,1.0163,1.1905,1.2079,1.3952,1.4947,1.3968,0.0,1.2954,0.0,0.0,0.9091,0.0,0.8253,0.8042,0.0,0.0,0.0,0.0,0.0,1.0627,1.0517,1.0606,1.1032,1.185,1.0326,1.0078,1.0919,1.0086,0.9061,0.8017,0.8017,0.7312,0.6257,0.634,0.6074,0.5536,0.5275,0.5186,0.5008,0.3849,0.3406,0.3406,0.2242,0.1705,0.1615,4.9948,4.9126,4.8389,0.0,4.7487,0.0,4.163,3.8946,3.5815,3.1737,2.8369,2.587,2.4553,2.2775,2.1731,2.1695,0.0,0.0,2.1569,2.0843,2.0977,2.2252,2.304,2.4114,2.5664,2.7991,2.9614,3.0513,3.2369,3.3527,3.4101,3.4101,3.4464,3.5224,3.5576,3.618,3.69,3.7248,3.7789,3.8376,3.8522,3.8728,3.9076,4.0021,4.0174,3.9961,4.077,4.1007,4.0898,4.0849,4.0538,4.0101,4.0132,3.9851,3.9896,4.1491,3.9034,3.3374,2.2103,1.2235,0.2353,-0.9278,-1.6965,-1.9686,-1.201,-0.4759,0.1457,0.5285,0.6163,0.6428,0.6959,0.8528,1.0009,1.0778,1.235,1.3492,1.329,1.2559,1.1313,0.9352,0.0,0.0,0.7095,0.8116,0.8539,0.0,0.0,0.0,0.0,0.0,0.8259,0.8773,0.9054,0.9194,0.9346,0.9264,0.9377,0.9662,0.8798,0.7929,0.7143,0.7054,0.6782,0.634,0.6251,0.5985,0.5453,0.4567,0.421,0.4032,0.2511,0.2063,0.2155,0.1436,0.0986,0.0717,0.0,0.0,4.8175,4.5356,4.4857,4.3923,4.1418,3.7559,3.407,3.1373,2.7933,2.5041,2.3607,2.2422,2.1603,2.1291,2.0319,2.0034,2.0717,1.9885,2.0092,2.179,2.2215,2.312,2.469,2.6472,2.8795,3.1779,3.3203,3.3968,3.4101,3.4101,3.4464,3.5224,3.5386,3.5839,3.6504,3.6601,3.6763,3.6923,3.7149,3.7428,3.7822,3.8874,3.9409,3.97,4.0488,4.0765,4.073,4.05,4.0268,4.0042,3.9645,3.8432,3.7127,3.6613,3.4411,2.8679,1.266,0.4003,-0.4165,-1.9132,-2.1163,-1.8219,-1.3185,-0.6507,-0.0457,0.2782,0.402,0.491,0.6068,0.7746,0.9148,1.0269,1.1252,1.1887,1.1812,1.1094,1.0096,0.0,0.7625,0.704,0.7501,0.7311,0.7346,0.0,0.0,0.8173,0.8031,0.7885,0.8145,0.8884,0.8937,0.8922,0.8759,0.7982,0.7672,0.7753,0.7577,0.7312,0.7054,0.6612,0.5991,0.5275,0.4741,0.4117,0.3588,0.332,0.323,0.323,0.323,0.278,0.2153,0.1972,0.1345,0.0628,4.5817,4.6712,4.6941,4.4627,4.3698,4.2347,3.9643,3.5891,3.2574,3.0168,2.6771,2.4115,2.2985,2.1964,2.1291,2.0869,2.0393,2.0237,2.0641,1.9957,2.0024,2.1104,2.146,2.251,2.429,2.5781,2.8124,3.1354,3.2609,3.3255,3.3255,3.3866,3.4415,3.4944,3.5005,3.534,3.583,3.5848,3.5942,3.6118,3.6296,3.6576,3.7,3.7888,3.8495,3.9002,4.0196,4.0701,4.0799,4.0806,4.0276,3.9432,3.8359,3.6177,3.3317,2.9546,2.6763,2.1695,0.6651,-0.21,-1.0622,-2.5711,-2.4599,-1.9121,-1.6888,-0.884,-0.1127,0.1659,0.3373,0.4804,0.5801,0.691,0.8185,0.9566,0.9771,0.9999,1.067,0.9744,0.8625,0.7708,0.6912,0.6291,0.5959,0.6466,0.6803,0.6749,0.7465,0.0,0.7788,0.765,0.7766,0.8448,0.8288,0.8105,0.7841,0.7312,0.7143,0.7143,0.6789,0.6612,0.6612,0.5902,0.5186,0.4474,0.4117,0.3496,0.2875,0.2875,0.2785,0.2603,0.2959,0.2688,0.2151,0.1791,0.1074,0.0358,4.8647,4.6998,4.5436,4.4929,4.3288,4.0948,3.7698,3.4516,3.1478,2.8543,2.5496,2.3205,2.2279,2.1248,2.0552,2.0448,2.0583,2.0624,2.0571,2.023,2.0061,2.0372,2.072,2.1782,2.3709,2.5448,2.7432,2.9857,3.121,3.2002,3.2222,3.3308,3.4118,3.4691,3.4643,3.4835,3.5131,3.5085,3.5203,3.5531,3.5531,3.5795,3.6229,3.7006,3.7551,3.812,3.9764,4.0387,4.0465,4.083,3.9989,3.8438,3.6586,3.3616,2.9369,2.2548,1.8332,1.3623,0.2786,-0.6749,-1.6798,-2.9713,-2.6795,-2.0842,-2.1024,-1.1316,-0.1538,0.1039,0.3257,0.4977,0.57,0.6418,0.7197,0.8533,0.8238,0.8233,0.9378,0.0,0.7352,0.6563,0.6444,0.587,0.4311,0.5681,0.6337,0.551,0.6916,0.7735,0.7454,0.7429,0.748,0.7848,0.7591,0.7326,0.7143,0.7143,0.7054,0.6966,0.6523,0.6263,0.608,0.5364,0.4741,0.4117,0.3849,0.3496,0.2962,0.2962,0.2782,0.2511,0.2598,0.2417,0.2059,0.1431,0.0088,-0.1287,4.5416,4.5071,4.4563,4.3878,4.2777,4.1,3.8101,3.4759,3.1184,2.7629,2.4515,2.2251,2.0978,1.9477,1.9029,1.9907,1.9163,1.8869,1.9482,1.9163,1.9145,1.9747,2.0081,2.0681,2.1597,2.4683,2.6734,2.7641,2.9647,3.1126,3.2222,3.2416,3.3276,3.4691,3.4349,3.4399,3.4739,3.4415,3.4317,3.4366,3.4366,3.461,3.5098,3.6028,3.6629,3.7218,3.8967,3.897,3.8277,3.879,3.8151,3.6773,3.4479,3.138,2.7111,2.0,1.2778,0.605,0.0847,-1.0009,-2.1886,-3.0119,-2.6422,-2.0982,-2.1673,-1.3075,-0.3859,-0.0093,0.1844,0.3484,0.5415,0.6358,0.6699,0.646,0.6785,0.7082,0.7199,0.0,0.7163,0.6596,0.6111,0.5731,0.5484,0.4989,0.4994,0.5577,0.6449,0.6987,0.6919,0.7264,0.7453,0.7591,0.7319,0.7143,0.7143,0.7143,0.6789,0.6257,0.6972,0.6966,0.634,0.5625,0.527,0.5092,0.3674,0.323,0.3499,0.3499,0.3674,0.3942,0.3582,0.2864,0.2059,0.1791,-0.2263,-0.7587,4.4736,4.4285,4.3721,4.2843,4.1963,4.017,3.6542,3.3758,3.0604,2.6404,2.3667,2.147,1.9805,1.9074,1.8718,1.87,1.8718,1.8716,1.8687,1.8578,1.8716,1.9073,1.8916,1.9503,2.072,2.3441,2.5153,2.5871,2.7733,2.9313,3.0719,3.1384,3.2338,3.3455,3.3578,3.3527,3.3507,3.3578,3.3235,3.264,3.3002,3.3391,3.3756,3.4584,3.545,3.6394,3.7655,3.7701,3.7263,3.7694,3.6903,3.5337,3.3309,3.0017,2.564,1.8781,0.7926,-0.3264,-0.9114,-1.7355,-2.5804,-3.1772,-2.738,-2.1963,-2.3417,-1.4394,-0.4923,-0.2175,0.0375,0.288,0.5385,0.5589,0.5681,0.6263,0.6033,0.5794,0.6007,0.6147,0.5995,0.5191,0.5018,0.4746,0.421,0.3939,0.4024,0.4919,0.5265,0.5526,0.5797,0.5891,0.6074,0.6523,0.6877,0.7143,0.7326,0.7326,0.7231,0.7054,0.7143,0.6694,0.5808,0.5097,0.4563,0.4032,0.3499,0.3141,0.2869,0.3138,0.2867,0.2417,0.2685,0.2417,0.1966,0.1769,-0.2744,-0.8744,4.399,4.328,4.2554,4.1801,4.0858,3.8858,3.5086,3.2791,2.991,2.5467,2.2883,2.0811,1.8896,1.8565,1.8303,1.7793,1.8279,1.8515,1.8081,1.817,1.8249,1.8487,1.8057,1.8656,2.0256,2.1816,2.3178,2.4282,2.5673,2.7287,2.901,3.0277,3.1302,3.2185,3.2788,3.2841,3.2492,3.2949,3.2454,3.1501,3.2241,3.2563,3.2814,3.3534,3.4559,3.5677,3.6559,3.6469,3.6118,3.6582,3.5578,3.3826,3.2045,2.8829,2.4482,1.7778,0.434,-0.9933,-1.7696,-2.2926,-2.7627,-3.2937,-2.8279,-2.2776,-2.4483,-1.5081,-0.5396,-0.337,-0.0286,0.2727,0.5059,0.4705,0.4457,0.5813,0.0,0.4189,0.5022,0.4851,0.4453,0.3994,0.3947,0.3764,0.2964,0.2867,0.3221,0.3942,0.3931,0.4105,0.4643,0.4825,0.5181,0.5808,0.6523,0.6966,0.7143,0.7238,0.7238,0.7319,0.6959,0.6245,0.5092,0.4563,0.3942,0.3409,0.332,0.2959,0.2511,0.2688,0.2145,0.1245,0.1779,0.1951,0.1578,0.0,-0.4902,-1.0857,4.1779,4.109,4.0637,4.0687,3.9337,3.7425,3.5112,3.2528,2.9349,2.5121,2.2244,1.999,1.8322,1.6881,1.656,1.7952,1.7164,1.7019,1.8026,1.7789,1.7697,1.7875,1.7988,1.8578,1.9668,2.0022,2.1052,2.2831,2.363,2.5261,2.7666,2.8926,3.0185,3.1387,3.2266,3.2656,3.2602,3.2734,3.2431,3.1814,3.2485,3.2648,3.264,3.3598,3.4317,3.4934,3.6047,3.5397,3.4133,3.4845,3.3974,3.2216,3.0271,2.7455,2.3491,1.6223,0.3193,-1.071,-1.9122,-2.2848,-2.5896,-3.2611,-2.836,-2.2721,-2.3624,-1.4502,-0.5193,-0.2562,0.0569,0.3199,0.425,0.3764,0.3358,0.3652,0.0,0.0,0.3942,0.3096,0.2719,0.4082,0.366,0.3221,0.2964,0.2334,0.2242,0.2964,0.278,0.2953,0.3667,0.4914,0.5725,0.608,0.6169,0.6169,0.6245,0.6428,0.6163,0.5625,0.6422,0.598,0.4389,0.43,0.4478,0.4741,0.3048,0.2777,0.34,0.2506,0.2389,0.2695,0.2002,0.1721,0.0993,-0.5306,-1.1523,-1.772,4.0396,4.0086,3.9638,3.878,3.84,3.7045,3.3425,3.1772,2.9215,2.4411,2.1862,1.9725,1.7653,1.7097,1.6884,1.704,1.7293,1.7532,1.7734,1.7134,1.6971,1.7442,1.7821,1.8412,1.9146,1.9125,2.0328,2.2731,2.2846,2.4213,2.6781,2.8085,2.9157,3.0017,3.1096,3.1362,3.1102,3.1477,3.0778,2.951,3.0659,3.0984,3.0866,3.1645,3.2509,3.3351,3.4124,3.3562,3.2461,3.3123,3.2114,3.0421,2.9226,2.6827,2.227,1.1257,0.0821,-0.8971,-1.7233,-2.2392,-2.6807,-3.2077,-3.0423,-2.6991,-2.4807,-1.7793,-1.044,-0.586,-0.159,0.1478,0.2598,0.2502,0.2494,0.3154,0.0,0.1837,0.2536,0.2624,0.2818,0.3403,0.3227,0.2959,0.2875,0.2244,0.2065,0.2875,0.2242,0.2061,0.269,0.4202,0.4914,0.4559,0.5275,0.563,0.5625,0.5714,0.5714,0.563,0.5985,0.5453,0.43,0.4567,0.4478,0.4121,0.4032,0.3466,0.2631,0.2722,0.217,0.1277,0.1108,-0.1268,-0.4781,-0.7346,-1.4609,-2.346,3.9459,3.9151,3.8622,3.7347,3.707,3.583,3.2348,3.1111,2.8946,2.4449,2.2488,2.0573,1.8173,1.8241,1.8146,1.7352,1.788,1.7934,1.7207,1.6344,1.6199,1.6918,1.777,1.8543,1.9158,1.9054,2.0224,2.2773,2.2386,2.3352,2.5757,2.702,2.7963,2.859,2.9638,3.0016,2.9889,3.0309,2.9553,2.8287,2.9407,2.9875,2.9818,3.0511,3.142,3.2492,3.3002,3.2431,3.1595,3.2216,3.1276,2.9747,2.8812,2.5257,1.9408,0.9096,0.0499,-0.721,-1.3995,-2.0426,-2.6338,-3.0845,-3.1036,-2.906,-2.5151,-1.9141,-1.2931,-0.7738,-0.2611,0.1106,0.1342,0.143,0.1703,0.2596,0.1792,0.1256,0.1705,0.2063,0.2424,0.2875,0.2693,0.2603,0.2875,0.2511,0.2422,0.2875,0.2242,0.224,0.3045,0.3846,0.4291,0.4202,0.4648,0.4825,0.4652,0.4914,0.5097,0.5275,0.5275,0.483,0.4121,0.4389,0.421,0.3674,0.4295,0.3537,0.1995,0.2517,0.1794,0.0417,0.0583,-0.2969,-0.8537,-1.0447,-1.7681,-2.6813,3.8936,3.8179,3.7517,3.6649,3.5078,3.3501,3.2199,3.0665,2.8571,2.5344,2.4226,2.2754,2.0249,2.0289,2.0155,1.9383,1.8919,1.8029,1.6448,1.5314,1.5121,1.6375,1.7834,1.9023,1.9919,1.9596,2.0514,2.2705,2.2174,2.2783,2.4413,2.573,2.6607,2.7266,2.8025,2.8742,2.926,2.9464,2.9092,2.8546,2.9192,2.9662,2.9972,3.0601,3.1534,3.2437,3.3002,3.2431,3.1595,3.2216,3.1595,3.0387,2.8939,2.2484,1.4641,1.0749,0.2801,-0.5695,-0.9708,-1.655,-2.3858,-2.9026,-2.9499,-2.7785,-2.4144,-1.7669,-1.1381,-0.7485,-0.1509,0.2539,0.072,0.0537,0.0896,0.1705,0.0538,0.009,0.1615,0.1166,0.1256,0.2693,0.2244,0.2065,0.2875,0.3135,0.3135,0.2964,0.2867,0.3482,0.491,0.4113,0.4113,0.5359,0.438,0.3585,0.2875,0.3853,0.43,0.43,0.43,0.4032,0.3588,0.3588,0.3585,0.3578,0.3578,0.2919,0.1738,0.1736,0.127,0.0651,0.0814,-0.2863,-0.9013,-1.5045,-2.1264,-2.7485,3.7674,3.729,3.6686,3.5033,3.4426,3.3426,3.1309,2.9903,2.8079,2.5209,2.4318,2.3166,2.1152,2.1281,2.087,1.9349,1.8894,1.7816,1.5643,1.569,1.6139,1.6719,1.7515,1.8762,2.0588,2.0292,2.0975,2.2621,2.2303,2.2874,2.4268,2.624,2.6889,2.6452,2.8253,2.8471,2.7596,2.8436,2.8163,2.7297,2.839,2.8776,2.8876,2.9504,3.0147,3.0689,3.1762,3.1849,3.1595,3.2216,3.1534,2.985,2.6544,2.1733,1.6316,1.1134,0.3736,-0.3603,-0.7332,-1.4021,-2.1336,-2.7523,-3.108,-3.1463,-2.5053,-2.0783,-1.6308,-0.979,-0.4386,-0.0921,-0.1254,-0.1695,-0.1341,0.0717,-0.0358,-0.0985,0.009,0.0986,0.1615,0.2065,0.2959,0.3674,0.3853,0.3939,0.3939,0.3853,0.3138,0.3135,0.4474,0.4028,0.4028,0.4652,0.4295,0.3492,0.2155,0.2962,0.332,0.332,0.332,0.3409,0.3588,0.3942,0.4295,0.4648,0.5015,0.4574,0.3549,0.3164,0.2524,0.1666,0.135,-0.2602,-0.8809,-1.502,-2.1215,-2.7419,3.7094,3.69,3.6264,3.435,3.3782,3.2967,3.0984,2.9813,2.8395,2.6245,2.5794,2.5128,2.352,2.368,2.3026,2.0815,1.8801,1.7096,1.5914,1.5407,1.5772,1.7213,1.7752,1.9088,2.1419,2.1793,2.2582,2.3867,2.3942,2.4466,2.5384,2.6808,2.7064,2.6274,2.7652,2.7678,2.68,2.7273,2.7275,2.7053,2.7564,2.8026,2.8352,2.9058,2.956,3.0054,3.1334,3.1679,3.1652,3.2272,3.1562,2.9793,2.6156,2.2069,1.7588,1.2568,0.5622,-0.121,-0.4797,-1.1055,-1.7883,-2.3504,-2.8746,-3.1176,-2.6196,-2.3439,-2.01,-1.3733,-0.8616,-0.4877,-0.3845,-0.3735,-0.3028,-0.0626,-0.1164,-0.1433,-0.0538,0.0896,0.1794,0.1794,0.2959,0.3764,0.3764,0.4121,0.43,0.43,0.3317,0.3141,0.421,0.3764,0.3582,0.3849,0.3492,0.2688,0.1346,0.1794,0.2155,0.2424,0.2693,0.2959,0.3317,0.421,0.4452,0.4234,0.5399,0.5019,0.3549,0.3583,0.2878,0.1804,0.1414,-0.251,-0.8741,-1.502,-2.1196,-2.7447,3.6985,3.6794,3.616,3.4153,3.3034,3.2044,3.1071,3.0119,2.9059,2.8009,2.8193,2.7916,2.6699,2.6764,2.5784,2.312,1.8765,1.633,1.6897,1.4819,1.4881,1.7825,1.8657,2.0215,2.2569,2.3841,2.4912,2.5821,2.6414,2.6929,2.7409,2.744,2.7119,2.6562,2.6591,2.6552,2.6459,2.5959,2.6361,2.7311,2.6892,2.7364,2.8417,2.9058,2.9685,3.0358,3.1507,3.1905,3.1962,3.2516,3.1732,3.0064,2.738,2.3205,1.8443,1.4451,0.7974,0.1315,-0.2456,-0.8114,-1.394,-1.7877,-2.3185,-2.7317,-2.6902,-2.5371,-2.2678,-1.8045,-1.3317,-0.9138,-0.6512,-0.5406,-0.4267,-0.2145,-0.197,-0.1612,-0.0538,0.0717,0.1615,0.1705,0.2424,0.2962,0.2962,0.3764,0.43,0.421,0.3409,0.323,0.4032,0.323,0.2869,0.295,0.2151,0.1346,0.0628,0.0628,0.0986,0.1705,0.2151,0.2509,0.2867,0.4206,0.4154,0.3117,0.5009,0.4466,0.243,0.3231,0.2715,0.1414,0.1335,-0.2516,-0.8724,-1.5012,-2.1271,-2.749,3.6355,3.6022,3.5267,3.2793,3.1625,3.0865,3.0273,2.9283,2.8641,2.8851,2.8955,2.8726,2.7996,2.7046,2.5807,2.4016,2.0049,1.7477,1.6883,1.6448,1.6843,1.8427,2.0682,2.2853,2.4917,2.5292,2.5898,2.6878,2.706,2.7516,2.8248,2.8436,2.7753,2.6387,2.6422,2.5794,2.4679,2.4501,2.5086,2.6212,2.6536,2.743,2.8546,2.9219,3.0029,3.0984,3.1762,3.254,3.3235,3.3339,3.2447,3.0894,2.8671,2.3955,1.8348,1.4111,0.7781,0.123,-0.2566,-0.7027,-1.1229,-1.3926,-1.6522,-1.9364,-2.2845,-2.4299,-2.2992,-1.6145,-1.4185,-1.2149,-0.6944,-0.6919,-0.6404,-0.2412,-0.2861,-0.295,-0.0717,-0.009,0.0269,0.0896,0.2238,0.3132,0.3132,0.3849,0.4032,0.323,0.3051,0.2693,0.2332,0.2153,0.1794,0.1255,0.1076,0.0628,-0.0179,0.009,0.0448,0.0986,0.1255,0.1703,0.2327,0.2774,0.3187,0.3466,0.4596,0.4403,0.3315,0.3651,0.3146,0.2196,0.1571,-0.2479,-0.878,-1.4995,-2.1246,-2.75,3.6143,3.5814,3.507,3.264,3.147,3.0853,3.0673,2.958,2.8983,2.9605,2.9968,2.9825,2.9021,2.7596,2.5524,2.2479,1.8795,1.6593,1.653,1.5881,1.659,1.9191,2.1102,2.3713,2.7225,2.7867,2.8271,2.8491,2.9318,2.9889,3.0249,3.017,2.9188,2.7437,2.6788,2.557,2.4052,2.4098,2.4408,2.5053,2.5921,2.7013,2.8239,2.9148,3.022,3.136,3.2321,3.3108,3.3681,3.3339,3.2532,3.127,2.9031,2.4482,1.9069,1.4424,0.8472,0.2341,-0.2299,-0.6022,-0.9156,-1.1663,-1.3646,-1.6349,-2.155,-2.2379,-2.1505,-1.9562,-1.8774,-1.6894,-1.1736,-1.1495,-1.0394,-0.516,-0.4283,-0.3664,-0.188,-0.1254,-0.0717,0.009,0.0894,0.1519,0.197,0.2327,0.2419,0.1884,0.1884,0.1705,0.1256,0.1256,0.0896,0.0179,0.0179,-0.009,-0.0717,-0.0628,-0.0359,0.0,0.0896,0.1343,0.1613,0.2596,0.2993,0.2989,0.4298,0.444,0.3738,0.3773,0.3288,0.2102,-0.1658,-0.512,-0.9118,-1.8304,-2.5652,-3.1513,3.6106,3.5814,3.5109,3.2984,3.1927,3.1353,3.1341,3.0488,2.9959,3.024,3.0984,3.1071,3.0115,2.7666,2.4192,1.9471,1.5591,1.377,1.4591,1.3801,1.5145,1.9059,2.1088,2.4341,2.9239,3.0667,3.1066,3.0456,3.1812,3.2429,3.2368,3.1768,3.0375,2.8323,2.6643,2.4972,2.3436,2.3484,2.3748,2.423,2.5441,2.6749,2.798,2.9059,3.0241,3.148,3.2594,3.3374,3.3756,3.3056,3.2416,3.1414,2.8962,2.4803,1.9859,1.4791,0.9358,0.3692,-0.194,-0.5068,-0.7453,-1.0067,-1.1899,-1.4402,-1.9344,-1.95,-1.9565,-2.3011,-2.3014,-2.1082,-1.6803,-1.6148,-1.4264,-0.809,-0.5802,-0.438,-0.3147,-0.2511,-0.1878,-0.0985,-0.0983,-0.0804,0.009,0.0358,0.0448,0.0448,0.0628,0.0628,0.0538,0.0538,0.0179,-0.0538,-0.0538,-0.0717,-0.1077,-0.0986,-0.0896,-0.0628,0.0627,0.1075,0.0986,0.2408,0.2703,0.2098,0.3922,0.4313,0.3597,0.3908,0.2771,0.0297,-0.551,-0.9176,-1.2577,-2.3902,-3.1411,-3.5895,3.6106,3.5814,3.5149,3.3071,3.2295,3.1742,3.0991,3.1508,3.1597,3.0451,3.187,3.2609,3.1588,2.5786,1.995,1.5019,1.0373,0.7735,0.7898,1.0168,1.2942,1.6084,2.2078,2.6883,3.0238,3.2554,3.3422,3.2757,3.2695,3.2967,3.3538,3.2076,2.977,2.6608,2.4037,2.2266,2.1112,2.0855,2.2207,2.4607,2.6039,2.7332,2.8569,2.9127,3.0076,3.1231,3.1855,3.2802,3.3736,3.3161,3.2541,3.1524,2.8926,2.4901,2.0108,1.4554,0.9433,0.4289,-0.1414,-0.4271,-0.6157,-0.8376,-0.8464,-0.8703,-1.1006,-1.5242,-1.8789,-1.9307,-2.1008,-2.1082,-1.6803,-1.6682,-1.5052,-0.8344,-0.6923,-0.5908,-0.3656,-0.3706,-0.366,-0.2945,-0.2856,-0.2586,-0.1784,-0.0981,-0.0536,-0.0536,0.0268,0.0448,-0.0179,-0.0269,-0.0538,-0.1256,-0.1077,-0.1076,-0.1077,-0.0717,-0.0448,-0.0448,0.0179,0.0359,0.0179,0.0792,0.1121,0.1261,0.3121,0.3451,0.2823,0.4224,0.0717,-0.5615,-0.6614,-1.3984,-2.4906,-3.1938,-3.5132,-3.5888,3.668,3.6257,3.5645,3.4076,3.322,3.2774,3.2819,3.2545,3.2278,3.2002,3.3035,3.3391,3.24,2.3008,1.5267,1.1553,0.3688,-0.0083,0.2189,0.689,1.1903,1.7201,2.4249,2.9446,3.2446,3.3682,3.4346,3.4438,3.3939,3.3697,3.3623,3.0968,2.8528,2.6179,2.271,2.0488,1.9421,2.0032,2.1213,2.2798,2.5077,2.6982,2.861,2.9631,3.0767,3.188,3.1801,3.2461,3.3064,3.1204,3.03,2.9387,2.6488,2.243,1.7911,1.3235,0.8497,0.3646,-0.1411,-0.4094,-0.5891,-0.8032,-0.7856,-0.7489,-0.8782,-1.0706,-1.336,-1.7573,-2.0246,-2.1664,-2.1184,-2.05,-1.8322,-1.3104,-0.9393,-0.6802,-0.5775,-0.538,-0.5065,-0.4648,-0.4634,-0.4275,-0.339,-0.2945,-0.2677,-0.2677,-0.1878,-0.1433,-0.1792,-0.1255,-0.1076,-0.1256,-0.1166,-0.0986,-0.0717,-0.0538,-0.0359,-0.018,0.0179,0.0357,0.0441,0.1222,0.145,0.1321,0.3502,0.4077,0.3522,0.4686,0.3135,-0.0822,-0.8707,-1.9952,-3.201,-3.4737,-3.5779,-3.585]},{"header":{"parameterUnit":"m.s-1","parameterCategory":1,"la1":30.6,"la2":28.766,"lo1":-90.7593,"lo2":-88.6598,"dy":0.0162,"dx":0.0183,"nx":116,"ny":114,"refTime":"2024-04-19T12:00:00:Z","depth":0,"parameterNumber":3,"parameterNumberName":"V-component_of_WINDS"},"data":[0.0,0.0,0.0,0.0,0.0,0.0,0.0,0.0,0.0,0.0,0.0,0.0,0.0,0.0,0.0,0.0,0.0,0.0,0.0,0.0,0.0,0.0,0.0,0.0,0.0,0.0,0.0,0.0,0.0,0.0,0.0,0.0,0.0,0.0,0.0,0.0,0.0,0.0,0.0,0.0,0.0,0.0,0.0,0.0,0.0,0.0,0.0,0.0,0.0,0.0,0.0,0.0,0.0,0.0,0.0,0.0,0.0,0.0,0.0,0.0,0.0,0.0,0.0,0.0,0.0,0.0,0.0,0.0,0.0,0.0,0.0,0.0,0.0,0.0,0.0,0.0,0.0,0.0,0.0,0.0,0.0,0.0,0.0,0.0,0.0,0.0,0.0,0.0,0.0,0.0,0.0,0.0,0.0,0.0,0.0,0.0,0.0,0.0,0.0,0.0,0.0,0.0,0.0,0.0,0.0,0.0,0.0,0.0,0.0,0.0,0.0,0.0,0.0,0.0,0.0,0.0,0.0,0.0,0.0,0.0,0.0,0.0,0.0,0.0,0.0,0.0,0.0,0.0,0.0,0.0,0.0,0.0,0.0,0.0,0.0,0.0,0.0,0.0,0.0,0.0,0.0,0.0,0.0,0.0,0.0,0.0,0.0,0.0,0.0,0.0,0.0,0.0,0.0,0.0,0.0,0.0,0.0,0.0,0.0,0.0,0.0,0.0,0.0,0.0,0.0,0.0,0.0,0.0,0.0,0.0,0.0,0.0,0.0,0.0,0.0,0.0,0.0,0.0,0.0,0.0,0.0,0.0,0.0,0.0,0.0,0.0,0.0,0.0,0.0,0.0,0.0,0.0,0.0,0.0,0.0,0.0,0.0,0.0,0.0,0.0,0.0,0.0,0.0,0.0,0.0,0.0,0.0,0.0,0.0,0.0,0.0,0.0,0.0,0.0,0.0,0.0,0.0,0.0,0.0,0.0,0.0,0.0,0.0,0.0,0.0,0.0,0.0,0.0,0.0,0.0,0.0,0.0,0.0,0.0,0.0,0.0,0.0,0.0,0.0,0.0,0.0,0.0,0.0,0.0,0.0,0.0,0.0,0.0,0.0,0.0,0.0,0.0,0.0,0.0,0.0,0.0,0.0,0.0,0.0,0.0,0.0,0.0,0.0,0.0,0.0,0.0,0.0,0.0,0.0,0.0,0.0,0.0,0.0,0.0,0.0,0.0,0.0,0.0,0.0,0.0,0.0,0.0,0.0,0.0,0.0,0.0,0.0,0.0,0.0,0.0,0.0,0.0,0.0,0.0,0.0,0.0,0.0,0.0,0.0,0.0,0.0,0.0,0.0,0.0,0.0,0.0,0.0,0.0,0.0,0.0,0.0,0.0,0.0,0.0,0.0,0.0,0.0,0.0,0.0,0.0,0.0,0.0,0.0,0.0,0.0,0.0,0.0,0.0,0.0,0.0,0.0,0.0,0.0,0.0,0.0,0.0,0.0,0.0,0.0,0.0,0.0,0.0,0.0,0.0,0.0,0.0,0.0,0.0,0.0,0.0,0.0,0.0,0.0,0.0,0.0,0.0,0.0,0.0,0.0,0.0,0.0,0.0,0.0,0.0,0.0,0.0,0.0,0.0,0.0,0.0,0.0,0.0,0.0,0.0,0.0,0.0,0.0,0.0,0.0,0.0,0.0,0.0,0.0,0.0,0.0,0.0,0.0,0.0,0.0,0.0,0.0,0.0,0.0,0.0,0.0,0.0,0.0,0.0,0.0,0.0,0.0,0.0,0.0,0.0,0.0,0.0,0.0,0.0,0.0,0.0,0.0,0.0,0.0,0.0,0.0,0.0,0.0,0.0,0.0,0.0,0.0,0.0,0.0,0.0,0.0,0.0,0.0,0.0,0.0,0.0,0.0,0.0,0.0,0.0,0.0,0.0,0.0,0.0,0.0,0.0,0.0,0.0,0.0,0.0,0.0,0.0,0.0,0.0,0.0,0.0,0.0,0.0,0.0,0.0,0.0,0.0,0.0,0.0,0.0,0.0,0.0,0.0,0.0,0.0,0.0,0.0,0.0,0.0,0.0,0.0,0.0,0.0,0.0,0.0,0.0,0.0,0.0,0.0,0.0,0.0,0.0,0.0,0.0,0.0,0.0,0.0,0.0,0.0,0.0,0.0,0.0,0.0,0.0,0.0,0.0,0.0,0.0,0.0,0.0,0.0,0.0,0.0,0.0,0.0,0.0,0.0,0.0,0.0,0.0,0.0,0.0,0.0,0.0,0.0,0.0,0.0,0.0,0.0,0.0,0.0,0.0,0.0,0.0,0.0,0.0,0.0,0.0,0.0,0.0,0.0,0.0,0.0,0.0,0.0,0.0,0.0,0.0,0.0,0.0,0.0,0.0,0.0,0.0,0.0,0.0,0.0,0.0,0.0,0.0,0.0,0.0,0.0,0.0,0.0,0.0,0.0,0.0,0.0,0.0,0.0,0.0,0.0,0.0,0.0,0.0,0.0,0.0,0.0,0.0,0.0,0.0,0.0,0.0,0.0,0.0,0.0,0.0,0.0,0.0,0.0,0.0,0.0,0.0,0.0,0.0,0.0,0.0,0.0,0.0,0.0,0.0,0.0,0.0,0.0,0.0,0.0,0.0,0.0,0.0,0.0,0.0,0.0,0.0,0.0,0.0,0.0,0.0,0.0,0.0,0.0,0.0,0.0,0.0,0.0,0.0,0.0,0.0,0.0,0.0,0.0,0.0,0.0,0.0,0.0,0.0,0.0,0.0,0.0,0.0,0.0,0.0,0.0,0.0,0.0,0.0,0.0,0.0,0.0,0.0,0.0,0.0,0.0,0.0,0.0,0.0,0.0,0.0,0.0,0.0,0.0,0.0,0.0,0.0,0.0,0.0,0.0,0.0,0.0,0.0,0.0,0.0,0.0,0.0,0.0,0.0,0.0,0.0,0.0,0.0,0.0,0.0,0.0,0.0,0.0,0.0,0.0,0.0,0.0,0.0,0.0,0.0,0.0,0.0,0.0,0.0,0.0,0.0,0.0,0.0,0.0,0.0,0.0,0.0,0.0,0.0,0.0,0.0,0.0,0.0,0.0,0.0,0.0,0.0,0.0,0.0,0.0,0.0,0.0,0.0,0.0,0.0,0.0,0.0,0.0,0.0,0.0,0.0,0.0,0.0,0.0,0.0,0.0,0.0,0.0,0.0,0.0,0.0,0.0,0.0,0.0,0.0,0.0,0.0,0.0,0.0,0.0,0.0,0.0,0.0,0.0,0.0,0.0,0.0,0.0,0.0,0.0,0.0,0.0,0.0,0.0,0.0,0.0,0.0,0.0,0.0,0.0,0.0,0.0,0.0,0.0,0.0,0.0,0.0,0.0,0.0,0.0,0.0,0.0,0.0,0.0,0.0,0.0,0.0,0.0,0.0,0.0,0.0,0.0,0.0,0.0,0.0,0.0,0.0,0.0,0.0,0.0,0.0,0.0,0.0,0.0,0.0,0.0,0.0,0.0,0.0,0.0,0.0,0.0,0.0,0.0,0.0,0.0,0.0,0.0,0.0,0.0,0.0,0.0,0.0,0.0,0.0,0.0,0.0,0.0,0.0,0.0,0.0,0.0,0.0,0.0,0.0,0.0,0.0,0.0,0.0,0.0,0.0,0.0,0.0,0.0,0.0,0.0,0.0,0.0,0.0,0.0,0.0,0.0,0.0,0.0,0.0,0.0,0.0,0.0,0.0,0.0,0.0,0.0,0.0,0.0,0.0,0.0,0.0,0.0,0.0,0.0,0.0,0.0,0.0,0.0,0.0,0.0,0.0,0.0,0.0,0.0,0.0,0.0,0.0,0.0,0.0,0.0,0.0,0.0,0.0,0.0,0.0,0.0,0.0,0.0,0.0,0.0,0.0,0.0,0.0,0.0,0.0,0.0,0.0,0.0,0.0,0.0,0.0,0.0,0.0,0.0,0.0,0.0,0.0,0.0,0.0,0.0,0.0,0.0,0.0,0.0,0.0,0.0,0.0,0.0,0.0,0.0,0.0,0.0,0.0,0.0,0.0,0.0,0.0,0.0,0.0,0.0,0.0,0.0,0.0,0.0,0.0,0.0,0.0,0.0,0.0,0.0,0.0,0.0,0.0,0.0,0.0,0.0,0.0,0.0,0.0,0.0,0.0,0.0,0.0,0.0,0.0,0.0,0.0,0.0,0.0,0.0,0.0,0.0,0.0,0.0,0.0,0.0,0.0,0.0,0.0,0.0,0.0,0.0,0.0,0.0,0.0,0.0,0.0,0.0,0.0,0.0,0.0,0.0,0.0,0.0,0.0,0.0,0.0,0.0,0.0,0.0,0.0,0.0,0.0,0.0,0.0,0.0,0.0,0.0,0.0,0.0,0.0,0.0,0.0,0.0,0.0,0.0,0.0,0.0,0.0,0.0,0.0,0.0,0.0,0.0,0.0,0.0,0.0,0.0,0.0,0.0,0.0,0.0,0.0,0.0,0.0,0.0,0.0,0.0,0.0,0.0,0.0,0.0,0.0,0.0,0.0,0.0,0.0,0.0,0.0,0.0,0.0,0.0,0.0,0.0,0.0,0.0,0.0,0.0,0.0,0.0,0.0,0.0,0.0,0.0,0.0,0.0,0.0,0.0,0.0,0.0,0.0,0.0,0.0,0.0,0.0,0.0,0.0,0.0,0.0,0.0,0.0,0.0,0.0,0.0,0.0,0.0,0.0,0.0,0.0,0.0,0.0,0.0,0.0,0.0,0.0,0.0,0.0,0.0,0.0,0.0,0.0,0.0,0.0,0.0,0.0,0.0,0.0,0.0,0.0,0.0,0.0,0.0,0.0,0.0,0.0,0.0,0.0,0.0,0.0,0.0,0.0,0.0,0.0,0.0,0.0,0.0,0.0,0.0,0.0,0.0,0.0,0.0,0.0,0.0,0.0,0.0,0.0,0.0,0.0,0.0,0.0,0.0,0.0,0.0,0.0,0.0,0.0,0.0,0.0,0.0,0.0,0.0,0.0,0.0,0.0,0.0,0.0,0.0,0.0,0.0,0.0,0.0,0.0,0.0,0.0,0.0,0.0,0.0,0.0,0.0,0.0,0.0,0.0,0.0,0.0,0.0,0.0,0.0,0.0,0.0,0.0,0.0,0.0,0.0,0.0,0.0,0.0,0.0,0.0,0.0,0.0,0.0,0.0,0.0,0.0,0.0,0.0,0.0,0.0,0.0,0.0,0.0,0.0,0.0,0.0,0.0,0.0,0.0,0.0,0.0,0.0,0.0,0.0,0.0,0.0,0.0,0.0,0.0,0.0,0.0,0.0,0.0,0.0,0.0,0.0,0.0,0.0,0.0,0.0,0.0,0.0,0.0,0.0,0.0,0.0,0.0,0.0,0.0,0.0,0.0,0.0,0.0,0.0,0.0,0.0,0.0,0.0,0.0,0.0,0.0,0.0,0.0,0.0,0.0,0.0,0.0,0.0,0.0,0.0,0.0,0.0,0.0,0.0,0.0,0.0,0.0,0.0,0.0,0.0,0.0,0.0,0.0,0.0,0.0,0.0,0.0,0.0,0.0,0.0,0.0,0.0,0.0,0.0,0.0,0.0,0.0,0.0,0.0,0.0,0.0,0.0,0.0,0.0,0.0,0.0,0.0,0.0,0.0,0.0,0.0,0.0,0.0,0.0,0.0,0.0,0.0,0.0,0.0,0.0,0.0,0.0,0.0,0.0,0.0,0.0,0.0,0.0,0.0,0.0,0.0,0.0,0.0,0.0,0.0,0.0,0.0,0.0,0.0,0.0,0.0,0.0,0.0,0.0,0.0,0.0,0.0,0.0,0.0,0.0,0.0,0.0,0.0,0.0,0.0,0.0,0.0,0.0,0.0,0.0,0.0,0.0,0.0,0.0,0.0,0.0,0.0,0.0,0.0,0.0,0.0,0.0,0.0,0.0,0.0,0.0,0.0,0.0,0.0,0.0,0.0,0.0,0.0,0.0,0.0,0.0,0.0,0.0,0.0,0.0,0.0,0.0,0.0,0.0,0.0,0.0,0.0,0.0,0.0,0.0,0.0,0.0,0.0,0.0,0.0,0.0,0.0,0.0,0.0,1.2602,0.0,0.0,0.0,0.0,0.0,0.0,0.0,0.0,0.0,0.0,0.0,0.0,0.0,0.0,0.0,0.0,0.0,0.0,0.0,0.0,0.0,0.0,0.0,0.0,1.2625,1.2986,1.2973,1.2986,1.2919,1.2835,0.0,0.0,0.0,0.0,0.0,1.2518,1.2665,1.3039,1.3627,1.4055,1.4865,1.6048,1.6169,1.5524,1.4295,0.0,0.0,0.0,0.0,0.0,0.0,0.0,0.0,0.0,0.0,0.0,0.0,0.0,0.0,0.0,0.0,0.0,0.0,0.0,0.0,0.0,0.0,0.0,0.0,0.0,0.0,0.0,0.0,0.0,0.0,0.0,0.0,0.0,0.0,0.0,0.0,0.0,0.0,0.0,0.0,0.0,0.0,0.0,0.0,0.0,0.0,0.0,0.0,0.0,0.0,0.0,0.0,0.0,0.0,0.0,0.0,0.0,0.0,0.0,0.0,0.0,0.0,0.0,0.0,0.0,0.0,0.0,0.0,0.0,0.0,0.0,1.323,0.0,0.0,0.0,0.0,0.0,0.0,0.0,0.0,0.0,0.0,0.0,0.0,0.0,0.0,0.0,0.0,0.0,0.0,0.0,0.0,0.0,1.1543,1.1837,1.2472,1.2893,1.3253,1.2999,1.2903,1.2903,1.2545,1.2358,1.2305,1.2305,1.2412,1.2741,1.2973,1.3494,1.4242,1.5378,1.6733,1.84,1.8642,1.7649,1.5591,0.0,0.0,0.0,0.0,0.0,0.0,0.0,0.0,0.0,0.0,0.0,0.0,0.0,0.0,0.0,0.0,0.0,0.0,0.0,0.0,0.0,0.0,0.0,0.0,0.0,0.0,0.0,0.0,0.0,0.0,0.0,0.0,0.0,0.0,0.0,0.0,0.0,0.0,0.0,0.0,0.0,0.0,0.0,0.0,0.0,0.0,0.0,0.0,0.0,0.0,0.0,0.0,0.0,0.0,0.0,0.0,0.0,0.0,0.0,0.0,0.0,0.0,0.0,0.0,1.5977,1.594,1.594,1.5891,1.5822,1.5789,1.5704,1.5221,1.4485,1.4171,0.0,0.0,0.0,0.0,0.0,0.0,0.0,0.0,0.0,0.0,0.0,0.0,0.0,0.0,0.0,0.0,0.0,0.0,0.0,1.1543,1.1837,1.2472,1.2973,1.3534,1.332,1.3146,1.3146,1.2866,1.2572,1.2318,1.2305,1.2318,1.2358,1.2652,1.3561,1.4843,1.7021,1.8571,1.9636,1.9853,1.996,1.98,1.8303,0.0,0.0,0.0,0.0,0.0,0.0,0.0,0.0,0.0,0.0,0.0,0.0,0.0,0.0,0.0,0.0,0.0,0.0,0.0,0.0,0.0,0.0,0.0,0.0,0.0,0.0,0.0,0.0,0.0,0.0,0.0,0.0,0.0,0.0,0.0,0.0,0.0,0.0,0.0,0.0,0.0,0.0,0.0,1.297,1.3748,0.0,0.0,0.0,0.0,0.0,0.0,0.0,0.0,0.0,0.0,0.0,0.0,0.0,1.5531,1.5089,1.7051,1.8223,1.863,1.9179,1.9434,1.9044,1.8804,1.8713,1.8529,1.807,0.0,1.5306,1.4811,0.0,0.0,0.0,0.0,0.0,0.0,0.0,0.0,0.0,0.0,0.0,0.0,0.0,0.0,0.0,0.0,0.0,0.0,0.0,0.0,0.0,1.3534,1.4656,1.5084,1.5925,1.5925,1.4763,1.4549,1.3908,1.2612,1.2385,1.2465,1.2799,1.3093,1.4549,1.7194,1.972,2.1531,2.2552,2.305,2.3413,2.3633,2.2378,2.0722,1.8905,1.7796,0.0,0.0,0.0,0.0,0.0,0.0,0.0,0.0,0.0,0.0,0.0,0.0,0.0,0.0,0.0,0.0,0.0,0.0,0.0,0.0,0.0,0.0,0.0,0.0,0.0,0.0,0.0,0.0,0.0,0.0,0.0,0.0,0.0,0.0,0.0,0.0,0.0,0.0,0.0,1.2705,1.3761,1.3828,1.4174,1.3811,0.0,0.0,0.0,0.0,0.0,0.0,0.0,0.0,0.0,1.6407,1.7368,1.7968,1.8058,1.9447,2.042,2.0716,2.0993,2.1121,2.0976,2.0598,2.041,2.0355,1.9698,1.8855,1.7865,1.6585,1.5535,1.4642,0.0,0.0,0.0,0.0,1.2395,1.2615,0.0,0.0,0.0,0.0,0.0,0.0,0.0,0.0,0.0,0.0,0.0,0.0,1.312,1.5044,1.6553,1.7235,1.829,1.8237,1.662,1.5939,1.4856,1.316,1.2585,1.2545,1.308,1.4269,1.654,1.9933,2.2285,2.4071,2.5175,2.5698,2.6047,2.6411,2.5577,2.3527,2.0641,1.9519,1.8196,0.0,0.0,0.0,0.0,0.0,0.0,0.0,0.0,0.0,0.0,0.0,0.0,0.0,0.0,0.0,0.0,0.0,0.0,0.0,0.0,0.0,0.0,0.0,0.0,0.0,0.0,0.0,0.0,0.0,0.0,0.0,0.0,0.0,0.0,0.0,0.0,0.0,0.0,1.3627,1.4576,1.4148,1.5391,1.547,0.0,0.0,0.0,0.0,0.0,0.0,1.7007,1.7408,1.809,1.9132,2.0027,2.0695,2.1136,2.1819,2.2264,2.2474,2.2341,2.2166,2.223,2.1747,2.143,2.1278,2.0804,2.04,1.9953,1.8215,1.6839,1.5753,1.5065,1.4229,1.3469,1.4076,1.4276,1.4286,0.0,0.0,0.0,0.0,0.0,0.0,0.0,0.0,0.0,0.0,0.0,1.3454,1.5431,1.6754,1.8183,1.988,1.9359,1.8758,1.8384,1.6259,1.471,1.4041,1.2919,1.2452,1.2835,1.6366,1.9693,2.2659,2.4209,2.5558,2.6694,2.6734,2.6907,2.7161,2.6854,2.5838,2.4209,2.1657,2.0187,1.9372,0.0,0.0,0.0,0.0,0.0,0.0,0.0,0.0,0.0,0.0,0.0,0.0,0.0,0.0,0.0,0.0,0.0,0.0,0.0,0.0,0.0,0.0,0.0,0.0,0.0,0.0,0.0,0.0,0.0,0.0,0.0,0.0,0.0,0.0,0.0,0.0,0.0,0.0,0.0,1.5311,1.7341,0.0,0.0,0.0,0.0,1.6467,1.6847,1.7675,1.9132,1.9746,2.0708,2.2151,2.3073,2.3567,2.3594,2.3928,2.4102,2.4115,2.3418,2.3001,2.2955,2.2269,2.1713,2.1438,2.1426,2.1124,2.0521,1.9157,1.8263,1.7636,1.6585,1.6006,1.5741,1.5499,1.591,1.6585,0.0,0.0,0.0,0.0,0.0,1.0618,1.0618,1.0618,1.0701,1.1089,1.2919,1.4736,1.6233,1.8971,2.1189,2.2405,2.2913,2.2552,2.1109,1.8811,1.7154,1.6366,1.4482,1.4389,1.6393,1.9265,2.1724,2.3728,2.5772,2.7081,2.7682,2.807,2.8203,2.811,2.7816,2.7068,2.5905,2.3834,2.1951,2.0214,1.8504,1.6901,0.0,0.0,0.0,0.0,0.0,0.0,0.0,0.0,0.0,0.0,0.0,0.0,0.0,0.0,0.0,0.0,0.0,0.0,0.0,0.0,0.0,0.0,0.0,0.0,0.0,0.0,0.0,0.0,0.0,0.0,0.0,0.0,0.0,0.0,0.0,0.0,0.0,1.7341,1.9132,0.0,1.825,1.8397,1.8691,1.8958,1.9599,2.0548,2.1844,2.2298,2.3006,2.4102,2.4449,2.4703,2.489,2.481,2.477,2.477,2.4316,2.3943,2.3593,2.3197,2.2618,2.2165,2.1874,2.1523,2.116,2.0678,1.9857,1.8831,1.8106,1.7877,1.7925,1.7829,1.8094,1.8481,0.0,0.0,0.0,0.0,0.0,1.0618,1.0618,1.0712,1.1022,1.1917,1.4095,1.6339,1.841,2.1349,2.3607,2.4703,2.5144,2.4529,2.2552,2.0134,1.8237,1.7048,1.5698,1.6393,1.9452,2.1537,2.35,2.5384,2.7041,2.8056,2.8457,2.8858,2.8885,2.8591,2.839,2.7856,2.7028,2.5665,2.3728,2.1456,2.0067,1.8517,1.6847,0.0,0.0,0.0,0.0,0.0,0.0,0.0,0.0,0.0,0.0,0.0,0.0,0.0,0.0,0.0,0.0,0.0,0.0,0.0,0.0,0.0,0.0,0.0,0.0,0.0,0.0,0.0,0.0,0.0,0.0,0.0,0.0,0.0,0.0,0.0,1.8477,1.8878,2.0668,2.143,2.0361,2.0521,2.0909,2.139,2.2058,2.2873,2.3861,2.4195,2.4676,2.5358,2.5464,2.5571,2.5665,2.5371,2.5184,2.5077,2.4634,2.4193,2.3735,2.3451,2.2805,2.219,2.2068,2.1704,2.1221,2.1402,2.0847,1.9833,1.9483,1.935,1.9362,1.9446,1.9591,1.9724,0.0,0.0,0.0,0.0,0.0,1.0618,1.0618,1.0808,1.173,1.3774,1.5631,1.8196,2.1977,2.3781,2.5291,2.672,2.5772,2.4342,2.2579,1.996,1.7702,1.5965,1.6513,1.837,2.159,2.31,2.5117,2.7709,2.8016,2.847,2.9058,2.9058,2.8911,2.8617,2.8617,2.827,2.7655,2.7094,2.5518,2.326,2.1483,2.0214,1.9158,0.0,0.0,0.0,0.0,0.0,0.0,0.0,0.0,0.0,0.0,0.0,0.0,0.0,0.0,0.0,0.0,0.0,0.0,0.0,0.0,0.0,0.0,0.0,0.0,0.0,0.0,0.0,0.0,0.0,0.0,0.0,0.0,0.0,1.5057,1.7849,1.988,1.9933,2.1991,2.306,2.2178,2.2886,2.3514,2.3821,2.4102,2.4516,2.509,2.5371,2.5651,2.5932,2.6213,2.6226,2.5945,2.5651,2.5371,2.509,2.4337,2.3735,2.3438,2.3005,2.2423,2.1535,2.2042,2.1667,2.0762,2.1293,2.1185,2.069,2.0678,2.0364,1.9941,2.0195,2.0279,2.0231,0.0,0.0,0.0,1.0618,1.0618,1.0618,1.0618,1.0808,1.1503,1.301,1.5965,1.8971,2.151,2.4436,2.656,2.7388,2.6186,2.4823,2.3487,2.012,1.7943,1.7435,1.9212,2.1443,2.4048,2.513,2.644,2.8016,2.8537,2.8991,2.9366,2.9579,2.9406,2.8925,2.8925,2.847,2.7682,2.7522,2.672,2.5371,2.3394,2.1683,2.0174,0.0,0.0,0.0,0.0,0.0,0.0,0.0,0.0,0.0,0.0,0.0,0.0,0.0,0.0,0.0,0.0,0.0,0.0,0.0,0.0,0.0,0.0,0.0,0.0,0.0,0.0,0.0,0.0,0.0,0.0,0.0,1.6019,1.7809,1.8116,2.0027,2.179,2.2859,2.4315,2.505,2.4583,2.477,2.5037,2.5331,2.5424,2.5638,2.6012,2.5705,2.5545,2.5625,2.5705,2.5718,2.5638,2.5558,2.5478,2.5384,2.4727,2.4193,2.3896,2.3438,2.2917,2.2497,2.2347,2.209,2.1836,2.1981,2.1728,2.1221,2.0822,2.0581,2.046,2.0533,2.0315,1.9929,0.0,0.0,0.0,1.0618,1.0618,1.0618,1.0618,1.0915,1.177,1.3534,1.67,1.9826,2.2378,2.5037,2.6827,2.7295,2.6106,2.4462,2.2418,1.9626,1.8424,1.951,2.1477,2.3561,2.5715,2.6706,2.7575,2.8524,2.8991,2.9379,2.9673,2.9833,2.9673,2.9219,2.9098,2.8684,2.8056,2.7802,2.7894,2.7908,2.554,2.3701,2.2205,2.0935,1.996,1.9158,1.8504,1.8156,1.7809,1.65,0.0,0.0,0.0,0.0,0.0,0.0,0.0,0.0,0.0,0.0,0.0,0.0,0.0,0.0,0.0,0.0,0.0,0.0,0.0,0.0,0.0,0.0,0.0,0.0,1.813,2.0201,2.1243,2.2271,2.3367,2.4609,2.5464,2.5932,2.5892,2.5879,2.5959,2.6119,2.6253,2.6333,2.6386,2.6172,2.5892,2.5518,2.5745,2.5758,2.5518,2.5518,2.5571,2.5692,2.4983,2.4407,2.4214,2.3651,2.3016,2.2521,2.2189,2.1909,2.1607,2.1716,2.151,0.0,0.0,0.0,0.0,0.0,2.04,1.9989,0.0,0.0,0.0,1.0618,1.0618,1.0618,1.0618,1.1049,1.2278,1.4656,1.7502,2.0508,2.3661,2.5344,2.636,2.6653,2.5518,2.3487,2.0428,1.8958,1.9273,2.1833,2.3157,2.4784,2.6799,2.7673,2.8484,2.9085,2.9352,2.9633,2.9913,2.9913,2.9766,2.9472,2.9179,2.8871,2.8906,2.8325,2.9033,3.038,2.8109,2.6262,2.4837,2.3174,2.2335,2.2046,2.1067,2.013,1.9181,1.8672,0.0,0.0,0.0,0.0,0.0,0.0,0.0,0.0,0.0,0.0,0.0,0.0,0.0,0.0,0.0,0.0,0.0,0.0,0.0,0.0,0.0,0.0,0.0,0.0,2.0214,2.2098,2.4075,2.4409,2.473,2.5478,2.5825,2.6106,2.636,2.6386,2.6386,2.6386,2.6653,2.6694,2.64,0.0,0.0,0.0,0.0,2.6039,2.5518,2.5545,2.5692,2.5945,2.513,2.4701,2.4462,2.3753,2.305,2.2281,2.2093,2.1486,2.0822,2.1052,2.0979,2.0762,2.1209,2.1088,2.0665,2.0605,2.0436,2.0195,0.0,0.0,1.0618,1.0618,1.0618,1.0618,1.0618,1.1049,1.2278,1.4656,1.7328,1.9973,2.2485,2.4302,2.5451,2.5745,2.4022,2.2164,2.0347,1.9533,2.0347,2.3278,2.4262,2.5732,2.7848,2.8243,2.8804,2.9392,2.9459,2.9633,2.9913,2.9913,2.9766,2.9472,2.9179,2.9549,3.0735,3.036,3.1033,3.2373,3.1864,3.0015,2.73,2.6431,2.5736,2.5447,2.626,2.6643,2.6581,2.4806,2.3288,2.1803,2.0406,0.0,0.0,0.0,0.0,0.0,0.0,0.0,0.0,0.0,0.0,0.0,0.0,0.0,0.0,0.0,0.0,0.0,0.0,0.0,0.0,1.9811,2.179,2.3728,2.5064,2.5665,2.5945,2.5879,2.6132,2.6333,2.6386,2.6386,2.6386,2.6386,2.6653,2.6694,2.64,2.6226,2.5932,2.5531,2.5625,2.5625,2.5518,2.5745,2.5905,2.5959,0.0,0.0,2.4927,2.4109,2.3604,2.3138,2.246,2.1981,2.1643,2.1691,2.1426,2.0979,2.0871,2.0762,2.0617,2.0195,2.0002,1.9893,0.0,1.0618,1.0618,1.0618,1.0618,1.0618,1.0618,1.0929,1.1904,1.3828,1.6259,1.8651,2.0869,2.2031,2.2779,2.306,2.1336,2.0416,2.0699,2.0994,2.243,2.513,2.6216,2.7189,2.8244,2.8829,2.9112,2.9259,2.9553,2.978,2.9913,2.9913,2.9847,2.9686,3.0093,3.0894,3.171,3.2221,3.3391,3.4701,3.3694,3.2666,3.1644,3.005,2.9164,2.8966,2.9345,2.9296,2.8782,2.7619,2.5767,2.3688,2.3022,2.0398,1.7351,0.0,0.0,0.0,0.0,0.0,0.0,0.0,0.0,0.0,0.0,0.0,0.0,0.0,0.0,1.8863,1.9056,0.0,2.192,2.278,2.368,2.4556,2.5585,2.6119,2.6333,2.6186,2.6426,2.6547,2.64,2.652,2.6547,2.64,2.68,2.6854,2.6413,2.6386,2.6119,2.5531,2.5798,2.5812,2.5518,2.5812,2.6026,2.6172,2.5718,2.5438,2.5291,2.4389,2.3705,2.329,2.2411,2.1993,2.1848,2.1571,2.1233,2.0847,2.0726,2.0665,2.0641,2.0376,2.0195,2.0026,0.0,0.0,1.0618,1.0618,1.0577,1.0488,1.0618,1.0808,1.153,1.3013,1.5057,1.7061,1.8918,1.9426,1.9666,1.9733,1.8798,1.9058,2.1149,2.2511,2.4228,2.685,2.7703,2.8318,2.8465,2.9138,2.9392,2.9205,2.9686,2.9913,2.9913,2.986,2.986,2.9887,3.0845,3.1757,3.2872,3.3782,3.5312,3.6886,3.5422,3.5198,3.5852,3.3759,3.2642,3.2113,3.1759,3.0809,2.9543,2.9369,2.7366,2.5006,2.5133,2.3073,2.0061,1.8198,1.7238,0.0,0.0,0.0,0.0,0.0,0.0,0.0,0.0,0.0,1.8331,2.0083,2.1362,2.2549,2.3677,2.3763,2.4097,2.5672,2.5347,2.5157,2.5932,2.6293,2.6453,2.64,2.664,2.6707,2.6413,2.6653,2.6707,2.6413,2.6881,2.6947,2.6413,2.6667,2.6466,2.5705,2.6146,2.6159,2.5692,2.5919,2.6159,2.6386,2.5905,2.5651,2.5585,2.4531,2.3794,2.3353,2.2239,2.18,2.1752,2.1209,2.0859,2.0665,2.0665,2.0665,2.0665,2.0665,2.0472,2.0171,0.0,0.0,0.0,1.0618,1.0341,1.0261,1.0514,1.0808,1.153,1.3013,1.4349,1.5551,1.6553,1.7168,1.7194,1.6433,1.7876,1.9466,2.0962,2.2939,2.4957,2.7149,2.803,2.8657,2.8885,2.9285,2.9593,2.982,2.9887,2.9913,2.9913,2.9659,2.9673,2.9887,2.9474,3.1253,3.4611,3.4387,3.6041,3.8886,3.8688,3.8218,3.7649,3.704,3.5704,3.4145,3.4444,3.3477,3.224,3.2186,3.0188,2.7723,2.7821,2.6166,2.3684,2.1011,0.0,1.8292,1.5328,1.4516,1.4603,1.4919,1.6816,1.8801,0.0,0.0,2.2905,2.3438,2.5427,2.6935,2.6346,2.7057,2.7647,2.7348,2.6432,2.5932,2.6293,2.6587,2.668,2.6413,2.664,2.6707,2.6413,2.6653,2.6707,2.6413,2.6694,2.6734,2.6413,2.6667,2.6653,2.6306,2.636,2.636,2.6293,2.6319,2.636,2.6386,2.6319,2.6159,2.5892,2.4829,2.4087,2.3782,2.2276,2.1523,2.1474,2.0943,2.069,2.0665,2.0665,2.0665,2.0665,2.0665,2.0352,1.9929,0.0,0.0,0.0,1.0009,1.0197,1.0421,1.0604,1.0725,1.1089,1.2051,1.2893,1.3761,1.4643,1.4816,1.4496,1.3601,1.5885,1.8332,2.0563,2.3063,2.5523,2.7757,2.8547,2.8751,2.8524,2.9312,2.9633,2.9406,2.9753,2.9833,2.9659,2.9713,3.0219,3.1373,3.2149,3.4095,3.6991,3.7638,3.8749,3.9942,3.9685,3.9098,3.8255,3.7136,3.5718,3.434,3.3502,3.2386,0.0,0.0,2.9013,2.7484,2.8359,2.605,2.2895,2.1712,1.998,0.0,1.7147,0.0,0.0,0.0,2.0397,2.2641,2.3973,2.5277,2.6576,2.7782,2.9172,3.0277,3.0355,3.0157,2.9928,0.0,2.8188,2.692,2.6477,2.6346,2.6213,2.5919,2.5838,2.5825,2.5879,2.6453,2.656,2.5919,2.6466,2.6694,2.64,2.6507,2.652,2.6386,2.6386,2.6386,2.6386,2.6386,2.6386,2.6386,2.6386,2.6146,2.5705,2.4972,2.4124,2.3228,2.2129,2.1619,2.1462,2.1233,2.0955,2.069,2.0834,2.0798,2.0665,2.0665,2.034,1.9881,0.0,0.0,0.0,0.9869,1.0238,1.0555,1.0364,1.0491,1.0715,1.1129,1.1623,1.2184,1.2839,1.2652,1.2251,1.1677,1.4255,1.6975,1.9603,2.2633,2.5429,2.7744,2.852,2.8711,2.8283,2.9192,2.9472,2.9045,2.9472,2.9566,2.9366,2.9579,3.0641,3.2396,3.3594,3.5628,3.8271,3.921,3.983,4.0088,3.9685,3.8896,3.7796,3.6164,3.4385,3.2588,3.1433,3.0094,0.0,0.0,2.6524,2.5787,2.6843,2.5116,2.2576,2.2031,1.9935,1.7954,1.8675,0.0,0.0,2.1377,2.3624,2.5864,2.7159,2.8395,2.9582,3.1157,3.1928,3.2588,3.3395,3.2261,3.1361,3.1218,2.9394,2.7611,2.6845,2.6498,2.6017,2.5197,2.5175,2.5133,2.4663,2.5745,2.6226,2.5678,2.6293,2.6613,2.64,2.6386,2.6386,2.6386,2.6386,2.6386,2.6386,2.6306,2.6306,2.6386,2.6306,2.6092,2.5758,2.4868,2.3816,2.2512,2.2066,2.1764,2.1583,2.1426,2.1136,2.0786,2.0907,2.0834,2.0665,2.0665,2.0388,1.9989,0.0,0.0,0.0,0.0,1.0555,1.0364,0.9652,1.0174,1.0631,1.0645,1.0848,1.1049,1.1076,1.0808,1.0742,1.0995,1.3467,1.5872,1.7929,2.1657,2.4583,2.6346,2.7843,2.8604,2.8591,2.8898,2.9058,2.9045,2.9058,2.9058,2.9058,2.9058,3.0239,3.2222,3.2396,3.4455,3.7724,3.7707,3.8293,3.9226,3.8841,3.7723,3.6109,3.4495,3.1671,2.8572,2.8517,0.0,0.0,0.0,2.2701,2.2975,2.2648,2.3487,0.0,2.2281,1.9933,1.8288,0.0,0.0,2.0832,2.2527,2.5648,2.8419,2.8811,3.0419,3.2166,3.2991,3.3175,3.3431,3.422,3.3056,3.2032,3.2458,2.9837,2.7754,2.7784,2.7343,2.6481,2.4448,2.5242,2.4958,0.0,2.4356,2.5665,2.5919,2.6226,2.64,2.6386,2.6386,2.6386,2.6386,2.6386,2.6386,2.6386,2.6106,2.6106,2.6386,2.6106,2.6106,2.6346,2.4998,2.3529,2.2259,2.1993,2.1873,2.1824,2.1293,2.1064,2.1028,2.0774,2.0678,2.0665,2.0665,2.0496,2.0231,0.0,0.0,0.0,0.0,0.0,1.0364,0.9588,1.011,1.0618,1.0618,1.0712,0.0,0.0,0.0,0.0,0.0,1.2532,1.4456,1.6714,1.9907,2.2592,2.4569,2.68,2.7909,2.7722,2.8591,2.8951,2.8751,2.8951,2.8938,2.8764,2.8951,3.0493,3.3429,3.3661,3.5804,3.9174,3.8904,3.9123,3.9483,3.7741,3.6696,3.5834,3.2331,2.9415,2.6811,0.0,0.0,0.0,2.0171,2.0039,2.0374,2.1207,2.1346,2.0851,1.9366,1.9616,2.0674,0.0,0.0,2.5613,2.7089,2.9274,3.1267,3.1673,3.2538,3.3211,3.323,3.1928,3.0974,3.1506,3.0574,2.9718,3.0037,2.9501,2.8664,2.7894,2.6736,2.5442,2.4058,2.3705,0.0,0.0,0.0,0.0,2.4783,2.5611,2.6186,2.6373,2.6386,2.6386,2.6386,2.6386,2.6386,2.6386,2.6293,2.6293,2.6386,2.5892,2.5564,2.5321,2.4289,2.3417,2.279,2.2202,2.1776,2.1595,2.1414,2.1124,2.081,2.0895,2.0822,2.0665,2.0665,2.0617,2.0496,0.0,0.0,0.0,0.0,0.0,0.0,0.0,0.0,0.0,0.0,0.0,0.0,0.0,0.0,0.0,0.0,0.0,1.3253,1.5204,1.7595,1.9867,2.1951,2.3661,2.4623,2.4756,2.5504,2.6012,2.6239,2.6747,2.7121,2.7348,2.8234,3.0272,3.297,3.3661,3.5765,3.8511,3.7961,3.7704,3.7466,3.488,3.3486,3.2551,2.8517,2.5532,0.0,0.0,0.0,1.6305,1.6416,1.6937,1.7586,1.854,1.8879,1.8871,1.8797,2.0283,2.2318,2.4005,2.6298,2.8553,3.0075,3.1744,3.3065,3.3193,3.3523,3.3651,3.312,3.1286,2.9745,2.958,2.8572,2.7893,2.8429,2.8254,2.8114,2.8489,2.6922,2.5315,2.4512,2.3843,2.3292,0.0,0.0,0.0,2.4179,2.5187,2.5732,2.5919,2.6026,2.6172,2.6386,2.6386,2.6386,2.6386,2.6279,2.6186,2.6066,2.5798,2.5405,2.4736,2.3907,2.3229,2.2806,2.2214,2.1752,2.1341,2.1438,2.1209,2.081,2.0895,2.0822,2.0665,2.0665,2.0665,2.0629,0.0,0.0,0.0,0.0,0.0,0.0,0.0,0.0,0.0,0.0,0.0,0.0,0.0,0.0,0.0,0.0,0.0,0.0,1.3373,1.4923,1.6633,1.8637,1.8838,1.9292,2.012,2.0174,2.0735,2.1857,2.2712,2.3688,2.4796,2.6692,2.8612,3.0543,3.2093,3.39,3.5522,3.4755,3.3988,3.3193,3.0387,2.837,2.6664,2.34,0.0,0.0,0.0,0.0,0.0,1.2351,1.3621,1.4942,1.5036,1.6563,1.8705,2.0631,2.186,2.3272,2.6389,2.8205,2.9672,3.1616,3.2955,3.3688,3.3303,3.3468,3.3431,3.257,3.1029,2.9489,0.0,0.0,2.6609,2.7526,2.6601,2.6627,2.9372,2.7932,2.6417,0.0,0.0,0.0,0.0,0.0,0.0,2.4337,0.0,2.5117,2.5144,2.5411,2.5812,2.6373,2.6386,2.6386,2.6386,2.6106,2.5798,2.5491,2.5772,2.5458,2.4449,2.3996,2.3252,2.21,2.2165,2.18,2.11,2.1354,2.1293,2.1016,2.0762,2.0665,2.0665,2.0665,2.0653,2.0617,0.0,0.0,0.0,0.0,0.0,0.0,0.0,0.0,0.0,0.0,0.0,0.0,0.0,0.0,0.0,0.0,0.0,0.0,1.1944,1.3587,1.4963,1.5925,1.7662,1.8704,1.8931,1.9359,1.9733,2.004,2.0267,2.0535,2.0828,2.1352,2.252,2.4347,2.4687,2.5945,2.7504,2.7523,2.7615,2.7508,0.0,2.4706,2.3949,0.0,0.0,0.0,0.0,0.0,0.0,0.0,0.0,0.0,0.0,2.0261,2.142,2.2245,2.4335,2.6628,2.7783,3.0075,3.2331,3.3156,3.3358,3.334,3.3248,3.2588,3.1524,2.9819,2.7215,2.4776,0.0,0.0,0.0,2.5986,2.7332,0.0,3.0292,2.9987,0.0,2.6523,0.0,2.7632,2.544,2.7402,0.0,0.0,2.5351,2.5598,2.6026,2.6132,2.6239,2.6386,2.6386,2.6386,2.6386,2.6106,2.5705,2.5197,2.5264,2.4953,2.4149,2.3702,2.329,2.2645,2.2141,2.174,2.1366,2.1221,2.1003,2.0762,2.069,2.0665,2.0665,2.0665,2.0545,2.0364,0.0,0.0,0.0,0.0,0.0,0.0,0.0,0.0,0.0,0.0,0.0,0.0,0.0,0.0,0.0,0.0,0.0,0.0,0.0,1.1984,1.2799,1.3387,1.4442,1.5124,1.5391,1.5712,1.6139,1.666,1.7048,1.7502,1.8009,1.878,1.9686,2.0636,2.1274,2.2201,2.3283,2.3066,2.2961,0.0,0.0,0.0,0.0,0.0,0.0,0.0,0.0,0.0,0.0,0.0,0.0,1.8667,2.1514,2.2985,2.3987,2.5656,0.0,2.9085,3.0204,3.1964,3.3486,3.3541,3.3395,3.29,3.1653,3.0699,2.9287,2.6573,2.4262,0.0,2.0173,2.0228,0.0,0.0,0.0,0.0,3.0513,3.0467,2.9986,0.0,2.9642,0.0,2.8769,3.0179,3.0308,0.0,2.7093,2.6212,2.5798,2.5932,2.6119,2.6386,2.6386,2.6333,2.6199,2.5905,2.5531,2.5077,2.5077,2.4767,2.4044,2.3587,2.2953,2.2323,2.1983,2.1523,2.0955,2.1028,2.1315,2.1609,2.1609,2.2022,2.2572,2.1885,2.1508,2.1245,0.0,0.0,0.0,0.0,0.0,0.0,0.0,0.0,0.0,0.0,1.0518,1.0618,0.0,0.0,0.0,0.0,0.0,0.0,0.0,0.0,1.0782,1.1154,1.0692,1.0601,1.1018,1.1031,1.1527,1.2544,1.3451,1.4335,1.5418,1.6973,1.7759,1.7759,1.9044,1.9777,2.0135,1.9488,1.904,1.8506,1.6436,0.0,0.0,0.0,0.0,0.0,0.0,0.0,0.0,0.0,1.9659,2.0184,2.3665,2.5433,2.6719,2.9544,3.0516,3.1047,3.2771,3.3541,3.3798,3.3395,3.3138,3.2276,2.9599,2.8425,2.6903,2.3363,0.0,2.0594,1.843,1.9036,2.0466,2.2355,0.0,2.7196,3.0401,3.057,3.0768,3.1966,3.1583,3.1439,3.2261,3.2115,3.2086,3.196,2.9595,2.751,2.5992,2.6088,2.6471,2.6675,2.6662,2.65,2.5905,2.5598,2.5304,2.5024,2.5024,2.4578,2.3896,2.36,2.2752,2.1815,2.1788,2.1293,2.046,2.0847,2.1697,2.2545,2.2682,2.3638,2.4602,2.3502,2.3065,2.2902,0.0,0.0,0.0,0.0,0.0,0.0,0.0,0.0,0.0,0.0,0.9993,1.0618,0.0,0.0,0.0,0.0,0.0,0.0,0.0,0.0,0.0,0.9851,0.9765,0.9496,0.8995,0.9006,0.9085,0.9332,1.0,1.0442,1.0697,1.1597,1.204,1.204,1.2303,1.247,1.2527,1.2877,1.3006,1.2916,1.3074,0.0,0.0,0.0,0.0,0.0,0.0,0.0,0.0,0.0,2.2017,2.3402,2.706,2.9148,3.0442,3.1029,3.2148,3.3193,3.323,3.3743,3.4202,3.3817,3.2716,3.1249,2.9397,2.7123,0.0,0.0,1.9769,1.8522,1.7752,1.8595,2.0503,2.3822,2.5821,2.786,3.0352,3.206,3.2991,0.0,3.3624,3.4128,3.2981,3.3839,0.0,0.0,3.1745,3.1334,3.0236,3.0329,2.9807,2.8544,2.8144,2.7241,2.5598,2.5304,2.501,2.4716,2.4716,2.4232,2.3451,2.3438,2.2917,2.2177,2.1691,0.0,2.1245,2.0883,2.0841,2.1207,2.2421,2.2956,2.3365,2.4317,2.4415,2.4052,0.0,0.0,0.0,0.0,0.0,0.0,0.0,0.8082,0.8337,0.8964,0.9535,0.9841,0.97,0.9544,0.9524,0.0,0.0,0.0,0.0,0.0,0.0,0.0,0.0,0.0,0.0,0.8484,0.0,0.0,0.0,0.9128,0.9524,0.0,0.0,1.0618,1.0618,1.0618,1.0618,1.0933,1.0996,1.0919,0.0,0.0,0.0,0.0,0.0,0.0,0.0,0.0,0.0,0.0,2.1518,2.4014,2.8509,3.0736,3.1744,3.1964,3.2735,3.3468,3.3285,3.3651,3.3908,3.3083,3.1818,2.9965,2.6866,0.0,0.0,0.0,1.7385,1.6725,1.6321,1.7587,0.0,2.241,2.4592,2.6958,2.9971,3.1828,3.3143,3.3923,3.5062,3.5501,0.0,3.4957,3.4687,3.3857,3.3624,3.2904,3.1405,3.13,3.0914,2.9824,2.9503,2.8867,2.7642,2.7467,2.7071,2.6925,2.6794,2.6357,2.5904,2.5611,2.5007,2.426,2.3977,2.3367,2.2806,2.2832,2.3201,2.3609,2.4727,2.5532,2.6203,2.6218,2.6111,2.5692,0.0,0.0,0.0,0.0,0.0,0.0,0.727,0.7514,0.7845,0.8768,0.8901,0.8824,0.8503,0.8518,0.8603,0.0,0.0,0.0,0.0,0.0,0.0,0.0,0.0,0.0,0.0,0.0,0.0,0.0,0.0,0.0,0.0,0.0,0.0,0.0,0.0,0.0,1.0301,1.0364,1.0364,0.0,0.0,0.0,0.0,0.0,0.0,0.0,0.0,0.0,0.0,0.0,2.0136,2.285,2.7508,3.0075,3.1414,3.1726,3.2423,3.3138,3.3413,3.3633,3.3541,3.2423,3.0974,2.8718,2.45,2.208,0.0,1.6376,1.5551,1.5441,1.5478,1.678,1.8614,0.0,2.2795,2.5282,2.904,3.0672,3.2321,0.0,3.5549,0.0,3.6483,3.5429,0.0,3.535,3.4919,3.3836,3.2472,3.2304,3.1988,3.1259,3.0824,3.0323,2.9743,2.9377,2.9202,2.9202,2.8788,2.8516,2.8068,2.7575,2.6831,2.6047,2.59,2.5198,2.4043,2.4759,2.5158,2.5654,2.6751,2.7833,2.8774,2.7965,2.7567,2.7169,0.0,0.0,0.0,0.0,0.0,0.0,0.6482,0.6854,0.7202,0.7635,0.7685,0.761,0.7343,0.8279,0.8822,0.0,0.0,0.0,0.0,0.0,0.0,0.0,0.0,0.0,0.0,0.0,0.0,0.0,0.0,0.0,0.0,0.0,0.0,0.0,0.0,0.0,0.0,0.0,0.0,0.0,0.0,0.0,0.0,0.0,0.0,0.0,0.0,0.0,0.0,0.0,0.0,1.9567,2.2263,2.5931,2.9269,2.9305,0.0,0.0,3.4,3.4055,3.3615,3.2753,3.0534,2.7691,2.4335,0.0,1.8742,1.6211,1.5111,1.5056,1.6468,1.689,0.0,0.0,0.0,2.2925,2.725,2.8969,3.0879,3.4008,0.0,0.0,3.6028,3.4621,3.4142,3.5032,3.5037,3.5175,3.57,3.541,3.4457,3.3055,3.2339,3.1226,2.9727,2.9377,2.9202,2.9202,2.8788,2.8516,2.8053,2.7335,2.6757,2.6369,2.5783,2.4989,0.0,2.4862,2.4613,2.4346,2.6355,2.7302,2.7567,2.8642,2.879,2.7981,0.0,0.0,0.0,0.0,0.0,0.0,0.6326,0.6635,0.7001,0.7577,0.7553,0.7456,0.7391,0.7729,0.7769,0.7306,0.0,0.0,0.0,0.0,0.0,0.0,0.0,0.0,0.0,0.0,0.635,0.621,0.6539,0.0,0.0,0.0,0.0,0.0,0.0,0.0,0.0,0.0,0.0,0.0,0.0,0.0,0.0,0.0,0.0,0.0,0.0,0.0,0.0,0.0,0.0,0.0,1.755,2.0008,0.0,0.0,2.7985,2.9947,3.1157,3.2276,3.2826,3.1781,2.9562,2.6811,2.3565,0.0,1.7972,1.579,1.4891,1.4854,1.5973,1.5973,1.6633,0.0,0.0,0.0,2.5245,2.6499,2.8465,3.2715,3.3554,0.0,0.0,0.0,3.3457,3.3927,3.3853,3.4403,3.5449,3.5357,3.4848,3.4001,3.3679,3.3127,3.2173,3.2017,3.1807,3.1666,3.126,3.096,3.0518,2.996,2.9498,2.9131,2.8615,2.7632,0.0,2.7229,2.689,2.5971,2.7784,2.851,2.851,2.9036,2.8922,2.813,0.0,0.0,0.0,0.0,0.0,0.5754,0.6116,0.6559,0.7033,0.7537,0.75,0.7305,0.718,0.6903,0.6561,0.6271,0.6348,0.0,0.0,0.0,0.0,0.0,0.0,0.0,0.0,0.0,0.6013,0.5815,0.5881,0.6079,0.0,0.0,0.0,0.0,0.0,0.0,0.0,0.0,0.0,0.0,0.0,0.0,0.0,0.0,0.0,0.0,0.0,0.0,0.0,0.0,0.0,0.0,0.0,0.0,0.0,0.0,2.4922,2.7325,2.8535,3.0424,3.1799,3.0699,2.8333,2.5527,0.0,0.0,1.7092,1.5294,1.4708,1.4708,1.5386,1.5386,1.5863,0.0,0.0,1.9463,2.3634,2.4864,2.6873,3.102,0.0,3.2652,0.0,3.3778,3.3521,3.3541,3.3468,3.3817,3.4788,3.4733,3.4587,3.4403,3.4293,3.4092,3.3817,3.3817,3.3678,3.3278,3.2841,3.2385,3.1617,3.1305,3.0909,3.0343,3.0172,2.9213,0.0,2.8888,2.8563,2.7535,2.8802,2.9316,2.9316,2.9316,2.879,2.7865,0.0,0.0,0.0,0.0,0.0,0.5142,0.5486,0.6479,0.722,0.7228,0.7064,0.6885,0.6416,0.5835,0.5519,0.5871,0.6211,0.0,0.0,0.0,0.0,0.0,0.0,0.0,0.0,0.0,0.5345,0.4815,0.4815,0.4683,0.435,0.435,0.4755,0.0,0.0,0.0,0.0,0.0,0.0,0.0,0.0,0.0,0.0,0.0,0.0,0.0,0.0,0.0,0.0,0.0,0.0,0.0,0.0,1.3086,1.3347,0.0,2.1915,2.5656,2.6866,2.8975,3.0607,2.9782,2.6866,2.3639,0.0,1.8632,1.5991,1.4763,1.4524,1.4634,1.5038,1.5423,1.6083,0.0,0.0,0.0,2.2612,2.4354,2.6435,0.0,0.0,3.1009,3.335,3.4102,3.4385,3.4385,3.4018,0.0,3.4385,3.4037,3.4,3.4385,3.4018,3.3817,3.3817,3.3817,3.3678,3.3278,3.2841,3.1961,3.0449,3.041,2.9847,2.8819,2.9179,2.8888,0.0,2.8991,2.8871,2.8254,2.9008,2.9316,2.9316,2.9316,2.8395,2.72,0.0,0.0,0.0,0.0,0.0,0.0,0.4855,0.5239,0.5637,0.5919,0.5795,0.5768,0.5845,0.5466,0.523,0.537,0.567,0.0,0.0,0.0,0.0,0.0,0.0,0.0,0.0,0.0,0.4146,0.3885,0.4013,0.3946,0.3756,0.4289,0.4622,0.4894,0.5292,0.0,0.0,0.0,0.0,0.0,0.0,0.0,0.0,0.0,0.0,0.0,0.0,0.0,0.0,0.0,0.0,0.0,0.0,0.0,0.0,1.4634,1.7499,2.0586,2.2519,2.4207,2.5307,2.4757,2.2923,2.0888,1.9402,1.7422,1.5625,1.4708,1.4506,1.4634,1.5019,1.5203,1.5863,0.0,0.0,0.0,0.0,0.0,0.0,2.9275,3.1394,3.285,0.0,0.0,3.3395,3.3963,3.3376,3.3285,3.3963,3.389,3.3872,3.4,3.3615,3.3413,3.3413,3.312,3.2848,3.2432,3.2294,3.156,3.0049,3.0549,3.0206,2.9162,2.9539,2.9282,2.8631,2.9111,2.8871,2.8271,2.9025,2.9316,2.9185,2.879,2.7834,2.6835,0.0,0.0,0.0,0.0,0.0,0.0,0.4163,0.4575,0.5005,0.5129,0.4972,0.4891,0.5102,0.4686,0.4505,0.481,0.4789,0.0,0.0,0.0,0.0,0.0,0.0,0.0,0.368,0.3476,0.3313,0.3113,0.3183,0.3115,0.3044,0.3452,0.3956,0.4489,0.4827,0.5484,0.0,0.0,0.0,0.0,0.0,0.0,1.0174,0.0,0.0,0.0,0.0,0.0,0.0,0.0,0.0,0.0,0.0,0.0,0.0,0.0,1.3999,1.597,1.8798,2.0676,2.1635,2.1228,1.9759,1.8276,1.7635,0.0,1.4782,1.4556,1.4744,1.4946,1.4891,1.5368,1.6101,1.7055,1.843,0.0,0.0,0.0,0.0,2.8388,0.0,0.0,0.0,3.323,3.3431,3.378,3.334,3.3285,3.378,3.3817,3.3817,3.3817,3.3431,3.323,3.323,3.2673,3.2196,3.1886,3.1749,3.0868,2.9504,3.0258,2.9967,2.8922,2.9453,2.9402,0.0,2.9213,2.9042,2.8665,2.9128,2.9316,2.9185,2.8527,2.7719,2.6719,0.0,0.0,0.0,0.0,0.0,0.0,0.0,0.4306,0.4894,0.4688,0.4444,0.4217,0.4252,0.3599,0.3496,0.417,0.3797,0.0,0.0,0.0,0.0,0.0,0.0,0.0,0.3476,0.2943,0.2545,0.2316,0.2276,0.221,0.2097,0.2136,0.282,0.4151,0.4284,0.508,0.0,0.0,0.0,0.0,0.9122,0.9494,0.0,0.0,0.0,0.0,0.0,0.0,0.0,0.0,0.0,0.0,0.0,0.0,0.0,0.0,0.0,0.0,0.0,1.7941,1.9179,1.8812,1.7268,1.5931,1.6199,1.4844,0.0,1.4459,1.5184,1.5478,1.4799,1.5955,1.6762,1.6028,1.854,0.0,0.0,2.2868,0.0,0.0,3.0082,0.0,3.1891,3.3395,3.4183,3.3762,3.378,3.3798,3.378,3.378,3.378,3.378,3.3358,3.3156,3.3175,3.2349,3.1846,3.1272,3.1038,3.0195,2.8734,2.9521,2.9282,0.0,2.8991,2.9316,2.9316,2.9282,2.9265,2.9265,2.9248,2.9248,2.9134,2.846,2.7668,2.6972,0.0,0.0,0.0,0.0,0.0,0.0,0.0,0.0,0.0,0.0,0.3467,0.347,0.3492,0.3318,0.3242,0.0,0.0,0.0,0.0,0.0,0.0,0.0,0.0,0.0,0.1073,0.0604,0.0473,0.0822,0.0828,0.0966,0.137,0.1932,0.2327,0.2683,0.3818,0.508,0.0,0.0,0.0,0.0,0.8687,0.9157,0.0,0.0,0.0,0.0,1.0555,1.0618,0.0,0.0,0.0,0.0,0.0,0.0,0.0,0.0,1.1185,1.108,1.2428,0.0,1.4171,1.409,1.3685,1.3477,0.0,1.3819,0.0,0.0,0.0,1.5826,1.6266,1.7165,1.788,1.799,0.0,2.1566,2.186,0.0,0.0,2.892,3.1524,3.2814,3.1212,3.2826,3.3651,3.2936,3.345,3.3688,3.3376,3.3358,3.3358,3.3358,3.2411,3.2041,3.2349,3.1643,3.0745,2.9812,3.0258,2.9657,2.7929,2.9282,2.9282,2.8237,2.8991,2.9316,2.9299,2.9008,2.8905,2.8871,2.858,2.8648,2.8742,2.7133,2.6695,2.6609,0.0,0.0,0.0,0.0,0.0,0.0,0.0,0.0,0.0,0.0,0.2244,0.2217,0.2217,0.2552,0.2552,0.0,0.0,0.0,0.0,0.0,0.0,0.0,0.0,0.0134,-0.0067,-0.0336,-0.0204,0.0349,0.0346,0.0622,0.1186,0.1518,0.184,0.2147,0.3618,0.4749,0.547,0.0,0.0,0.0,0.7856,0.0,0.0,0.0,0.0,0.0,1.0428,1.0618,0.0,1.0618,1.0618,1.0618,0.0,0.0,0.0,0.0,1.087,1.0681,1.0996,1.1358,1.1667,1.1961,1.1814,1.1869,1.2806,0.0,0.0,0.0,0.0,1.5423,1.5943,1.6617,1.7369,0.0,1.9824,0.0,0.0,0.0,2.8022,2.9159,3.0662,3.1451,0.0,3.2386,3.3065,3.2625,3.301,3.3156,3.2955,3.2936,3.2801,3.2666,3.1769,3.1402,3.1781,3.0745,2.9683,2.8759,2.9396,2.8921,2.7415,2.8768,2.8956,2.8203,2.8254,2.8477,2.8751,2.822,2.8203,2.8494,2.7891,2.7925,2.7822,2.6328,2.5841,2.5959,0.0,0.0,0.0,0.0,0.0,0.0,0.0,0.0,0.0,0.0,0.0,0.0,0.0,0.0,0.0,0.0,0.0,0.0,0.0,0.0,0.0,0.0,-0.0202,-0.0605,-0.0605,-0.074,-0.0481,0.0144,0.007,0.0349,0.108,0.0975,0.136,0.2147,0.3418,0.4084,0.4345,0.5338,0.6069,0.6662,0.7067,0.0,0.0,0.0,0.0,0.0,0.0,0.0,0.0,1.0618,1.0555,1.0428,1.0428,0.0,0.0,0.0,0.0,0.0,1.0618,1.0658,1.0755,1.1289,1.0995,1.0907,1.2097,0.0,0.0,0.0,0.0,0.0,1.5152,1.5762,0.0,0.0,0.0,0.0,2.5142,2.6096,2.7031,2.87,2.9269,0.0,3.0992,3.2001,3.2551,3.2423,3.2533,3.257,3.2514,3.2496,3.2344,3.1889,3.1168,3.0786,3.1055,2.9877,2.8794,2.7921,2.8449,2.8117,2.7107,2.8203,2.8511,2.8152,2.7518,0.0,2.8134,2.745,2.7535,2.7849,2.726,2.7024,2.6804,2.5482,2.5199,2.5343,0.0,0.0,0.0,0.0,0.0,0.0,0.0,0.0,0.0,0.0,0.0,0.0,0.0,0.0,0.0,0.0,0.0,0.0,0.0,0.0,0.0,-0.0941,-0.1076,-0.121,-0.121,-0.1682,-0.1621,-0.1021,-0.1157,-0.065,0.0409,0.029,0.0933,0.208,0.2348,0.3151,0.4284,0.4466,0.5325,0.6465,0.6702,0.0,0.0,0.0,0.0,0.0,0.0,0.0,0.0,1.0618,1.0174,0.9652,0.9652,0.0,0.0,0.0,0.0,0.0,1.0618,1.0742,1.1009,1.1343,1.0995,1.0907,1.2097,0.0,0.0,0.0,0.0,0.0,0.0,1.7038,1.7888,0.0,0.0,2.3529,0.0,0.0,2.8517,2.848,0.0,3.1469,2.9984,3.1506,3.2313,3.1616,3.2203,3.2441,3.2111,3.2093,3.1815,3.1078,3.0352,2.9722,2.9204,2.8955,2.8268,2.7297,2.7929,2.786,2.7107,2.7912,2.8254,2.8186,0.0,2.8083,2.8152,2.7706,2.7216,2.6802,2.6364,2.6183,2.5785,2.4735,2.465,2.5138,0.0,0.0,0.0,0.0,0.0,0.0,0.0,0.0,0.0,0.0,0.0,0.0,0.0,0.0,0.0,0.0,0.0,0.0,0.0,0.0,-0.2363,-0.3078,-0.2973,-0.2549,-0.1817,-0.2049,-0.1941,-0.1406,-0.1459,-0.1093,-0.0211,0.0071,0.0558,0.1141,0.1812,0.2482,0.3151,0.3951,0.4749,0.5477,0.0,0.0,0.0,0.0,0.0,0.0,0.0,0.0,0.0,0.0,0.9268,0.8935,0.8935,0.0,0.0,0.0,0.0,0.0,0.9907,1.0136,1.0469,1.1563,1.1463,1.137,1.2742,0.0,0.0,0.0,0.0,0.0,0.0,0.0,1.8327,2.1051,0.0,2.6004,2.7306,2.7783,2.8187,0.0,0.0,2.98,2.9305,3.0497,3.1231,3.1066,3.1414,3.1634,3.1671,3.134,3.0882,3.0298,2.933,2.8674,2.8109,2.7919,2.7417,2.6765,2.7518,2.7381,2.6491,2.745,2.7775,2.7569,0.0,2.721,2.7552,2.6591,2.6211,2.6191,2.5397,2.4936,2.4719,2.4124,2.4067,2.4306,0.0,0.0,0.0,0.0,0.0,0.0,0.0,0.0,0.0,0.0,0.0,0.0,0.0,0.0,0.0,0.0,0.0,0.0,0.0,-0.3418,-0.3785,-0.4483,-0.44,-0.3847,-0.2809,-0.2573,-0.2278,-0.1985,-0.1851,-0.1479,-0.0881,-0.0208,0.0201,0.0336,0.1276,0.1812,0.2147,0.3284,0.3951,0.4289,0.0,0.0,0.0,0.0,0.0,0.0,0.0,0.0,0.0,0.0,0.0,0.0,0.0,0.0,0.0,0.8226,0.8355,0.8613,0.932,0.956,1.0023,1.1708,1.1663,1.169,1.3454,0.0,0.0,0.0,0.0,0.0,0.0,1.6168,0.0,2.2965,2.5863,2.7655,2.8113,2.793,2.8113,2.914,2.8718,2.8572,2.9214,2.9837,3.0332,3.0626,3.0644,3.0772,3.0956,3.0429,2.9978,2.9365,2.8552,2.7939,2.7484,2.721,2.6919,2.6628,2.721,2.7039,2.6234,2.709,2.733,2.7039,2.6456,2.6406,2.6779,2.5711,2.5452,2.5578,2.4471,2.3976,2.3882,2.3525,2.3486,2.3486,0.0,0.0,0.0,0.0,0.0,0.0,0.0,0.0,0.0,0.0,0.0,0.0,0.0,0.0,0.0,0.0,0.0,0.0,0.0,-0.4084,-0.4223,-0.43,-0.4289,-0.4387,-0.461,-0.3675,-0.3295,-0.3543,-0.2777,-0.2083,-0.1508,-0.0768,-0.0201,0.0336,0.0403,0.1074,0.208,0.2214,0.2683,0.3351,0.3551,0.0,0.0,0.0,0.0,0.0,0.0,0.0,0.0,0.0,0.0,0.0,0.0,0.0,0.7521,0.7381,0.7837,0.8613,0.932,0.9705,1.0238,1.1191,1.1049,0.0,1.3868,1.2943,0.0,1.6024,0.0,0.0,0.0,1.7788,1.9662,2.1788,2.472,2.7325,2.9177,0.0,2.958,3.0057,3.0057,3.0039,3.0112,3.0167,3.0204,3.0241,3.0241,3.0116,2.9886,2.9743,2.9315,2.8201,2.8149,2.7835,2.7107,2.709,2.7056,2.7039,2.709,2.7073,2.7004,2.7073,2.7107,2.7073,2.7021,2.6641,2.6189,2.6017,2.5285,2.4224,2.41,2.3728,2.3106,2.3135,2.3149,2.3149,0.0,0.0,0.0,0.0,0.0,0.0,0.0,0.0,0.0,0.0,0.0,0.0,0.0,0.0,0.0,0.0,0.0,0.0,0.0,-0.4736,-0.5225,-0.636,-0.6324,-0.638,-0.6626,-0.4485,-0.3524,-0.3784,-0.3304,-0.2951,-0.2728,-0.2008,-0.1544,-0.1343,-0.0537,0.0269,0.1007,0.1408,0.1944,0.2549,0.3084,0.3485,0.0,0.0,0.0,0.0,0.0,0.0,0.0,0.0,0.5529,0.5668,0.5602,0.6005,0.6482,0.6408,0.6736,0.7316,0.8409,0.8986,0.9717,1.1514,1.1737,0.0,0.0,1.5286,1.5357,1.8053,1.8081,0.0,0.0,0.0,2.2498,2.4228,2.6695,2.87,2.947,2.9562,2.9635,2.98,2.9599,2.9434,2.9434,2.9434,2.9544,2.98,2.9574,2.956,2.9671,2.9083,2.8518,2.8114,2.7643,2.7331,2.7073,2.7073,2.7073,2.7073,2.7073,2.7073,2.7073,2.7073,2.683,2.6449,2.6449,2.6083,2.5472,2.4964,2.4595,2.4115,2.3604,2.3355,2.3106,2.3106,2.3106,2.3106,0.0,0.0,0.0,0.0,0.0,0.0,0.0,0.0,0.0,0.0,0.0,0.0,0.0,0.0,0.0,0.0,0.0,0.0,-0.5668,-0.5424,-0.5871,-0.7428,-0.7242,-0.726,-0.7597,-0.5218,-0.4099,-0.4351,-0.3984,-0.3756,-0.3728,-0.3223,-0.2883,-0.2679,-0.1611,-0.0806,-0.0269,0.0469,0.0939,0.1341,0.2011,0.2412,0.0,0.0,0.0,0.0,0.0,0.0,0.0,0.0,0.3946,0.435,0.435,0.4882,0.5617,0.5749,0.6145,0.6793,0.8151,0.8788,0.9556,0.0,0.0,0.0,1.6823,1.7191,1.7465,2.0161,2.034,0.0,0.0,0.0,0.0,0.0,2.7468,2.9085,2.9342,2.9379,2.9379,2.9379,2.914,2.8975,2.8874,2.8874,2.8864,2.9119,2.8913,2.8778,2.9046,2.8307,2.7922,2.7817,2.7331,2.7073,2.7073,2.7073,2.6952,2.683,2.683,2.6952,2.7073,2.683,2.6571,2.6067,2.5839,2.5349,2.4734,2.4239,2.3991,2.3728,2.3113,2.3018,2.3106,2.3106,2.3106,2.3106,0.0,0.0,0.0,0.0,0.0,0.0,0.0,0.0,-0.2704,-0.2869,-0.3275,0.0,0.0,0.0,0.0,0.0,0.0,0.0,-0.6342,-0.6083,-0.6206,-0.6947,-0.6517,-0.654,-0.7307,-0.6022,-0.5427,-0.5506,-0.4859,-0.4512,-0.4394,-0.4344,-0.4018,-0.3476,-0.275,-0.2147,-0.1542,-0.0807,-0.0538,-0.0471,0.0067,0.0671,0.1341,0.0,0.0,0.0,0.0,0.0,0.0,0.0,0.3284,0.3418,0.3284,0.3951,0.4882,0.5404,0.6326,0.7502,0.8882,0.9396,0.0,0.0,0.0,0.0,1.8321,1.8132,1.8136,2.2197,0.0,2.282,2.3003,0.0,0.0,2.4035,2.6262,2.8058,2.8865,2.8975,2.8975,2.8975,2.8975,2.8874,2.8517,2.8517,2.8397,2.802,2.802,2.79,2.7521,2.7521,2.7401,2.7073,2.7073,2.7073,2.7073,2.7073,2.6692,2.6067,2.6067,2.6432,2.7073,2.6449,2.6067,2.6067,2.5349,2.4734,2.41,2.41,2.3728,2.3062,2.274,2.2813,2.3106,2.3106,2.3106,2.3106,0.0,0.0,0.0,0.0,0.0,0.0,0.0,0.0,-0.3811,-0.388,-0.3992,0.0,0.0,0.0,0.0,0.0,0.0,0.0,-0.712,-0.6635,-0.6806,-0.7809,-0.7571,-0.7277,-0.6864,-0.6017,-0.5288,-0.4792,-0.5537,-0.5873,-0.5899,-0.58,-0.572,-0.5529,-0.4522,-0.3677,-0.2883,-0.2374,-0.1807,-0.1207,-0.0537,-0.0134,0.0067,0.0,0.0,0.0,0.0,0.0,0.0,0.0,0.0,0.0,0.2415,0.3351,0.4517,0.4833,0.5848,0.7118,0.8215,0.9063,0.0,1.1026,0.0,0.0,0.0,1.8344,0.0,0.0,2.4458,2.4007,2.343,0.0,0.0,2.4814,2.6444,2.8046,2.8535,2.8201,2.8074,2.86,2.8379,2.8259,2.814,2.814,2.814,2.802,2.7762,2.7642,2.7521,2.7297,2.7194,2.7073,2.7073,2.6936,2.6662,2.6303,2.5811,2.5308,2.4952,2.4988,2.5717,2.5214,2.4865,2.4718,2.4223,2.3627,2.3,2.2793,2.2704,2.2447,2.2359,2.2374,2.2462,2.2462,2.2462,2.2462,0.0,0.0,0.0,0.0,0.0,0.0,0.0,0.0,-0.4634,-0.4737,-0.4904,-0.5219,0.0,0.0,0.0,0.0,0.0,0.0,0.0,-0.7106,-0.7369,-0.8488,-0.8165,-0.7722,-0.7239,-0.6766,-0.629,-0.5702,-0.6457,-0.6902,-0.7222,-0.7316,-0.7233,-0.6981,-0.6067,-0.5229,-0.4417,-0.388,-0.338,-0.2809,-0.2142,-0.1874,-0.1874,0.0,0.0,0.0,0.0,0.0,0.0,0.0,0.0,0.0,0.0,0.0,0.4229,0.5105,0.6317,0.7545,0.8831,0.0,0.0,1.243,1.3906,1.567,1.7811,0.0,0.0,0.0,0.0,2.5227,2.5045,2.5901,0.0,2.5539,2.6641,2.7553,2.7803,2.7437,2.7409,2.7776,2.7819,2.7718,2.7441,2.7463,2.7551,2.7432,2.7054,2.69,2.7056,2.6815,2.6628,2.6628,2.6389,2.6151,2.5915,2.5308,2.4736,2.4274,2.3794,2.3676,2.3962,2.3987,2.3867,2.3688,2.3263,2.281,2.2418,2.2111,2.2067,2.2169,2.2037,2.2067,2.2184,2.2184,2.2096,2.1993,0.0,0.0,-0.2681,-0.3902,0.0,0.0,0.0,0.0,-0.5227,-0.5443,-0.594,-0.6237,0.0,0.0,0.0,0.0,0.0,0.0,0.0,-0.76,-0.8062,-0.9004,-0.8192,-0.7761,-0.7819,-0.7922,-0.7817,-0.7666,-0.7461,-0.7757,-0.8376,-0.8684,-0.8603,-0.8151,-0.7466,-0.6811,-0.6137,-0.5432,-0.51,-0.5008,-0.4466,-0.4262,-0.4196,-0.3661,0.0,0.0,0.0,0.0,0.0,0.0,0.0,0.0,0.1745,0.2917,0.4004,0.5776,0.7274,0.8634,1.023,0.0,0.0,1.4574,1.6056,0.0,2.0604,2.2991,2.5423,2.8053,0.0,2.6242,2.7014,2.6185,2.5484,2.6104,2.6548,2.6814,2.6814,2.6778,2.6778,2.6796,2.7115,2.7052,2.6319,2.6632,2.6759,2.6388,2.6045,2.6011,2.6422,2.608,2.5891,2.5775,2.5294,2.4911,2.4729,2.4146,2.3544,2.291,2.2604,2.2285,2.2008,2.2601,2.2837,2.2837,2.2275,2.2052,2.2023,2.1701,2.173,2.1979,2.1686,2.1745,2.2008,2.2008,2.1818,2.1569,0.0,0.0,-0.3844,-0.4135,0.0,0.0,0.0,0.0,0.0,-0.6203,0.0,0.0,0.0,0.0,0.0,0.0,0.0,0.0,0.0,-0.8502,-0.8516,-0.8859,-0.7747,-0.6927,-0.658,-0.7106,-0.7529,-0.794,-0.8558,-0.893,-0.9126,-0.9505,-0.9691,-0.9524,-0.912,-0.874,-0.8301,-0.7904,-0.7509,-0.7149,-0.6546,-0.6278,-0.6213,-0.5501,-0.5239,0.0,0.0,0.0,0.0,0.0,0.0,0.0,0.0604,0.2164,0.392,0.5288,0.7329,0.9368,1.0646,1.2172,0.0,0.0,1.6299,1.8891,2.1779,2.334,2.4503,2.5702,2.5824,2.5949,2.6412,2.6554,2.6335,2.5874,2.6028,2.6179,2.6388,2.5804,2.5509,2.6049,2.5908,2.5691,2.5199,2.5508,2.5732,2.56,2.5275,2.536,2.6011,2.5703,2.5269,2.4926,2.4696,2.4187,2.315,2.2464,2.2004,2.1521,2.1018,2.07,2.0662,2.1023,2.1255,2.1255,2.1028,2.1042,2.1013,2.0691,2.0589,2.0647,2.0574,2.0589,2.0647,2.0647,2.0603,2.0545,0.0,0.0,0.0,0.0,0.0,0.0,0.0,0.0,0.0,0.0,0.0,0.0,0.0,0.0,0.0,0.0,0.0,0.0,0.0,0.0,-0.902,-0.8727,-0.8128,-0.76,-0.7054,-0.7779,-0.8189,-0.8408,-0.9517,-1.01,-1.004,-1.0456,-1.0478,-1.0225,-1.0064,-0.97,-0.9204,-0.9064,-0.9074,-0.9145,-0.874,-0.8845,-0.9024,-0.8334,-0.8024,-0.7832,-0.6302,0.0,0.0,0.0,0.0,0.0,0.0,0.0,0.3769,0.5631,0.7527,0.9265,1.0694,0.0,0.0,1.6252,0.0,2.095,2.2443,2.3167,2.3808,2.4809,2.5289,2.5476,2.5494,2.5541,2.5377,2.4802,2.4763,2.4885,2.5086,2.4602,2.4459,2.4758,2.482,2.4675,2.4299,2.4607,2.483,2.483,2.4251,2.4082,2.4637,2.4094,2.3673,2.334,2.2957,2.2434,2.19,2.12,2.0708,2.0435,1.9964,2.0,2.0286,2.0411,2.0486,2.0486,2.0486,2.0486,2.0472,2.0311,2.0237,2.0237,2.0237,2.0237,2.0237,2.0237,2.0135,1.9989,0.0,0.0,0.0,0.0,0.0,0.0,0.0,0.0,0.0,0.0,0.0,0.0,0.0,0.0,0.0,0.0,0.0,0.0,0.0,0.0,0.0,-0.8493,-0.8587,-0.8456,-0.7963,-0.8729,-0.9045,-0.8877,-1.0178,-1.092,-1.102,-1.1339,-1.1277,-1.083,-1.083,-1.0507,-0.9843,-0.9958,-1.0312,-1.0864,-1.0989,-1.1286,-1.1643,-1.1037,-1.0676,-1.0299,-0.8592,-0.7567,-0.6776,-0.514,0.0,0.0,0.0,0.0,0.3834,0.6215,0.7779,0.913,1.0729,0.0,1.6237,1.878,2.1051,0.0,2.2735,2.2877,2.337,2.4602,2.4934,2.4942,2.4538,2.4253,2.4042,2.3751,2.3682,2.3665,2.3665,2.3631,2.3597,2.358,2.3853,2.3888,2.3511,2.3713,2.3793,2.3849,2.2961,2.2593,2.2954,2.2199,2.1793,2.1793,2.0981,2.0739,2.1168,2.0167,1.9821,2.0031,1.9642,1.9867,2.0404,2.0256,2.0282,2.0278,2.0435,2.0435,2.0386,2.0435,2.0435,2.0278,2.0278,2.017,2.0077,2.0077,1.9872,1.9564,0.0,0.0,0.0,0.0,0.0,0.0,0.0,0.0,0.0,0.0,-0.6416,-0.6416,0.0,-0.7064,-0.7717,-0.8301,-0.9064,-0.968,-1.001,0.0,0.0,-0.7785,-0.816,-0.8172,-0.7747,-0.8758,-0.9253,-0.9217,-1.0121,-1.087,0.0,0.0,0.0,-1.226,-1.226,-1.1876,-1.1358,-1.1903,-1.2135,-1.2258,-1.287,-1.281,-1.2381,-1.2289,-1.1502,0.0,0.0,0.0,-0.7381,-0.6145,-0.496,0.0,0.0,0.0,0.4479,0.621,0.7971,0.9639,0.0,0.0,1.7291,0.0,2.0522,2.1174,0.0,0.0,2.3336,0.0,2.441,2.3909,2.3891,2.3768,2.3751,2.3717,2.3682,2.3665,2.3665,2.3391,2.3186,2.3186,2.3237,2.3117,2.274,2.2635,2.2407,2.2195,2.1204,2.0953,2.1425,2.0985,2.0877,2.1178,2.0342,2.03,2.1193,2.0083,1.987,2.0753,2.0508,2.0362,2.0508,2.0459,2.0564,2.0798,2.141,2.1342,2.0901,2.1393,2.1358,2.083,2.083,2.0208,1.9403,1.9403,1.9199,1.895,0.0,0.0,0.0,0.0,0.0,0.0,0.0,0.0,0.0,0.0,0.0,-0.7456,-0.7064,-0.7967,-0.8742,-0.9,-0.9716,-1.0108,-1.008,-1.0113,-0.9616,-0.8583,-0.8729,-0.8702,-0.8406,-0.8757,-0.9064,-0.922,-0.9978,0.0,0.0,-1.277,-1.2877,0.0,0.0,-1.2699,-1.212,-1.2806,-1.3247,-1.3674,-1.3932,-1.3855,-1.3614,0.0,0.0,0.0,0.0,0.0,0.0,0.0,-0.5484,-0.3823,-0.0935,0.0,0.0,0.0,0.7521,0.0,1.2698,1.5036,1.7169,0.0,2.0207,2.0656,2.294,0.0,2.2617,2.4426,2.41,2.3619,2.3679,2.3531,2.3306,2.3083,2.3049,2.2963,2.2758,2.2586,2.2398,2.2175,2.2158,2.1991,2.1542,2.1478,2.1213,2.0735,2.0079,1.975,2.0006,2.0063,2.0181,2.0361,2.0265,2.0473,2.1004,2.0325,2.0132,2.0417,2.0891,2.1174,2.1174,2.1949,2.1655,2.0686,2.1031,2.1065,2.1062,2.1097,2.1197,2.1285,2.1075,2.0921,2.0759,1.9974,1.9704,1.9537,0.0,0.0,0.0,0.0,0.0,0.0,0.0,0.0,0.0,0.0,0.0,-0.8301,-0.7782,0.0,0.0,0.0,-1.0174,-1.0497,-1.0201,-1.0295,-1.0114,-0.9419,-0.9398,-0.9351,-0.9272,-0.9017,-0.9017,-0.9272,0.0,0.0,-1.1774,-1.2604,-1.2799,0.0,-1.32,-1.3369,0.0,0.0,0.0,0.0,-1.5023,-1.4713,0.0,0.0,0.0,0.0,0.0,0.0,0.0,0.0,0.0,0.0,0.0,0.2008,0.0,0.0,0.0,0.0,0.0,0.0,1.6321,1.8826,1.9353,1.984,0.0,0.0,2.1851,0.0,2.3654,2.3299,2.3238,2.3114,2.2788,2.2412,2.2261,2.2158,2.1884,2.185,2.165,2.1247,2.123,2.1038,2.0555,2.0362,2.0136,1.9652,1.9039,1.8813,1.8997,1.9382,1.9766,2.0243,2.0432,2.0805,2.1379,2.1009,2.0686,2.0408,2.0963,2.1239,2.1331,2.2373,2.1942,2.045,2.0931,2.1264,2.1391,2.1315,2.1586,2.1963,2.1778,2.1662,2.1456,2.0692,2.0084,1.9468,0.0,0.0,0.0,0.0,0.0,0.0,0.0,0.0,0.0,0.0,0.0,-0.8484,-0.842,-0.9064,-0.9524,-0.9524,-1.0174,-1.0559,-1.0383,-1.0356,-1.0174,-0.9602,-0.971,0.0,-1.0249,-0.973,-0.9488,-0.95,-0.8849,0.0,-0.967,-1.0949,-1.1835,-1.2545,-1.3185,-1.3954,-1.4703,0.0,0.0,0.0,0.0,0.0,0.0,0.0,0.0,0.0,0.0,0.0,0.0,0.0,0.0,0.0,0.0,0.0,0.0,0.0,0.0,0.0,0.0,1.3424,0.0,1.6862,1.7698,0.0,0.0,0.0,2.1024,2.2453,2.2703,2.2612,2.2117,2.2254,2.2334,2.1569,2.1473,2.1456,2.1439,2.1439,2.1247,2.0765,2.0765,2.0555,1.9957,1.947,1.9039,1.8732,1.8126,1.8168,1.8767,1.8843,1.9671,2.1571,2.0564,2.0835,2.2694,2.2232,2.1857,2.1589,2.0744,2.0365,2.0365,2.049,2.04,2.0417,2.2171,2.2575,2.209,2.3111,2.3162,2.2691,2.3061,2.1996,2.0277,2.1285,1.9946,1.7853,0.0,0.0,0.0,0.0,0.0,0.0,0.0,0.0,0.0,0.0,0.0,0.0,0.0,-0.9907,-1.0415,-1.0541,-1.0744,-1.0892,-1.0843,-1.0953,-1.0891,-1.0691,-1.0877,-1.0995,-1.1108,-0.9906,-0.9343,-0.9524,-0.8725,-0.8723,-0.9486,-1.0443,-1.1429,-1.2553,-1.4044,-1.4411,-1.4066,-1.5417,0.0,0.0,0.0,0.0,0.0,0.0,0.0,0.0,0.0,0.0,0.0,0.0,0.0,0.0,0.0,0.0,0.0,0.0,0.0,0.0,0.0,0.0,0.0,1.6096,1.6317,1.6519,1.9012,1.9646,1.997,2.0737,2.183,2.2104,2.0327,2.0748,2.1139,2.0289,2.0194,2.003,1.9553,1.9487,1.9396,1.9136,1.9152,1.8952,1.8489,1.821,1.8057,1.799,1.729,1.727,1.8024,1.8648,1.9486,2.0483,2.1047,2.172,2.2353,2.1738,2.1415,2.1328,2.0342,1.9898,1.9915,1.9505,1.9695,2.0348,2.1031,2.1697,2.226,2.2631,2.2478,2.1979,2.2733,2.2442,2.1611,2.1098,2.0345,1.9392,0.0,0.0,0.0,0.0,0.0,-1.0618,-1.0618,-1.0618,-1.0491,-0.997,0.0,0.0,0.0,0.0,-1.0933,-1.1059,-1.131,-1.1358,-1.1185,-1.1247,-1.131,-1.1373,-1.156,-1.1622,-1.1622,-1.0279,-0.9581,-0.9524,-0.8713,-0.8506,-0.8832,-0.9754,-1.0734,-1.1819,-1.3684,-1.4531,0.0,0.0,0.0,-1.6222,0.0,0.0,-1.4269,0.0,0.0,0.0,0.0,0.0,0.0,0.0,0.0,0.0,0.0,0.0,0.0,0.0,0.0,0.0,0.9882,0.0,0.0,0.0,0.0,1.4952,1.7187,0.0,1.832,1.8821,2.0062,2.0542,1.8644,1.9041,1.9414,1.8996,1.892,1.8926,1.8709,1.8643,1.8643,1.8732,1.8732,1.8467,1.7668,1.7668,1.7663,1.7692,1.7164,1.727,1.8148,1.8731,1.9318,1.9835,2.1312,2.1892,2.159,2.1268,2.1034,2.0906,2.0079,1.9516,1.9179,1.891,1.898,1.9347,1.9829,2.0789,2.2044,2.1897,2.1631,2.1311,2.1735,2.1638,2.1031,2.0508,1.9862,1.8997,0.0,0.0,-1.0631,-1.0618,-1.0618,-1.0618,-1.0681,-1.0807,-1.087,-1.087,0.0,0.0,0.0,0.0,0.0,-1.1108,-1.1655,-1.1841,-1.1373,-1.131,-1.1373,-1.156,-1.1622,-1.1622,-1.1622,-1.087,-1.0161,-0.9524,-0.8871,-0.8236,-0.7596,0.0,-0.981,-1.0334,-1.1935,-1.4273,-1.6949,0.0,-1.7805,-1.9068,0.0,-1.6741,-1.5562,0.0,0.0,0.0,-1.2908,-0.9802,0.0,-0.3417,0.0,0.0,0.0,0.0,0.0,0.0,0.0,0.0,0.0,0.0,0.0,0.0,0.0,0.0,1.4359,0.0,1.6138,1.6519,1.7353,1.7823,1.7279,1.7191,1.7334,1.7786,1.785,1.811,1.887,1.9042,1.9213,1.9554,1.9657,1.9127,1.7747,1.7644,1.7644,1.7628,1.7613,1.8046,1.8991,1.9093,1.9281,1.9827,2.1077,2.1352,2.0521,2.0888,2.0888,2.0521,1.9957,1.9162,1.8303,1.8637,1.8241,1.7434,1.8769,2.0214,2.1589,2.1055,2.0823,2.0763,2.0166,1.9341,1.8459,1.9536,1.8446,1.6413,0.0,-1.0815,-1.0807,-1.1344,-1.1469,-1.1655,-1.2274,-1.2397,-1.2397,0.0,0.0,0.0,0.0,0.0,-1.2546,-1.1751,-1.2134,-1.2151,-1.156,-1.1498,-1.156,-1.1622,-1.1622,-1.1622,-1.1622,-1.087,-1.0428,-1.0225,-0.9716,-0.932,0.0,0.0,0.0,0.0,-1.202,-1.3538,-1.5804,-1.6275,0.0,-1.5643,-1.7382,-1.6302,0.0,0.0,0.0,0.0,0.0,-0.4484,-0.0745,0.0,0.281,0.3331,0.0,0.0,0.0,0.0,0.0,0.0,0.7295,0.0,0.0,0.0,0.0,0.0,1.3007,1.4088,1.4826,1.4775,1.6228,1.7186,1.611,1.6427,1.664,1.6178,1.632,1.648,1.6392,1.7,1.7263,1.6939,1.806,1.8229,1.6556,1.6955,1.727,0.0,1.6362,1.6702,1.8189,1.8462,1.8699,1.9151,1.9858,2.0274,2.0521,2.0338,2.0338,2.0521,1.9677,1.9261,1.9268,1.8179,1.8334,1.9438,1.9076,1.9612,2.0654,2.0095,1.9255,1.8426,1.9225,1.8969,1.8022,1.8408,1.7912,1.7037,-1.2027,-1.1841,-1.1717,-1.2197,-1.232,-1.2458,-1.2948,-1.307,-1.302,0.0,0.0,0.0,0.0,0.0,0.0,-1.238,-1.2691,-1.2642,-1.2042,-1.1747,-1.1685,-1.1981,-1.1981,-1.2151,-1.2458,-1.2074,-1.1578,-1.1142,-1.0815,0.0,0.0,0.0,0.0,0.0,-1.1774,-1.2708,0.0,0.0,0.0,0.0,-1.601,0.0,0.0,-1.3728,-1.1187,0.0,0.0,0.0,0.2606,0.6071,0.6531,0.0,0.0,0.0,0.0,0.0,0.0,0.0,0.0,0.0,0.0,0.0,0.0,0.0,1.1975,1.3129,1.4042,1.4032,1.5314,1.6069,1.4987,1.5212,1.5403,1.4851,1.4943,1.5238,1.5891,1.6386,1.686,1.725,1.7846,1.7747,1.6766,1.6682,1.6755,1.696,1.6157,1.6269,1.7641,1.8203,1.8486,1.8667,1.9448,1.9924,2.0008,1.9952,1.9952,2.0008,1.9769,1.9608,1.94,1.8846,1.8964,1.9621,1.9055,1.8888,1.8996,1.8629,1.8052,1.734,1.7312,1.7194,1.6936,1.6539,1.6252,1.5951,0.0,-1.307,-1.3009,-1.313,-1.313,-1.3191,-1.3252,-1.3416,-1.3434,0.0,-1.3136,0.0,0.0,0.0,0.0,0.0,-1.339,-1.3373,-1.2687,-1.2166,-1.2104,-1.2626,-1.2687,-1.2992,-1.3717,-1.3717,-1.3218,-1.2227,0.0,0.0,0.0,0.0,0.0,0.0,-1.163,-1.2026,-1.3065,0.0,0.0,-1.6679,-1.4418,-1.4674,0.0,0.0,-0.8525,-0.4267,-0.23,0.1224,0.5489,0.9236,0.9283,0.0,0.0,0.0,0.0,0.0,0.6333,0.0,0.0,0.0,0.0,0.0,0.9345,0.0,1.102,1.2108,1.3241,1.3676,1.4303,1.4531,1.3839,1.3754,1.3754,1.3754,1.3754,1.4359,1.6152,1.6487,1.7155,1.8532,1.8106,1.7577,1.7415,1.6601,1.6437,1.709,1.6617,1.6617,1.7253,1.8158,1.8576,1.8256,1.9399,1.974,1.9311,1.9677,1.9696,1.9384,2.0099,2.0063,1.9316,1.9987,1.9844,1.9163,1.898,1.8427,1.7512,1.7512,1.7326,1.6951,1.5153,1.4949,1.5589,1.4638,1.4157,1.405,-1.3734,-1.3373,-1.3191,-1.3855,-1.3974,-1.4213,-1.4805,-1.5391,-1.5678,-1.5598,-1.5355,0.0,0.0,0.0,0.0,0.0,-1.3932,-1.4154,-1.3537,-1.3476,-1.3597,-1.3717,-1.3734,-1.3777,-1.3957,-1.3957,-1.3837,-1.3597,0.0,0.0,0.0,0.0,0.0,0.0,-1.281,-1.2749,-1.3348,0.0,0.0,-1.2294,-1.3937,0.0,-0.9365,-0.6374,-0.3331,-0.0446,0.1647,0.5427,0.9468,0.9451,0.9009,0.84,0.0,0.0,0.0,0.6462,0.0,0.0,0.0,0.0,0.0,0.0,0.0,0.0,0.9801,1.0117,1.0331,1.1167,1.2005,1.2564,1.2742,1.2783,1.2783,1.2783,1.2783,1.3167,1.4266,1.5382,1.5843,1.5072,1.6349,1.6846,1.5379,1.637,1.6862,1.637,1.7513,1.7836,1.7107,1.7917,1.8318,1.8078,1.8308,1.8727,1.9292,1.9384,1.9549,1.9806,1.9971,2.0291,2.0652,2.0096,2.034,2.1087,2.0348,1.9422,1.8519,1.8519,1.7591,1.6021,1.5642,1.5497,1.5378,1.4247,1.3939,1.4052,-1.4628,-1.4451,-1.4332,-1.4746,-1.504,-1.5371,-1.5796,-1.6368,-1.668,-1.6501,-1.586,0.0,0.0,0.0,0.0,0.0,0.0,0.0,0.0,-1.4964,-1.5022,-1.5332,-1.5332,-1.5505,-1.5908,-1.5965,-1.5793,-1.5543,0.0,0.0,0.0,0.0,0.0,0.0,0.0,0.0,0.0,0.0,-1.1483,-1.0863,-1.0548,0.0,-0.5454,-0.1612,0.1448,0.3989,0.6323,0.8811,1.0868,0.9949,0.9016,0.0,0.8154,0.7153,0.6084,0.0,0.6333,0.6234,0.0,0.0,0.0,0.726,0.0,0.0,0.0,0.9266,1.0053,1.026,1.0962,1.1591,1.1519,1.1573,1.1601,1.1451,1.1737,1.2054,1.2219,1.3801,1.5072,1.5538,1.6168,1.6535,1.6519,1.6764,1.6862,1.6453,1.8399,1.9195,1.8141,1.9316,2.0022,1.9885,1.9492,1.9432,1.9923,1.9529,1.9402,1.9622,1.9824,2.0136,2.0539,2.0408,2.0674,2.1058,2.0801,2.0162,1.9249,1.853,1.7371,1.6071,1.4641,1.4284,1.444,1.3171,1.2711,1.2745,-1.5584,-1.57,-1.5758,-1.5758,-1.614,-1.6461,-1.6461,-1.6968,-1.7258,-1.6824,0.0,0.0,0.0,0.0,0.0,0.0,0.0,0.0,0.0,0.0,-1.6764,-1.6925,-1.698,-1.7335,-1.807,-1.8015,-1.7775,-1.7456,0.0,0.0,0.0,0.0,0.0,0.0,0.0,0.0,0.0,0.0,0.0,-0.9649,0.0,-0.4741,-0.3168,0.1366,0.4702,0.718,0.9395,1.0502,1.0803,1.0049,0.886,0.7709,0.8601,0.7432,0.0,0.0,0.0,0.0,0.0,0.0,0.0,0.0,0.0,0.7778,0.0,0.0,0.0,0.9508,0.0,0.0,0.0,0.0,0.0,0.9794,0.0,0.0,0.0,1.2019,0.0,1.6092,1.5617,1.5821,1.7395,1.7196,1.7105,1.7415,1.9492,2.045,1.9709,2.1048,2.168,2.1527,2.0991,2.0702,2.0469,1.9844,1.9529,1.9529,1.9721,1.9861,1.9952,2.0594,2.0741,2.0539,2.1022,2.0721,1.973,1.8729,1.7802,1.6801,1.397,1.3217,1.3528,1.2301,1.1801,1.196,-1.6197,-1.6652,-1.6989,-1.6989,-1.7024,-1.7079,-1.7079,-1.76,-1.7855,0.0,0.0,0.0,0.0,0.0,0.0,0.0,0.0,0.0,-1.835,0.0,0.0,-1.7975,-1.7929,-1.8232,-1.8744,-1.834,-1.8286,-1.8691,0.0,0.0,0.0,0.0,0.0,0.0,-1.4574,0.0,0.0,0.0,-1.0132,0.0,-0.4363,-0.326,0.0,0.1454,0.4241,0.6513,0.798,0.8999,0.9616,0.0,0.8042,0.7782,0.0,0.6579,0.6577,0.5574,0.0,0.0,0.0,0.0,0.0,0.0,0.6654,0.0,0.0,0.0,0.7021,0.7797,0.0,0.0,0.0,0.0,0.0,0.0,0.0,0.0,0.8506,1.0337,1.1902,1.2505,1.317,1.3903,1.471,1.665,1.8467,1.9925,2.1068,2.1603,2.1527,2.168,2.1451,2.0682,2.1298,2.1298,2.0547,2.0391,2.0391,2.0391,1.9664,1.9567,1.9934,2.0026,2.0228,2.0521,2.1275,2.1108,2.025,2.0429,1.9991,1.8751,1.5575,1.4116,1.3636,1.2437,1.2877,1.3841,-1.6513,-1.6795,-1.7191,-1.7191,-1.749,-1.782,-1.8015,-1.9084,-1.9695,0.0,0.0,0.0,0.0,0.0,0.0,0.0,0.0,-2.211,0.0,0.0,0.0,-2.0573,-2.0191,-2.0143,-2.0495,-2.0244,-2.0268,-2.0492,-1.9991,0.0,0.0,0.0,0.0,0.0,-1.5037,0.0,-1.2853,0.0,-0.9893,0.0,0.0,0.0,0.0,0.3212,0.548,0.6857,0.7241,0.8028,0.8728,0.0,0.7472,0.0,0.0,0.0,0.0,0.5714,0.0,0.0,0.0,0.0,0.0,0.0,0.0,0.0,0.6907,0.0,0.6662,0.0,0.0,0.0,0.0,0.0,0.0,0.0,0.7527,0.0,0.0,0.0,1.0456,1.1915,0.0,0.0,1.6991,1.7512,1.8419,2.0226,2.0969,2.1428,2.1645,2.26,2.3054,2.2681,2.2531,2.2306,2.1928,2.1451,2.1221,2.1221,2.0914,2.0858,2.0977,2.1233,2.1312,2.1332,2.189,2.1769,2.1163,2.1014,2.0391,1.9365,1.8127,1.6766,1.5333,1.39,1.4166,1.5209,-1.7217,-1.7404,-1.771,-1.771,-1.8147,-1.8632,-1.9032,-2.062,0.0,0.0,0.0,0.0,-2.3339,-2.269,0.0,0.0,-2.4517,-2.4245,0.0,0.0,-2.2778,0.0,0.0,0.0,0.0,-2.1904,-2.1785,-2.2104,-2.1445,0.0,0.0,0.0,0.0,0.0,0.0,-1.4195,-1.247,0.0,-0.9173,-0.5626,-0.4687,-0.1987,0.1763,0.4578,0.6184,0.6807,0.6594,0.7136,0.7943,0.7158,0.6853,0.0,0.7581,0.0,0.5629,0.0,0.0,0.0,0.5241,0.0,0.0,0.0,0.0,0.0,0.0,0.0,0.0,0.0,0.0,0.0,0.0,0.0,0.0,0.0,0.0,0.7592,0.0,0.8523,0.0,0.0,0.0,0.0,0.0,1.7927,1.8291,1.9885,2.0828,2.1468,2.1838,2.3364,2.4127,2.3886,2.3519,2.3224,2.3001,2.2456,2.2155,2.2155,2.1907,2.1832,2.1776,2.2262,2.2297,2.2004,2.2645,2.2717,2.2387,2.2327,2.1741,2.0938,2.1288,2.0505,1.8931,1.6359,1.6067,1.7088,-1.8633,-1.8821,0.0,0.0,-1.9291,-1.9708,-2.0067,0.0,0.0,0.0,0.0,0.0,0.0,0.0,0.0,0.0,0.0,-2.5179,-2.4589,0.0,-2.4019,0.0,0.0,-2.1947,0.0,-2.2684,-2.2086,-2.3172,-2.2151,0.0,0.0,0.0,0.0,0.0,0.0,-1.4899,-1.2788,-1.1385,-0.7521,-0.2219,-0.1826,0.0796,0.4698,0.0,0.5271,0.6027,0.5909,0.0,0.0,0.5888,0.6076,0.0,0.0,0.0,0.0,0.0,0.0,0.0,0.0,0.0,0.0,0.6215,0.0,0.0,0.0,0.0,0.5311,0.0,0.0,0.0,0.0,0.0,0.0,0.0,0.0,0.0,0.0,0.0,0.0,0.0,0.0,0.0,0.0,1.7368,1.8643,0.0,2.1149,2.232,2.2617,2.3649,2.3813,2.3075,2.374,2.3813,2.3001,2.3001,2.2927,2.2927,2.2155,2.1832,2.1832,2.2317,2.2467,2.2317,2.3722,2.4181,2.4131,2.5228,2.5228,2.4564,2.4965,2.5379,2.5123,2.0119,1.8855,1.9637,-1.86,-1.8924,0.0,0.0,0.0,0.0,0.0,-2.2563,0.0,0.0,0.0,0.0,0.0,-3.0979,-3.0775,0.0,0.0,-2.9371,-2.6065,-2.6233,0.0,0.0,0.0,-2.4977,0.0,-2.4752,-2.4343,-2.4348,-2.3721,0.0,0.0,0.0,0.0,0.0,0.0,-1.578,0.0,0.0,0.0,0.0,0.0,0.2031,0.4667,0.0,0.4881,0.5231,0.52,0.5708,0.0,0.6261,0.6602,0.7064,0.7667,0.7444,0.7048,0.7574,0.7012,0.6525,0.0,0.0,0.8828,0.8891,0.0,0.0,0.0,0.0,0.0,0.0,0.0,0.0,0.0,0.0,0.0,0.0,0.0,0.0,0.0,0.0,0.0,0.0,0.0,0.0,0.0,0.0,0.0,0.0,1.9247,0.0,2.0124,2.1868,2.2748,2.2466,2.3618,2.4055,2.3813,2.4154,2.4299,2.4299,2.4469,2.4541,2.4541,2.4684,2.4945,2.5133,2.5181,2.5438,2.5921,2.678,2.6796,2.6451,2.8002,2.8247,2.7269,2.4049,2.3886,2.5247,-1.8967,-1.9175,0.0,0.0,0.0,0.0,0.0,0.0,0.0,0.0,-3.0115,0.0,-3.4252,0.0,-3.4819,0.0,-3.2842,-3.1368,-2.8637,-2.7473,0.0,-2.7632,-2.6721,0.0,0.0,0.0,-2.5983,-2.6272,-2.5123,-2.443,0.0,0.0,0.0,0.0,0.0,-1.6431,-1.3591,-1.1714,-0.8652,0.0,0.0,0.1724,0.0,0.0,0.4182,0.4834,0.0,0.5336,0.6022,0.636,0.6937,0.7674,0.8549,0.837,0.7887,0.8579,0.7966,0.7474,0.9016,0.9696,0.0,1.0333,1.0242,0.0,0.7548,0.0,0.5583,0.0,0.0,0.0,0.0,0.0,0.0,0.0,0.0,0.0,0.0,1.0678,0.0,0.0,0.0,0.0,0.0,0.0,0.0,0.0,0.0,0.0,0.0,2.1495,2.2707,2.2707,2.3932,2.4611,2.4611,2.4945,2.5158,2.5229,2.5581,2.5931,2.6183,2.6389,2.6731,2.7111,2.6867,2.7126,2.7774,2.8457,2.8529,2.842,3.0426,3.0745,2.9754,2.7597,2.7841,2.9217,-1.9747,-1.9679,0.0,0.0,-2.1224,0.0,0.0,0.0,-2.9392,0.0,-3.2992,-3.4644,-3.623,-3.5491,-3.5334,-3.6622,-3.3393,-3.1535,-3.2044,-2.8152,0.0,0.0,-2.6975,-2.6717,-2.9529,0.0,0.0,0.0,-2.6283,0.0,0.0,0.0,0.0,0.0,-1.9458,0.0,-1.4023,-1.2222,-0.8738,-0.4206,-0.1189,0.0,0.01,0.1253,0.2923,0.4634,0.4734,0.5236,0.6042,0.6042,0.7135,0.8435,0.8428,0.9023,0.9616,0.9624,0.9494,0.954,1.04,1.012,0.9777,1.0532,1.0379,0.0,0.0,0.0,0.7903,0.0,0.0,0.0,0.0,0.0,0.0,0.0,0.0,0.0,0.0,0.0,0.0,0.0,0.0,0.0,0.0,0.0,0.0,0.0,0.0,0.0,0.0,2.2486,2.3616,2.3713,2.4719,2.5274,2.537,2.5392,2.5463,2.5676,2.5746,2.6114,2.6748,2.7338,2.7802,2.8168,2.8648,2.9101,2.9605,3.0214,3.0483,3.0661,3.2338,3.2951,3.2772,3.0741,3.0708,3.1597,-1.9751,-2.0769,-2.1822,0.0,-2.3825,-2.5216,0.0,0.0,0.0,0.0,-3.5536,-3.8033,-3.9617,-4.143,-4.1342,-3.8416,-3.6826,0.0,0.0,0.0,0.0,-3.222,-3.1427,-3.1036,-3.1248,-3.0342,0.0,-2.975,0.0,0.0,-2.7137,0.0,0.0,0.0,0.0,0.0,-1.5797,-1.36,-0.9317,-0.3838,-0.1806,-0.0465,0.0481,0.0,0.1656,0.2213,0.3221,0.4634,0.6042,0.6736,0.7534,0.8528,0.913,0.9339,0.9453,0.9592,0.9494,0.9731,1.1248,1.1358,1.1364,1.2491,1.1884,1.0637,0.0,0.0,0.0,0.0,0.0,0.0,0.0,0.0,0.0,0.0,0.0,0.0,0.0,0.0,0.0,1.4015,0.0,0.0,0.0,0.0,0.0,0.0,0.0,0.0,1.9936,0.0,2.2795,2.4181,2.4155,2.4746,2.6089,2.6298,2.6556,2.6976,2.7907,2.8492,2.8784,2.8812,2.9317,3.0122,2.985,3.0482,3.1618,3.181,3.2276,3.2982,3.3903,3.475,3.5351,3.4545,3.4801,3.5548,-1.9577,-2.1076,0.0,-2.3329,0.0,0.0,-2.8866,0.0,0.0,-3.4848,-3.7742,0.0,-4.2192,-4.4266,-4.4653,-4.2409,-3.9237,0.0,-3.5457,0.0,0.0,-3.3976,-3.3126,-3.2221,-3.1504,-3.1205,0.0,-3.061,0.0,0.0,-2.8319,0.0,0.0,0.0,0.0,-2.0257,-1.7224,-1.3693,-1.0253,-0.6815,-0.4116,-0.2536,0.0,-0.0383,0.0292,0.0604,0.1712,0.3321,0.4922,0.6232,0.7229,0.8024,0.913,0.9265,0.9194,0.9402,0.9591,1.0036,1.1461,1.1838,1.2242,1.382,1.3635,1.2915,1.198,1.1455,1.1272,0.0,1.1739,1.2144,0.0,0.0,0.0,0.0,0.0,0.0,0.0,0.0,0.0,0.0,1.6772,0.0,0.0,0.0,0.0,0.0,0.0,0.0,0.0,0.0,2.3484,2.3798,2.4577,2.5301,2.574,2.5942,2.6451,2.739,2.8106,2.9031,3.0211,3.009,3.066,3.1702,3.1581,3.2167,3.3255,3.3367,3.3941,3.4872,3.5487,3.6394,3.729,3.7069,3.7143,3.7435,-1.9505,0.0,0.0,0.0,0.0,0.0,0.0,-3.2241,0.0,-3.7296,0.0,-4.1883,-4.4074,-4.5299,-4.6106,-4.6554,0.0,-3.8322,-3.9817,-3.508,-3.3182,-3.5338,-3.356,-3.2155,-3.1372,-3.128,-3.1363,0.0,0.0,0.0,0.0,0.0,0.0,0.0,0.0,0.0,0.0,-1.3258,-1.1101,-1.078,-0.6734,-0.494,-0.438,-0.2425,-0.1275,-0.0605,0.0202,0.1609,0.351,0.5222,0.6426,0.7422,0.8528,0.8817,0.8795,0.9023,0.9494,1.014,1.1337,1.191,1.2606,1.4799,1.5395,1.539,1.5021,1.5333,1.5654,1.5539,1.5643,1.6269,1.8172,0.0,0.0,0.0,0.0,0.0,0.0,0.0,0.0,0.0,0.0,0.0,0.0,0.0,0.0,0.0,0.0,0.0,0.0,0.0,2.4713,2.339,2.5519,2.6293,2.5464,2.555,2.6386,2.7933,2.7822,2.9059,3.1444,3.1444,3.2032,3.3087,3.3508,3.4007,3.4603,3.4872,3.543,3.6277,3.6872,3.7718,3.8505,3.8566,3.8401,3.8199,0.0,0.0,0.0,0.0,0.0,-2.9619,-3.2386,-3.5002,-3.7119,-3.8489,-4.1565,-4.3898,-4.4578,-4.6152,-4.69,-4.6307,-4.3172,0.0,0.0,0.0,0.0,-3.7101,-3.6047,-3.4899,-3.3724,-3.3559,-3.331,0.0,0.0,0.0,0.0,0.0,0.0,0.0,0.0,0.0,-1.8638,-1.3555,0.0,-1.0193,-0.6605,-0.4672,-0.3662,-0.267,-0.2308,-0.232,-0.1512,0.0704,0.331,0.4325,0.5827,0.7223,0.7521,0.8041,0.8661,0.8788,0.8909,0.9324,1.1424,1.2038,1.2754,1.5418,1.6163,1.6453,1.7429,1.7814,1.8037,1.8795,1.9444,1.9985,2.0266,0.0,0.0,0.0,0.0,0.0,0.0,0.0,0.0,0.0,0.0,2.0579,0.0,0.0,0.0,0.0,0.0,2.2668,2.337,0.0,2.4384,0.0,2.5921,2.6831,0.0,0.0,2.9307,3.1106,3.0487,3.1301,3.3419,3.3316,3.3925,3.5082,3.5239,3.5625,3.6132,3.6208,3.6521,3.6911,3.7614,3.8162,3.8536,3.8876,3.9314,3.973,0.0,0.0,0.0,0.0,0.0,0.0,0.0,-3.4721,0.0,-3.9103,-4.1853,-4.3997,-4.4983,-4.6481,-4.7299,-4.7143,-4.3898,-4.2193,-4.31,-3.9496,-3.7816,-3.8845,-3.681,-3.5053,-3.3885,-3.3866,-3.3393,-3.2406,0.0,0.0,0.0,0.0,0.0,0.0,0.0,-2.1454,0.0,0.0,0.0,-1.0545,-0.702,-0.4895,-0.3736,-0.2804,-0.2523,-0.2725,-0.1917,-0.0704,0.0804,0.2515,0.4422,0.6022,0.6126,0.7186,0.8238,0.7905,0.8758,1.0114,1.114,1.2723,1.4635,1.7054,1.8373,1.9659,2.1743,2.2295,2.27,2.3676,2.4003,2.3979,2.3688,2.2815,0.0,0.0,0.0,0.0,0.0,0.0,2.1355,0.0,0.0,0.0,0.0,0.0,0.0,0.0,0.0,2.3036,2.3777,0.0,2.5575,0.0,0.0,0.0,2.8981,0.0,3.0117,3.1918,3.1564,3.2514,3.4698,3.4618,3.5127,3.6084,3.6359,3.6681,3.7066,3.7506,3.7851,3.8049,3.8596,3.9008,3.9238,3.9439,3.984,4.0279,0.0,-2.2593,0.0,0.0,-2.5776,0.0,-3.0441,-3.3553,-3.6751,-3.9521,-4.1811,-4.3813,-4.5428,-4.6586,-4.7201,-4.7273,-4.4156,-4.2658,-4.3623,-3.9816,-3.8063,-3.9182,-3.673,-3.4823,-3.366,-3.3709,-3.3099,0.0,0.0,0.0,0.0,0.0,0.0,0.0,0.0,0.0,0.0,0.0,-1.3457,-1.093,-0.7488,-0.5183,-0.371,-0.2907,-0.2716,-0.2826,-0.2118,-0.1917,-0.1713,0.0403,0.2513,0.4321,0.4626,0.5932,0.7235,0.6531,0.8004,1.0023,1.0915,1.3459,1.656,1.9534,2.1755,2.3952,2.6512,2.7211,2.7507,2.8223,2.8246,2.7958,2.7502,2.6879,0.0,0.0,0.0,0.0,0.0,0.0,0.0,0.0,0.0,0.0,2.4791,0.0,0.0,0.0,0.0,2.346,2.4379,2.5566,2.6293,2.6436,0.0,2.8817,2.9374,0.0,3.0738,3.2735,3.2438,3.3484,3.5727,3.5736,3.6195,3.6907,3.7285,3.7578,3.7893,3.8633,3.9008,3.9069,3.9389,3.967,3.9895,3.9937,4.0176,4.053,0.0,0.0,0.0,0.0,0.0,0.0,-3.0491,-3.2609,-3.5509,-3.9984,-4.2457,-4.4464,-4.6111,-4.6602,-4.6336,-4.5043,-4.45,-4.2683,-3.9089,-3.9857,-3.9144,-3.6151,-3.6175,-3.5708,-3.4399,-3.3968,-3.3339,0.0,0.0,-2.9388,0.0,0.0,0.0,0.0,0.0,0.0,0.0,-1.648,-1.3283,-1.0932,-0.7489,-0.4923,-0.3147,-0.3049,-0.3083,-0.3128,-0.3027,-0.2624,-0.1917,-0.1713,0.0101,0.2414,0.312,0.4225,0.5122,0.5027,0.5222,0.6443,1.0958,1.4097,1.7412,2.3364,2.6674,2.8925,3.0814,3.1262,3.1205,3.1062,3.1457,3.1717,3.1313,3.0678,2.9327,0.0,0.0,0.0,0.0,0.0,2.4776,2.3873,0.0,0.0,2.3842,2.2508,0.0,0.0,2.3852,2.4557,2.6069,2.5137,2.4984,2.5945,2.7397,2.8885,3.0369,3.0804,3.2536,3.5504,3.421,3.4719,3.6746,3.6943,3.7433,3.8138,3.8234,3.8554,3.8998,3.9287,3.9414,3.9439,3.9502,3.967,3.9916,4.0024,4.0329,4.0694,0.0,0.0,0.0,0.0,0.0,0.0,0.0,-3.1293,-3.3792,-3.676,-3.9899,-4.2751,-4.5162,-4.5839,-4.5845,-4.5101,-4.4749,-4.3728,-4.1771,-4.0294,-3.9101,-3.8083,-3.6557,-3.5385,-3.4673,-3.4018,-3.314,0.0,0.0,0.0,0.0,0.0,0.0,0.0,0.0,-2.1576,-2.0631,-1.6618,-1.3789,-1.1685,-0.7745,-0.5246,-0.3851,-0.3277,-0.3101,-0.3123,-0.3123,-0.2925,-0.2536,-0.2047,-0.0494,0.1208,0.0907,0.2312,0.3917,0.3318,0.4814,0.7511,1.1252,1.5665,2.0398,2.5499,2.928,3.2396,3.4517,3.5261,3.5454,3.5349,3.5001,3.4718,3.461,3.3694,3.2204,2.9944,0.0,0.0,0.0,0.0,0.0,2.8201,0.0,2.7626,0.0,2.6113,0.0,0.0,0.0,2.5009,2.6377,2.7163,2.815,2.9499,0.0,3.1568,3.3904,3.3373,3.4268,3.6551,3.6233,3.6682,3.7826,3.799,3.837,3.8915,3.8998,3.9275,3.9609,3.9717,3.9829,3.9996,4.0062,4.0157,4.0286,4.0431,4.0617,4.0809,-2.1579,0.0,-2.3836,0.0,-2.6506,-2.8111,-2.7757,-2.9984,-3.2225,-3.3873,-3.7057,-4.0388,-4.362,-4.4493,-4.4563,-4.394,-4.3578,-4.2802,-4.1401,-3.9406,-3.8239,-3.8174,-3.6207,0.0,-3.4592,-3.3547,-3.2485,-3.139,-2.9425,0.0,0.0,0.0,0.0,0.0,-2.1935,-2.1182,-1.9905,-1.6474,-1.392,-1.1869,-0.7989,-0.5614,-0.4332,-0.3399,-0.3127,-0.3144,-0.3144,-0.3144,-0.3049,-0.2381,-0.1549,-0.0792,-0.0798,0.0601,0.221,0.1712,0.4011,0.7667,1.1916,1.7348,2.2997,2.828,3.2371,3.5578,3.7471,3.818,3.8427,3.8386,3.7744,3.7218,3.7113,3.6212,3.4924,3.294,0.0,0.0,0.0,2.9668,0.0,3.0764,2.9828,2.9499,3.0615,2.8485,0.0,0.0,0.0,2.6204,2.6835,2.8129,2.9417,0.0,0.0,0.0,3.5192,3.4407,3.5119,3.7324,3.7648,3.8059,3.8517,3.8765,3.9059,3.9376,3.9534,3.9709,3.9899,4.004,4.0196,4.0381,4.0523,4.0545,4.0559,4.0706,4.0819,4.0896,-2.1989,-2.3425,-2.4517,-2.4302,-2.6463,-2.7637,-2.5839,-2.8507,-3.1015,-3.1879,-3.4456,-3.7654,-4.1701,-4.25,-4.2131,-4.0715,-4.0489,-3.8978,-3.5531,-3.6663,-3.6629,0.0,0.0,-3.4592,-3.4021,-3.2314,-3.1447,-3.139,0.0,0.0,-2.5667,0.0,-2.2115,-2.1468,-2.1056,-2.0081,-1.8762,-1.6098,-1.349,-1.0963,-0.8225,-0.6042,-0.4334,-0.3325,-0.2997,-0.3144,-0.3144,-0.3144,-0.3144,-0.3049,-0.3711,-0.4007,-0.146,-0.0695,-0.0605,0.0202,0.1908,0.5354,1.313,1.8952,2.4664,3.2375,3.6503,3.8854,3.9598,3.9692,3.9548,3.9475,3.9352,3.9122,3.8767,3.8334,3.7377,3.528,0.0,0.0,0.0,3.1115,0.0,3.0325,2.8941,2.8164,2.8603,2.8004,0.0,0.0,0.0,0.0,0.0,0.0,0.0,2.7631,2.7954,0.0,3.2921,3.2921,3.4663,3.8101,3.8282,3.8493,3.8736,3.9111,3.9376,3.9524,3.9775,3.9878,3.9916,4.0321,4.0469,4.0523,4.0642,4.0694,4.0706,4.0868,4.0896,4.0906,-1.9968,-2.2361,-2.4115,-2.3357,-2.5515,-2.7255,-2.7077,-2.8741,-3.0748,-3.2966,-3.5037,-3.7326,-3.986,-4.165,-4.2271,0.0,-4.0243,-3.9266,0.0,-3.6429,-3.5474,-3.5664,-3.3909,-3.2385,-3.131,-2.9978,-2.8713,-2.7528,0.0,0.0,0.0,-2.2913,-2.224,-2.1882,-2.0678,-1.9709,-1.8683,-1.5636,-1.3807,-1.2796,-0.9452,-0.7672,-0.6917,-0.4692,-0.3908,-0.3839,-0.3203,-0.2929,-0.2929,-0.2929,-0.3598,-0.4386,-0.4462,-0.3584,-0.2472,-0.2406,-0.0402,0.2078,0.4059,0.7546,1.1195,1.3547,2.1384,2.8717,2.965,3.5372,4.0645,4.1183,4.0516,3.9785,3.964,3.9048,3.7764,3.5337,3.5749,0.0,3.3187,0.0,3.2652,3.19,3.0601,3.0064,3.0783,2.983,0.0,0.0,0.0,0.0,0.0,0.0,0.0,0.0,3.3939,0.0,3.6831,3.6181,3.6819,3.8804,3.9137,3.9449,3.9738,3.9882,4.0063,4.0334,4.0367,4.0415,4.0453,4.0563,4.0629,4.0642,4.0776,4.0858,4.084,4.0999,4.1039,4.1056,-2.0085,-2.1739,-2.3029,-2.2565,-2.4422,-2.6068,-2.6174,-2.8341,-3.0673,-3.2736,-3.5185,-3.7387,-3.8995,-4.0891,0.0,-4.1335,-4.0158,-3.932,-3.8985,-3.674,-3.5464,-3.5623,-3.368,-3.1974,-3.0701,-2.9173,0.0,-2.6321,-2.5411,-2.4306,-2.3194,-2.2786,-2.2317,-2.17,-2.043,-1.9395,-1.8381,-1.5996,-1.4601,-1.3749,-1.108,-0.9789,-0.9191,-0.6051,-0.4994,-0.5073,-0.3492,-0.3141,-0.3409,-0.3409,-0.4508,-0.619,-0.7563,-0.7376,-0.6538,-0.6133,-0.4776,-0.3274,-0.2475,-0.0784,0.1284,0.3559,1.0443,1.8059,2.3508,3.3347,4.1356,4.1528,4.0858,4.0262,4.0192,3.9656,3.8637,3.6901,3.7071,3.6765,3.5012,0.0,3.3312,0.0,0.0,3.1446,0.0,3.2201,3.2255,0.0,0.0,0.0,0.0,0.0,3.3962,3.5506,3.5806,3.6657,3.8163,3.7551,3.7942,3.9373,3.9716,4.0042,4.0304,4.0304,4.0438,4.0654,4.0602,4.0642,4.068,4.0754,4.0765,4.0787,4.0913,4.0991,4.0991,4.1072,4.1097,4.1101,-2.1589,-2.1616,-2.1544,0.0,-2.3289,0.0,-2.3673,-2.7397,-3.0724,-3.1737,-3.5032,-3.7818,-3.9102,-4.0254,-4.0871,-4.0802,0.0,0.0,-3.7929,-3.7217,-3.6151,-3.4594,-3.3838,-3.2888,-3.1693,-2.9497,-2.798,-2.7233,-2.5063,-2.3694,-2.3001,-2.3001,-2.2381,-2.1165,-2.0333,-1.9237,-1.7997,-1.7172,-1.5846,-1.4253,-1.3264,-1.2397,-1.1113,-0.7418,-0.6543,-0.6867,-0.4105,-0.3678,-0.4389,-0.4474,-0.6239,-0.8798,-1.066,-1.1804,-1.2197,-1.1021,-1.0825,-1.0283,-0.7557,-0.7243,-0.6335,-0.0588,0.2991,0.8407,2.1121,3.3334,4.1732,4.0831,4.0629,4.0588,4.05,4.0119,3.9775,3.9534,3.8292,3.7323,3.7272,3.4504,3.2625,3.316,0.0,0.0,3.2676,3.4808,3.523,0.0,0.0,0.0,0.0,0.0,3.3126,3.3923,3.4697,3.5872,3.7485,3.7505,3.8322,3.9861,4.0101,4.0321,4.0508,4.0523,4.053,4.0602,4.0615,4.0655,4.073,4.0878,4.0917,4.0935,4.1056,4.1081,4.1115,4.1108,4.1082,4.1087,0.0,0.0,-2.1449,-2.0194,-2.1999,-2.3972,-2.4887,-2.8046,-3.122,-3.4088,-3.6568,-3.8559,-3.968,-4.0451,-4.0629,-4.0043,-3.8215,-3.7482,-3.8356,-3.5873,-3.4452,-3.4703,-3.2935,-3.1388,-3.0219,-2.8512,-2.697,-2.562,-2.4013,-2.3128,-2.3001,-2.3001,-2.2381,-2.1165,-2.074,-1.9866,-1.87,-1.8249,-1.7831,-1.7315,-1.6443,-1.5695,-1.4613,-1.0964,-0.937,-0.8801,-0.6051,-0.5186,-0.5453,-0.6233,-0.7372,-0.9061,-1.2215,-1.3988,-1.5095,-1.6397,-1.6321,-1.6809,-2.0966,-2.2419,-2.2747,-2.27,-0.7755,0.9996,2.1516,3.3475,4.1911,4.1078,4.0818,4.0721,4.0604,4.0317,4.0022,3.9709,3.9239,3.7988,3.5303,3.4921,3.4083,0.0,3.3358,3.4604,3.4547,3.6342,3.6933,0.0,0.0,3.6118,3.699,3.6702,3.7125,3.848,3.8708,3.9032,3.9509,3.9674,3.9934,4.0356,4.0389,4.0438,4.0523,4.0598,4.0694,4.0754,4.0819,4.0887,4.1015,4.1038,4.1045,4.1045,4.1045,4.1039,4.1076,4.1046,4.1072,4.1128,-1.9922,-2.0798,-2.1146,-2.0573,-2.1787,-2.3353,-2.5013,-2.8041,-3.1047,-3.3652,-3.651,-3.8593,-3.9412,-4.0035,-4.0043,-3.925,-3.8353,-3.7861,-3.782,-3.619,-3.5213,-3.5124,-3.3848,-3.2449,-3.1089,-2.9658,-2.8002,-2.6077,-2.4684,-2.394,-2.394,-2.3276,-2.2456,-2.1624,-2.1451,-2.0817,-1.9963,-1.9769,-1.9515,-1.9104,-1.8593,-1.8037,-1.7057,-1.3884,-1.223,-1.1368,-0.8727,-0.7819,-0.793,-0.9046,-1.0416,-1.2244,-1.5693,-1.8136,-2.0317,-2.4033,-2.4739,-2.529,-2.9694,-3.2041,-3.2692,-3.0642,-1.0824,0.9795,1.6026,3.0828,4.3032,4.2233,4.17,4.1362,4.1274,4.0746,4.023,3.9844,3.8828,3.7316,3.5175,3.4551,3.3961,3.3058,3.4749,3.6136,3.6588,3.8127,3.8584,3.7324,3.7108,0.0,3.8278,3.8027,3.8601,4.0176,4.0289,4.0286,4.0339,4.0438,4.0508,4.0508,4.0569,4.0598,4.0598,4.0707,4.0765,4.0849,4.0887,4.0984,4.111,4.111,4.1117,4.1089,4.1026,4.1006,4.1037,4.1016,4.1001,4.1053,-2.1152,-2.0925,-2.0587,-2.131,-2.1819,-2.2815,-2.4716,-2.7826,-3.0665,-3.2691,-3.5745,-3.8053,-3.8783,-3.9135,-3.9064,-3.8456,-3.8915,-3.8584,-3.6921,-3.7065,-3.6757,-3.5644,-3.5352,-3.4523,-3.3085,-3.1566,-2.9806,-2.7721,-2.6189,-2.5341,-2.5061,-2.3868,-2.2905,-2.2101,-2.2176,-2.1873,-2.1318,-2.1395,-2.1048,-2.0411,-2.0411,-1.9944,-1.9061,-1.6379,-1.4981,-1.4158,-1.1684,-1.0916,-1.1222,-1.2483,-1.4161,-1.6217,-1.9556,-2.2461,-2.5756,-3.1177,-3.3071,-3.3719,-3.5398,-3.7324,-3.729,-3.1039,-1.042,0.858,0.9251,2.7488,4.4036,4.3269,4.2571,4.205,4.1879,4.1103,4.03,3.9719,3.7944,3.6385,3.5622,0.0,3.3859,3.5412,3.6546,3.7591,3.8588,3.9792,4.0009,3.8593,3.8247,3.8448,3.926,3.8668,3.8936,4.0377,4.0466,4.0515,4.0508,4.0508,4.0523,4.0539,4.0612,4.0693,4.0681,4.0742,4.0819,4.0887,4.0913,4.0984,4.1065,4.1065,4.1078,4.1056,4.1011,4.0983,4.1003,4.0991,4.0273,3.9315,-1.9865,-2.0067,-1.9957,-1.9766,-2.1095,-2.2961,-2.5099,-2.8022,-3.1184,-3.4425,-3.5669,-3.685,-3.8437,-3.7818,-3.7346,-3.7638,-3.7408,-3.7032,-3.6448,-3.6617,-3.6582,-3.5994,-3.5674,-3.5284,-3.4731,-3.2168,-3.0485,-2.9772,-2.7889,-2.635,-2.5061,-2.4874,-2.3845,-2.2101,-2.2628,-2.2553,-2.2025,-2.2456,-2.2606,-2.2531,-2.2531,-2.2155,-2.1298,-1.8855,-1.7569,-1.6766,-1.4569,-1.3992,-1.4406,-1.5672,-1.649,-1.754,-2.1336,-2.4297,-2.7468,-3.232,-3.5837,-3.8196,-3.8819,-3.7354,-3.4688,-3.0918,-1.1626,0.697,0.8922,2.6957,4.303,4.2422,4.2225,4.1926,4.1129,4.0717,4.0029,3.8604,3.7993,3.6865,3.4611,0.0,3.6849,3.6479,3.8581,4.014,4.0293,4.0632,4.0671,4.0319,4.0149,4.0138,4.0269,4.0169,4.0213,4.0466,4.0476,4.0508,4.0508,4.0508,4.0569,4.0654,4.0577,4.0539,4.0602,4.0667,4.0715,4.0738,4.0968,4.1045,4.1023,4.1023,4.0968,4.0943,4.0937,4.0955,4.1003,4.1016,3.7001,3.1602,-1.9568,-1.9717,-1.9925,-2.0781,-2.1496,-2.2843,-2.5587,-2.7952,-3.0604,-3.3948,-3.4923,-3.6088,-3.8044,-3.7234,-3.6539,-3.6504,-3.6539,-3.6145,-3.5145,-3.5688,-3.6145,-3.6444,-3.5953,-3.5548,-3.5352,-3.3323,-3.205,-3.1524,-2.974,-2.8184,-2.6822,-2.6102,-2.5039,-2.3863,-2.3621,-2.3694,-2.379,-2.3621,-2.4036,-2.4708,-2.442,-2.3818,-2.3091,-2.1611,-2.0159,-1.8744,-1.796,-1.768,-1.7874,-1.9206,-2.0037,-2.1128,-2.42,-2.6909,-2.9625,-3.3536,-3.6892,-3.9279,-3.8707,-3.6385,-3.3326,-3.0019,-1.0854,0.7724,0.9402,2.765,4.4062,4.3305,4.2967,4.252,4.1606,4.1067,4.0423,3.9546,3.8633,3.7643,3.6382,3.723,3.7848,3.7533,3.9448,4.0858,4.0917,4.0904,4.0857,4.0798,4.0676,4.0602,4.0604,4.063,4.0642,4.0612,4.0554,4.0508,4.0515,4.0515,4.0492,4.0523,4.0508,4.0545,4.0681,4.0776,4.084,4.0935,4.1023,4.1052,4.1033,4.1013,4.0994,4.0983,4.0967,4.0983,4.0929,4.0508,3.5872,2.9757,-1.9127,-1.9383,-1.9843,-2.1298,-2.1839,-2.3233,-2.62,-2.813,-3.0304,-3.3339,-3.4086,-3.498,-3.6887,-3.6047,-3.5347,-3.53,-3.5491,-3.5192,-3.4185,-3.4535,-3.5243,-3.6087,-3.5824,-3.5648,-3.562,-3.4409,-3.3411,-3.2667,-3.1283,-2.9779,-2.8384,-2.7262,-2.6382,-2.5487,-2.4707,-2.4636,-2.5158,-2.4492,-2.5016,-2.6083,-2.5417,-2.4874,-2.4281,-2.3481,-2.2017,-2.0391,-2.0579,-2.0738,-2.0958,-2.209,-2.3105,-2.4351,-2.6652,-2.8955,-3.1336,-3.4519,-3.7366,-3.911,-3.7521,-3.5135,-3.2347,-2.9269,-1.0014,0.8572,0.9892,2.8215,4.4754,4.4051,4.3632,4.3039,4.1962,4.1295,4.0694,4.0089,0.0,3.8248,3.8147,3.813,3.8336,3.8818,4.0079,4.096,4.1104,4.0994,4.0928,4.0943,4.0827,4.077,4.0752,4.077,4.0726,4.0681,4.0612,4.0539,4.0508,4.0531,4.0531,4.0476,4.05,4.0577,4.0738,4.084,4.0943,4.103,4.1038,4.1026,4.1056,4.1006,4.092,4.0762,4.0742,4.0617,4.0164,3.8008,3.28,2.6537,-1.7842,-1.8726,-1.9601,-1.9407,-2.1693,-2.442,-2.6942,-2.8905,-3.1062,-3.3795,-3.3291,-3.3105,-3.4278,-3.331,-3.3034,-3.412,-3.3868,-3.3766,-3.4081,-3.3455,-3.346,-3.4337,-3.5114,-3.5688,-3.6037,-3.4854,-3.369,-3.2606,-3.1934,-3.0508,-2.84,-2.8302,-2.7538,-2.6221,-2.5322,-2.4945,-2.5016,-2.4779,-2.511,-2.5763,-2.504,-2.4826,-2.4708,-2.3526,-2.2606,-2.1935,-2.1767,-2.2226,-2.3023,-2.3504,-2.4346,-2.5511,-2.7617,-2.9571,-3.1746,-3.519,-3.7442,-3.8296,-3.6153,-3.3874,-3.1554,-2.9106,-1.0252,0.8158,1.0028,2.7858,4.3873,4.344,4.3473,4.3045,4.1305,4.096,4.0408,3.8813,0.0,0.0,3.8313,3.8273,3.8889,4.0537,4.0813,4.0928,4.1104,4.1106,4.1072,4.1104,4.1039,4.0948,4.089,4.0759,4.0732,4.0681,4.0668,4.0668,4.0577,4.0588,4.0629,4.0667,4.0549,4.0617,4.0898,4.0907,4.0888,4.0819,4.102,4.1,4.0914,4.0978,4.0515,3.9792,3.9872,3.9415,3.7917,3.1707,2.4711,1.7413,-1.7985,-1.848,-1.9333,-2.0837,-2.2394,-2.4288,-2.7188,-2.8986,-3.092,-3.3445,-3.303,-3.299,-3.4276,-3.3375,-3.2958,-3.3624,-3.3758,-3.3679,-3.3352,-3.3269,-3.3308,-3.3505,-3.4233,-3.4628,-3.4541,-3.415,-3.3173,-3.1575,-3.1444,-3.0304,-2.8222,-2.8207,-2.7669,-2.6791,-2.6324,-2.6433,-2.6799,-2.6296,-2.6992,-2.8373,-2.7245,-2.6815,-2.6832,-2.597,-2.4945,-2.4009,-2.3453,-2.405,-2.5134,-2.4847,-2.5889,-2.7511,-2.8721,-3.0456,-3.2708,-3.5975,-3.7608,-3.8099,-3.6746,-3.4317,-3.1249,-2.7761,-1.443,0.0236,0.9275,2.2979,3.5529,4.1699,4.2861,4.2318,4.1011,4.09,4.0783,4.0071,0.0,4.0075,4.0037,4.0031,4.0292,4.0953,4.1006,4.1026,4.111,4.1111,4.112,4.111,4.1072,4.1042,4.1045,4.0839,4.0759,4.0801,4.0754,4.0706,4.0667,4.0655,4.0655,4.0706,4.0655,4.073,4.0907,4.0878,4.0888,4.0926,4.0935,4.0634,4.0148,4.0181,3.9745,3.9002,3.9047,3.6306,3.1988,2.8925,2.0767,1.0877,-1.7879,-1.836,-1.9361,-2.1562,-2.294,-2.4625,-2.7264,-2.9012,-3.0637,-3.2444,-3.2416,-3.2607,-3.347,-3.3077,-3.2906,-3.3332,-3.3451,-3.3377,-3.3055,-3.3142,-3.3213,-3.3204,-3.3421,-3.3624,-3.3862,-3.3337,-3.2365,-3.0917,-3.0812,-2.9889,-2.8109,-2.8102,-2.7721,-2.7131,-2.6804,-2.7027,-2.7629,-2.7051,-2.8045,-2.9808,-2.8648,-2.8103,-2.805,-2.7352,-2.6364,-2.5158,-2.442,-2.511,-2.6277,-2.5511,-2.6595,-2.8352,-2.9192,-3.1469,-3.4304,-3.6823,-3.8083,-3.8431,-3.743,-3.5026,-3.195,-2.8264,-1.7649,-0.4798,0.8172,1.9908,3.0836,4.0756,4.2694,4.2251,4.0994,4.0952,4.1058,4.0972,4.1055,4.1114,4.1097,4.1081,4.11,4.111,4.1084,4.1089,4.111,4.1056,4.1061,4.111,4.1072,4.1033,4.0981,4.0874,4.083,4.0839,4.0791,4.077,4.0829,4.0759,4.0776,4.0754,4.0754,4.0809,4.0926,4.0898,4.0917,4.0968,4.0869,4.0431,3.9715,3.9725,3.9138,3.8201,3.8199,3.3933,2.7494,2.4761,1.6779,0.6934,-1.7132,-1.8313,-1.9634,-2.1053,-2.3438,-2.5706,-2.7258,-2.8973,-3.0239,-3.0744,-3.1288,-3.1607,-3.1331,-3.2001,-3.2729,-3.3237,-3.2604,-3.2525,-3.3352,-3.3029,-3.2989,-3.3388,-3.2676,-3.2949,-3.4327,-3.2612,-3.1438,-3.0966,-3.0242,-2.9292,-2.8207,-2.808,-2.7794,-2.7148,-2.6363,-2.6337,-2.6929,-2.6763,-2.785,-2.956,-2.8812,-2.8271,-2.7827,-2.7193,-2.6227,-2.5229,-2.442,-2.511,-2.6277,-2.5511,-2.6277,-2.7723,-2.9066,-3.2562,-3.6467,-3.7798,-3.8844,-3.9277,-3.7877,-3.59,-3.3603,-3.0991,-1.934,-0.5275,0.6923,1.9624,3.1483,4.0883,4.3216,4.305,4.1244,4.1012,4.1084,4.1097,4.109,4.1094,4.1101,4.1116,4.1114,4.1084,4.1111,4.112,4.111,4.0974,4.0974,4.1104,4.0994,4.0828,4.0721,4.0848,4.0848,4.0703,4.082,4.0976,4.111,4.0952,4.0907,4.0907,4.0907,4.0935,4.1015,4.1015,4.0976,4.0898,4.0898,4.0481,3.9806,3.9767,3.8807,3.7299,3.7296,3.2726,2.5277,1.8579,1.2153,0.5779,-1.7368,-1.8087,-1.9199,-2.1998,-2.3771,-2.5418,-2.7216,-2.9258,-3.0643,-3.0855,-3.1266,-3.1306,-3.0633,-3.1255,-3.1531,-3.1115,-3.1758,-3.2642,-3.3737,-3.3457,-3.3459,-3.409,-3.3114,-3.2334,-3.1855,-3.1396,-3.0376,-2.8824,-2.8676,-2.8122,-2.719,-2.624,-2.6194,-2.6801,-2.6578,-2.7255,-2.8577,-2.8685,-2.9549,-3.0718,-2.9656,-2.9282,-2.9129,-2.8492,-2.7868,-2.7271,-2.5951,-2.5906,-2.6277,-2.5511,-2.6227,-2.7958,-3.0806,-3.3627,-3.6221,-3.789,-3.8805,-3.921,-3.9084,-3.7253,-3.4479,-3.0568,-2.5735,-1.6204,0.5382,1.2736,2.032,3.8904,4.2626,4.2216,4.1035,4.0863,4.0955,4.1087,4.1053,4.1043,4.1094,4.1082,4.1101,4.112,4.1026,4.0968,4.0952,4.0904,4.0904,4.0952,4.1013,4.0974,4.0849,4.0896,4.0896,4.0829,4.0869,4.0945,4.1115,4.1065,4.1038,4.1038,4.1038,4.103,4.1015,4.0943,4.0869,4.0791,4.0117,3.9384,3.8626,3.8072,3.7258,3.6329,3.6381,3.216,2.5225,1.8548,1.2003,0.5516,-1.7594,-1.7997,-1.9079,-2.2414,-2.3875,-2.5182,-2.7053,-2.879,-2.9922,-2.9927,-3.047,-3.0618,-3.0104,-3.0722,-3.1118,-3.1005,-3.2401,-3.3552,-3.4128,-3.4403,-3.4409,-3.4149,-3.374,-3.2731,-3.1019,-3.0133,-2.8904,-2.7336,-2.6591,-2.5895,-2.5273,-2.4458,-2.4583,-2.5595,-2.5561,-2.6728,-2.874,-2.8993,-2.9896,-3.0984,-3.0478,-3.0054,-2.9747,-2.9058,-2.8546,-2.8026,-2.6526,-2.6114,-2.6208,-2.5441,-2.6133,-2.7904,-3.1034,-3.3501,-3.5665,-3.7562,-3.8774,-3.9591,-3.979,-3.8239,-3.5867,-3.28,-3.0557,-2.36,-0.2638,0.1896,0.8019,3.0487,3.5211,3.6433,3.9932,4.0649,4.0747,4.1011,4.1038,4.103,4.109,4.1084,4.1094,4.1094,4.1026,4.096,4.096,4.0926,4.0907,4.0907,4.0999,4.1052,4.0917,4.096,4.0937,4.0913,4.0945,4.1006,4.1111,4.1094,4.1115,4.11,4.1084,4.1026,4.0999,4.0917,4.0655,4.0286,3.9673,3.8778,3.7724,3.7211,3.6567,3.5931,3.5988,3.1893,2.5207,1.8548,1.2115,0.5771,-1.7641,-1.7946,-1.9025,-2.2286,-2.3781,-2.5035,-2.6655,-2.7841,-2.8557,-2.8502,-2.9195,-2.9675,-2.9522,-3.0251,-3.114,-3.1969,-3.368,-3.4624,-3.4263,-3.5339,-3.5271,-3.3701,-3.4007,-3.3151,-3.0921,-2.8793,-2.7187,-2.6161,-2.431,-2.3204,-2.2695,-2.272,-2.3162,-2.3916,-2.3942,-2.5418,-2.7882,-2.8453,-2.9406,-3.06,-3.1073,-3.0658,-2.9685,-2.9058,-2.8417,-2.7696,-2.6321,-2.5836,-2.5767,-2.5063,-2.5926,-2.767,-3.0012,-3.2533,-3.5054,-3.6921,-3.8759,-4.0174,-4.0159,-3.9009,-3.7534,-3.6654,-3.4212,-2.8412,-1.4304,-1.0509,-0.3643,1.8686,2.4149,2.8123,3.8397,4.0382,4.0597,4.092,4.1007,4.1023,4.109,4.1087,4.1101,4.1097,4.11,4.1065,4.1065,4.096,4.0907,4.0917,4.103,4.1045,4.0935,4.1045,4.1033,4.0909,4.1037,4.1111,4.1089,4.1089,4.1082,4.1097,4.1037,4.1017,4.0994,4.0878,4.0373,3.9604,3.937,3.8452,3.7069,3.6929,3.654,3.5988,3.5991,3.1971,2.5337,1.8705,1.253,0.6473,-1.7146,-1.7569,-1.8457,-2.1296,-2.2662,-2.4006,-2.6085,-2.7307,-2.8146,-2.8601,-2.8829,-2.8726,-2.8241,-2.9258,-2.9687,-2.9004,-3.132,-3.2869,-3.3134,-3.3352,-3.3417,-3.3242,-3.0953,-2.8989,-2.7552,-2.7845,-2.6469,-2.3262,-2.3111,-2.2381,-2.119,-2.1331,-2.2274,-2.3759,-2.4532,-2.6133,-2.839,-3.0122,-3.0703,-3.0421,-3.107,-3.0598,-2.956,-2.8839,-2.788,-2.6815,-2.5951,-2.4969,-2.4036,-2.3891,-2.4897,-2.662,-2.8671,-3.1789,-3.5059,-3.676,-3.8678,-4.0255,-4.0505,-3.9854,-3.8839,-3.7747,-3.7327,-3.3204,-1.8091,-1.3125,-0.5467,1.6719,2.3148,2.7942,3.8401,4.0269,4.0433,4.0905,4.0916,4.0909,4.1087,4.1094,4.1093,4.1084,4.0994,4.0935,4.0935,4.0913,4.0935,4.1045,4.1059,4.1084,4.1067,4.1076,4.1094,4.1074,4.108,4.1089,4.1093,4.1094,4.1091,4.1082,4.1074,4.1058,4.0989,4.0961,4.05,3.9614,3.883,3.7909,3.6961,3.6262,3.5956,3.5909,3.5981,3.2405,2.6431,1.9808,1.347,0.724,-1.7046,-1.7371,-1.8159,-2.0594,-2.1933,-2.325,-2.5061,-2.6518,-2.7624,-2.8217,-2.7946,-2.7813,-2.8148,-2.8577,-2.9104,-2.9967,-3.1907,-3.328,-3.3704,-3.4057,-3.3456,-3.1625,-2.9858,-2.7159,-2.3458,-2.3487,-2.269,-2.0795,-1.9683,-1.895,-1.8446,-1.8944,-2.0628,-2.333,-2.4015,-2.6134,-2.9177,-3.0295,-3.0548,-3.0123,-3.0619,-3.0133,-2.8988,-2.7904,-2.7091,-2.6314,-2.5252,-2.4276,-2.3475,-2.3891,-2.485,-2.6239,-2.8529,-3.1336,-3.4226,-3.6386,-3.8213,-3.9697,-4.0482,-4.0295,-3.966,-3.8752,-3.8803,-3.6506,-2.6731,-2.4104,-1.8367,0.0555,0.6055,1.2501,2.9047,3.2686,3.4809,3.9863,4.0752,4.0852,4.1012,4.1035,4.1048,4.1094,4.0967,4.0948,4.1007,4.0989,4.1022,4.109,4.109,4.1097,4.1114,4.1114,4.1084,4.1093,4.1093,4.1094,4.1087,4.1089,4.1092,4.1094,4.1084,4.1033,4.1062,4.0972,4.0279,3.9065,3.8471,3.7512,3.6332,3.5896,3.5787,3.5641,3.3005,3.0194,2.6482,1.737,0.9911,0.3939,-1.7125,-1.7371,-1.8082,-2.0114,-2.1333,-2.2571,-2.4157,-2.5469,-2.6622,-2.771,-2.6815,-2.6655,-2.796,-2.7908,-2.8959,-3.1774,-3.3244,-3.4081,-3.4375,-3.5036,-3.3621,-2.9774,-2.9293,-2.6332,-2.0284,-1.8885,-1.8299,-1.8481,-1.6035,-1.5122,-1.5525,-1.6802,-1.9351,-2.2936,-2.3884,-2.6546,-3.0269,-3.033,-3.0124,-2.9788,-3.0052,-2.9319,-2.798,-2.6628,-2.5942,-2.5492,-2.4118,-2.3369,-2.3091,-2.4016,-2.4874,-2.6127,-2.8711,-3.1182,-3.3547,-3.6154,-3.7885,-3.9241,-4.0383,-4.0544,-4.0213,-3.964,-3.9537,-3.8779,-3.5813,-3.5728,-3.2083,-1.7105,-1.2626,-0.4337,1.8826,2.4398,2.8767,3.8894,4.0642,4.082,4.113,4.1056,4.0972,4.1043,4.0965,4.093,4.1054,4.1053,4.1052,4.1052,4.1089,4.1089,4.109,4.109,4.1093,4.109,4.109,4.1087,4.1119,4.1082,4.1084,4.1089,4.105,4.1041,4.1082,4.0827,3.9908,3.8419,3.8119,3.7133,3.5718,3.5685,3.5204,3.4022,2.937,2.6462,2.3529,1.2709,0.5186,0.047,-1.7125,-1.7371,-1.8006,-1.997,-2.0773,-2.2021,-2.4541,-2.4068,-2.4465,-2.7419,-2.5693,-2.4684,-2.6039,-2.7173,-2.8758,-3.0964,-3.2404,-3.3173,-3.3215,-3.3,-3.1635,-2.8868,-2.7509,-2.5069,-2.1173,-1.8138,-1.6482,-1.6154,-1.4728,-1.3909,-1.355,-1.7055,-2.027,-2.3335,-2.6347,-2.9149,-3.1746,-3.1962,-3.099,-2.9325,-2.9432,-2.818,-2.6064,-2.532,-2.4247,-2.3004,-2.2201,-2.1711,-2.1492,-2.2368,-2.386,-2.5871,-2.8302,-3.1304,-3.4307,-3.6712,-3.855,-3.9966,-4.0483,-4.0635,-4.059,-4.0271,-4.0252,-4.0082,-3.9024,-3.7489,-3.2544,-1.9307,-1.3839,-0.4337,1.8826,2.4273,2.876,3.9679,4.0823,4.0746,4.1793,4.1318,4.0813,4.0831,4.0838,4.0817,4.0859,4.0887,4.0934,4.0934,4.1015,4.1091,4.1093,4.1093,4.109,4.1114,4.1119,4.108,4.1119,4.1087,4.1091,4.1091,4.1093,4.1092,4.1093,4.0344,3.9515,3.8534,3.7566,3.6674,3.5866,3.5688,3.2844,2.8555,2.7818,2.1845,1.2896,0.6425,0.3151,0.1881,-1.5759,-1.6332,-1.7002,-1.8119,-1.918,-2.038,-2.1826,-2.2577,-2.3559,-2.5341,-2.4112,-2.3818,-2.5657,-2.1834,-1.9896,-2.1729,-1.8543,-1.8984,-2.5022,-2.2892,-2.3615,-2.8628,-2.705,-2.2391,-1.4616,-0.9658,-0.9606,-1.4441,-1.1935,-1.1439,-1.2907,-1.761,-2.1206,-2.3989,-2.7549,-3.0518,-3.2807,-3.253,-3.1302,-2.9577,-2.8975,-2.71,-2.4544,-2.3047,-2.2048,-2.1403,-2.145,-2.1588,-2.2093,-2.427,-2.5993,-2.7766,-3.0337,-3.2789,-3.5153,-3.7374,-3.8727,-3.9677,-4.0405,-4.0654,-4.063,-4.0381,-4.0415,-4.0406,-4.0024,-3.927,-3.6457,-2.8677,-2.467,-1.7002,0.1064,1.0785,1.9821,3.1441,3.7675,4.12,4.1751,4.1567,4.1253,4.0791,4.0674,4.0674,4.0797,4.0831,4.085,4.085,4.0972,4.103,4.1055,4.1074,4.108,4.1114,4.1116,4.1082,4.1087,4.109,4.1131,4.1171,4.1132,4.0858,4.0427,3.9981,3.9075,3.7828,3.7218,3.6492,3.5764,3.5591,3.4114,3.1395,2.5467,1.6816,0.739,0.4882,0.3366,0.2507]}]]